<?xml version="1.0" encoding="UTF-8" standalone="no" ?>
<gpx xmlns="http://www.topografix.com/GPX/1/1" xmlns:xsi="http://www.w3.org/2001/XMLSchema-instance" xsi:schemaLocation="http://www.topografix.com/GPX/1/1 http://www.topografix.com/GPX/1/1/gpx.xsd" version="1.1" creator="VisuGPX - https://www.visugpx.com">
  <metadata>
    <name>Les Trois Chateaux</name>
    <desc><![CDATA[Sublime randonnée organisée par le département.

Attention, beaucoup de randonneurs, 4 version de la randonnée en parallèle, 12 000 participants total !


]]></desc>
  </metadata>
  <trk>
    <name><![CDATA[9 avr. 2017 à 06:56:44]]></name>
    <cmt><![CDATA[9 avr. 2017 à 06:56:44]]></cmt>
    <trkseg>
      <trkpt lat="48.40284" lon="2.68666">
        <ele>80</ele>
        <time>2017-04-09T04:56:45Z</time>
      </trkpt>
      <trkpt lat="48.40286" lon="2.68667">
        <ele>80</ele>
        <time>2017-04-09T04:59:55Z</time>
      </trkpt>
      <trkpt lat="48.40291" lon="2.68665">
        <ele>80</ele>
        <time>2017-04-09T05:00:13Z</time>
      </trkpt>
      <trkpt lat="48.40289" lon="2.6866">
        <ele>80</ele>
        <time>2017-04-09T05:00:27Z</time>
      </trkpt>
      <trkpt lat="48.40286" lon="2.68653">
        <ele>80</ele>
        <time>2017-04-09T05:00:29Z</time>
      </trkpt>
      <trkpt lat="48.40283" lon="2.68661">
        <ele>80</ele>
        <time>2017-04-09T05:01:11Z</time>
      </trkpt>
      <trkpt lat="48.40289" lon="2.68664">
        <ele>80</ele>
        <time>2017-04-09T05:01:42Z</time>
      </trkpt>
      <trkpt lat="48.40294" lon="2.68661">
        <ele>79</ele>
        <time>2017-04-09T05:01:53Z</time>
      </trkpt>
      <trkpt lat="48.40298" lon="2.68657">
        <ele>79</ele>
        <time>2017-04-09T05:02:00Z</time>
      </trkpt>
      <trkpt lat="48.40302" lon="2.68659">
        <ele>79</ele>
        <time>2017-04-09T05:02:03Z</time>
      </trkpt>
      <trkpt lat="48.40344" lon="2.68672">
        <ele>80</ele>
        <time>2017-04-09T05:02:34Z</time>
      </trkpt>
      <trkpt lat="48.4036" lon="2.68676">
        <ele>80</ele>
        <time>2017-04-09T05:02:46Z</time>
      </trkpt>
      <trkpt lat="48.4037" lon="2.68673">
        <ele>80</ele>
        <time>2017-04-09T05:02:55Z</time>
      </trkpt>
      <trkpt lat="48.40374" lon="2.68668">
        <ele>80</ele>
        <time>2017-04-09T05:02:59Z</time>
      </trkpt>
      <trkpt lat="48.4038" lon="2.68667">
        <ele>80</ele>
        <time>2017-04-09T05:03:04Z</time>
      </trkpt>
      <trkpt lat="48.4039" lon="2.68669">
        <ele>80</ele>
        <time>2017-04-09T05:03:10Z</time>
      </trkpt>
      <trkpt lat="48.40395" lon="2.68672">
        <ele>80</ele>
        <time>2017-04-09T05:03:13Z</time>
      </trkpt>
      <trkpt lat="48.40399" lon="2.68672">
        <ele>81</ele>
        <time>2017-04-09T05:03:16Z</time>
      </trkpt>
      <trkpt lat="48.40403" lon="2.68668">
        <ele>81</ele>
        <time>2017-04-09T05:03:19Z</time>
      </trkpt>
      <trkpt lat="48.40406" lon="2.6866">
        <ele>81</ele>
        <time>2017-04-09T05:03:23Z</time>
      </trkpt>
      <trkpt lat="48.40412" lon="2.6866">
        <ele>81</ele>
        <time>2017-04-09T05:03:27Z</time>
      </trkpt>
      <trkpt lat="48.40413" lon="2.68684">
        <ele>81</ele>
        <time>2017-04-09T05:03:38Z</time>
      </trkpt>
      <trkpt lat="48.40414" lon="2.68692">
        <ele>80</ele>
        <time>2017-04-09T05:03:42Z</time>
      </trkpt>
      <trkpt lat="48.40411" lon="2.687">
        <ele>80</ele>
        <time>2017-04-09T05:03:54Z</time>
      </trkpt>
      <trkpt lat="48.40416" lon="2.68705">
        <ele>80</ele>
        <time>2017-04-09T05:03:58Z</time>
      </trkpt>
      <trkpt lat="48.40421" lon="2.68709">
        <ele>80</ele>
        <time>2017-04-09T05:04:01Z</time>
      </trkpt>
      <trkpt lat="48.40431" lon="2.6871">
        <ele>81</ele>
        <time>2017-04-09T05:04:07Z</time>
      </trkpt>
      <trkpt lat="48.40441" lon="2.68714">
        <ele>82</ele>
        <time>2017-04-09T05:04:13Z</time>
      </trkpt>
      <trkpt lat="48.40487" lon="2.68717">
        <ele>83</ele>
        <time>2017-04-09T05:04:44Z</time>
      </trkpt>
      <trkpt lat="48.40517" lon="2.68731">
        <ele>83</ele>
        <time>2017-04-09T05:05:05Z</time>
      </trkpt>
      <trkpt lat="48.40522" lon="2.68736">
        <ele>83</ele>
        <time>2017-04-09T05:05:09Z</time>
      </trkpt>
      <trkpt lat="48.40529" lon="2.68747">
        <ele>83</ele>
        <time>2017-04-09T05:05:16Z</time>
      </trkpt>
      <trkpt lat="48.4053" lon="2.68753">
        <ele>83</ele>
        <time>2017-04-09T05:05:21Z</time>
      </trkpt>
      <trkpt lat="48.4053" lon="2.6876">
        <ele>83</ele>
        <time>2017-04-09T05:05:25Z</time>
      </trkpt>
      <trkpt lat="48.40514" lon="2.68793">
        <ele>83</ele>
        <time>2017-04-09T05:05:43Z</time>
      </trkpt>
      <trkpt lat="48.40501" lon="2.6884">
        <ele>83</ele>
        <time>2017-04-09T05:06:05Z</time>
      </trkpt>
      <trkpt lat="48.40498" lon="2.68847">
        <ele>82</ele>
        <time>2017-04-09T05:06:09Z</time>
      </trkpt>
      <trkpt lat="48.40477" lon="2.68907">
        <ele>82</ele>
        <time>2017-04-09T05:06:39Z</time>
      </trkpt>
      <trkpt lat="48.40472" lon="2.6892">
        <ele>82</ele>
        <time>2017-04-09T05:06:45Z</time>
      </trkpt>
      <trkpt lat="48.40473" lon="2.68928">
        <ele>82</ele>
        <time>2017-04-09T05:06:49Z</time>
      </trkpt>
      <trkpt lat="48.40468" lon="2.68942">
        <ele>82</ele>
        <time>2017-04-09T05:06:55Z</time>
      </trkpt>
      <trkpt lat="48.40465" lon="2.68948">
        <ele>82</ele>
        <time>2017-04-09T05:06:58Z</time>
      </trkpt>
      <trkpt lat="48.40455" lon="2.68976">
        <ele>82</ele>
        <time>2017-04-09T05:07:11Z</time>
      </trkpt>
      <trkpt lat="48.40452" lon="2.68983">
        <ele>82</ele>
        <time>2017-04-09T05:07:14Z</time>
      </trkpt>
      <trkpt lat="48.40436" lon="2.69034">
        <ele>81</ele>
        <time>2017-04-09T05:07:38Z</time>
      </trkpt>
      <trkpt lat="48.40435" lon="2.69041">
        <ele>81</ele>
        <time>2017-04-09T05:07:41Z</time>
      </trkpt>
      <trkpt lat="48.40414" lon="2.69112">
        <ele>80</ele>
        <time>2017-04-09T05:08:13Z</time>
      </trkpt>
      <trkpt lat="48.40408" lon="2.69125">
        <ele>80</ele>
        <time>2017-04-09T05:08:19Z</time>
      </trkpt>
      <trkpt lat="48.40397" lon="2.69153">
        <ele>80</ele>
        <time>2017-04-09T05:08:32Z</time>
      </trkpt>
      <trkpt lat="48.40394" lon="2.69161">
        <ele>80</ele>
        <time>2017-04-09T05:08:36Z</time>
      </trkpt>
      <trkpt lat="48.40393" lon="2.69168">
        <ele>80</ele>
        <time>2017-04-09T05:08:39Z</time>
      </trkpt>
      <trkpt lat="48.40396" lon="2.69174">
        <ele>80</ele>
        <time>2017-04-09T05:08:42Z</time>
      </trkpt>
      <trkpt lat="48.40395" lon="2.69181">
        <ele>80</ele>
        <time>2017-04-09T05:08:45Z</time>
      </trkpt>
      <trkpt lat="48.40388" lon="2.69192">
        <ele>80</ele>
        <time>2017-04-09T05:08:51Z</time>
      </trkpt>
      <trkpt lat="48.40384" lon="2.69205">
        <ele>80</ele>
        <time>2017-04-09T05:08:58Z</time>
      </trkpt>
      <trkpt lat="48.4038" lon="2.69211">
        <ele>80</ele>
        <time>2017-04-09T05:09:01Z</time>
      </trkpt>
      <trkpt lat="48.4037" lon="2.69249">
        <ele>80</ele>
        <time>2017-04-09T05:09:16Z</time>
      </trkpt>
      <trkpt lat="48.40371" lon="2.69265">
        <ele>80</ele>
        <time>2017-04-09T05:09:22Z</time>
      </trkpt>
      <trkpt lat="48.40341" lon="2.69334">
        <ele>80</ele>
        <time>2017-04-09T05:09:53Z</time>
      </trkpt>
      <trkpt lat="48.40325" lon="2.69373">
        <ele>79</ele>
        <time>2017-04-09T05:10:11Z</time>
      </trkpt>
      <trkpt lat="48.40323" lon="2.69388">
        <ele>79</ele>
        <time>2017-04-09T05:10:17Z</time>
      </trkpt>
      <trkpt lat="48.40318" lon="2.69403">
        <ele>79</ele>
        <time>2017-04-09T05:10:23Z</time>
      </trkpt>
      <trkpt lat="48.40311" lon="2.69416">
        <ele>79</ele>
        <time>2017-04-09T05:10:29Z</time>
      </trkpt>
      <trkpt lat="48.40297" lon="2.69448">
        <ele>79</ele>
        <time>2017-04-09T05:10:46Z</time>
      </trkpt>
      <trkpt lat="48.40293" lon="2.69456">
        <ele>79</ele>
        <time>2017-04-09T05:10:50Z</time>
      </trkpt>
      <trkpt lat="48.40291" lon="2.69463">
        <ele>79</ele>
        <time>2017-04-09T05:10:53Z</time>
      </trkpt>
      <trkpt lat="48.4029" lon="2.69471">
        <ele>79</ele>
        <time>2017-04-09T05:10:56Z</time>
      </trkpt>
      <trkpt lat="48.40289" lon="2.69478">
        <ele>79</ele>
        <time>2017-04-09T05:10:59Z</time>
      </trkpt>
      <trkpt lat="48.40289" lon="2.69486">
        <ele>79</ele>
        <time>2017-04-09T05:11:03Z</time>
      </trkpt>
      <trkpt lat="48.40287" lon="2.69495">
        <ele>79</ele>
        <time>2017-04-09T05:11:06Z</time>
      </trkpt>
      <trkpt lat="48.40282" lon="2.69505">
        <ele>79</ele>
        <time>2017-04-09T05:11:10Z</time>
      </trkpt>
      <trkpt lat="48.40273" lon="2.69534">
        <ele>79</ele>
        <time>2017-04-09T05:11:24Z</time>
      </trkpt>
      <trkpt lat="48.40267" lon="2.69547">
        <ele>79</ele>
        <time>2017-04-09T05:11:30Z</time>
      </trkpt>
      <trkpt lat="48.40265" lon="2.69561">
        <ele>78</ele>
        <time>2017-04-09T05:11:36Z</time>
      </trkpt>
      <trkpt lat="48.40264" lon="2.69568">
        <ele>78</ele>
        <time>2017-04-09T05:11:38Z</time>
      </trkpt>
      <trkpt lat="48.40266" lon="2.69576">
        <ele>78</ele>
        <time>2017-04-09T05:11:41Z</time>
      </trkpt>
      <trkpt lat="48.40267" lon="2.69582">
        <ele>78</ele>
        <time>2017-04-09T05:11:44Z</time>
      </trkpt>
      <trkpt lat="48.40263" lon="2.69591">
        <ele>78</ele>
        <time>2017-04-09T05:11:48Z</time>
      </trkpt>
      <trkpt lat="48.40261" lon="2.69599">
        <ele>78</ele>
        <time>2017-04-09T05:11:51Z</time>
      </trkpt>
      <trkpt lat="48.40261" lon="2.69607">
        <ele>78</ele>
        <time>2017-04-09T05:11:54Z</time>
      </trkpt>
      <trkpt lat="48.40259" lon="2.69614">
        <ele>77</ele>
        <time>2017-04-09T05:11:57Z</time>
      </trkpt>
      <trkpt lat="48.40257" lon="2.69629">
        <ele>77</ele>
        <time>2017-04-09T05:12:03Z</time>
      </trkpt>
      <trkpt lat="48.40248" lon="2.69655">
        <ele>77</ele>
        <time>2017-04-09T05:12:15Z</time>
      </trkpt>
      <trkpt lat="48.40244" lon="2.69661">
        <ele>76</ele>
        <time>2017-04-09T05:12:18Z</time>
      </trkpt>
      <trkpt lat="48.40229" lon="2.69673">
        <ele>76</ele>
        <time>2017-04-09T05:12:29Z</time>
      </trkpt>
      <trkpt lat="48.40223" lon="2.69675">
        <ele>76</ele>
        <time>2017-04-09T05:12:32Z</time>
      </trkpt>
      <trkpt lat="48.40211" lon="2.6967">
        <ele>75</ele>
        <time>2017-04-09T05:12:38Z</time>
      </trkpt>
      <trkpt lat="48.40201" lon="2.69672">
        <ele>75</ele>
        <time>2017-04-09T05:12:44Z</time>
      </trkpt>
      <trkpt lat="48.40191" lon="2.6967">
        <ele>75</ele>
        <time>2017-04-09T05:12:52Z</time>
      </trkpt>
      <trkpt lat="48.40187" lon="2.69673">
        <ele>75</ele>
        <time>2017-04-09T05:12:56Z</time>
      </trkpt>
      <trkpt lat="48.40183" lon="2.69678">
        <ele>75</ele>
        <time>2017-04-09T05:13:01Z</time>
      </trkpt>
      <trkpt lat="48.40183" lon="2.69685">
        <ele>75</ele>
        <time>2017-04-09T05:13:19Z</time>
      </trkpt>
      <trkpt lat="48.40183" lon="2.69692">
        <ele>75</ele>
        <time>2017-04-09T05:13:55Z</time>
      </trkpt>
      <trkpt lat="48.40184" lon="2.69688">
        <ele>75</ele>
        <time>2017-04-09T05:15:44Z</time>
      </trkpt>
      <trkpt lat="48.40189" lon="2.69693">
        <ele>74</ele>
        <time>2017-04-09T05:17:21Z</time>
      </trkpt>
      <trkpt lat="48.40194" lon="2.69697">
        <ele>73</ele>
        <time>2017-04-09T05:19:01Z</time>
      </trkpt>
      <trkpt lat="48.40198" lon="2.69702">
        <ele>72</ele>
        <time>2017-04-09T05:20:52Z</time>
      </trkpt>
      <trkpt lat="48.40203" lon="2.69708">
        <ele>72</ele>
        <time>2017-04-09T05:21:21Z</time>
      </trkpt>
      <trkpt lat="48.40206" lon="2.69714">
        <ele>71</ele>
        <time>2017-04-09T05:21:27Z</time>
      </trkpt>
      <trkpt lat="48.40206" lon="2.6973">
        <ele>71</ele>
        <time>2017-04-09T05:21:38Z</time>
      </trkpt>
      <trkpt lat="48.40206" lon="2.69747">
        <ele>71</ele>
        <time>2017-04-09T05:21:50Z</time>
      </trkpt>
      <trkpt lat="48.40207" lon="2.69817">
        <ele>71</ele>
        <time>2017-04-09T05:22:21Z</time>
      </trkpt>
      <trkpt lat="48.40204" lon="2.69873">
        <ele>72</ele>
        <time>2017-04-09T05:22:46Z</time>
      </trkpt>
      <trkpt lat="48.40203" lon="2.69879">
        <ele>72</ele>
        <time>2017-04-09T05:22:49Z</time>
      </trkpt>
      <trkpt lat="48.4018" lon="2.69927">
        <ele>72</ele>
        <time>2017-04-09T05:23:16Z</time>
      </trkpt>
      <trkpt lat="48.4018" lon="2.69934">
        <ele>72</ele>
        <time>2017-04-09T05:23:20Z</time>
      </trkpt>
      <trkpt lat="48.40177" lon="2.69949">
        <ele>72</ele>
        <time>2017-04-09T05:23:30Z</time>
      </trkpt>
      <trkpt lat="48.40162" lon="2.69958">
        <ele>71</ele>
        <time>2017-04-09T05:23:40Z</time>
      </trkpt>
      <trkpt lat="48.40147" lon="2.69958">
        <ele>71</ele>
        <time>2017-04-09T05:23:50Z</time>
      </trkpt>
      <trkpt lat="48.40136" lon="2.69956">
        <ele>71</ele>
        <time>2017-04-09T05:24:00Z</time>
      </trkpt>
      <trkpt lat="48.40135" lon="2.69949">
        <ele>71</ele>
        <time>2017-04-09T05:24:04Z</time>
      </trkpt>
      <trkpt lat="48.40136" lon="2.69941">
        <ele>71</ele>
        <time>2017-04-09T05:24:08Z</time>
      </trkpt>
      <trkpt lat="48.40134" lon="2.69934">
        <ele>71</ele>
        <time>2017-04-09T05:24:13Z</time>
      </trkpt>
      <trkpt lat="48.40131" lon="2.69926">
        <ele>71</ele>
        <time>2017-04-09T05:24:18Z</time>
      </trkpt>
      <trkpt lat="48.40108" lon="2.69908">
        <ele>71</ele>
        <time>2017-04-09T05:24:33Z</time>
      </trkpt>
      <trkpt lat="48.40103" lon="2.69902">
        <ele>71</ele>
        <time>2017-04-09T05:24:36Z</time>
      </trkpt>
      <trkpt lat="48.40094" lon="2.6989">
        <ele>71</ele>
        <time>2017-04-09T05:24:43Z</time>
      </trkpt>
      <trkpt lat="48.40081" lon="2.6988">
        <ele>70</ele>
        <time>2017-04-09T05:24:52Z</time>
      </trkpt>
      <trkpt lat="48.40052" lon="2.69851">
        <ele>70</ele>
        <time>2017-04-09T05:25:14Z</time>
      </trkpt>
      <trkpt lat="48.40048" lon="2.69848">
        <ele>70</ele>
        <time>2017-04-09T05:25:17Z</time>
      </trkpt>
      <trkpt lat="48.40044" lon="2.69843">
        <ele>70</ele>
        <time>2017-04-09T05:25:20Z</time>
      </trkpt>
      <trkpt lat="48.40003" lon="2.69806">
        <ele>70</ele>
        <time>2017-04-09T05:25:53Z</time>
      </trkpt>
      <trkpt lat="48.39966" lon="2.69768">
        <ele>70</ele>
        <time>2017-04-09T05:26:24Z</time>
      </trkpt>
      <trkpt lat="48.39948" lon="2.69748">
        <ele>70</ele>
        <time>2017-04-09T05:26:38Z</time>
      </trkpt>
      <trkpt lat="48.39938" lon="2.69741">
        <ele>70</ele>
        <time>2017-04-09T05:26:45Z</time>
      </trkpt>
      <trkpt lat="48.39933" lon="2.6974">
        <ele>70</ele>
        <time>2017-04-09T05:26:48Z</time>
      </trkpt>
      <trkpt lat="48.39919" lon="2.69745">
        <ele>70</ele>
        <time>2017-04-09T05:26:56Z</time>
      </trkpt>
      <trkpt lat="48.39904" lon="2.69755">
        <ele>70</ele>
        <time>2017-04-09T05:27:05Z</time>
      </trkpt>
      <trkpt lat="48.399" lon="2.69761">
        <ele>70</ele>
        <time>2017-04-09T05:27:09Z</time>
      </trkpt>
      <trkpt lat="48.39896" lon="2.69776">
        <ele>69</ele>
        <time>2017-04-09T05:27:15Z</time>
      </trkpt>
      <trkpt lat="48.39895" lon="2.6979">
        <ele>69</ele>
        <time>2017-04-09T05:27:21Z</time>
      </trkpt>
      <trkpt lat="48.39896" lon="2.69814">
        <ele>69</ele>
        <time>2017-04-09T05:27:30Z</time>
      </trkpt>
      <trkpt lat="48.39895" lon="2.69824">
        <ele>69</ele>
        <time>2017-04-09T05:27:34Z</time>
      </trkpt>
      <trkpt lat="48.39887" lon="2.69837">
        <ele>69</ele>
        <time>2017-04-09T05:27:41Z</time>
      </trkpt>
      <trkpt lat="48.39893" lon="2.69921">
        <ele>69</ele>
        <time>2017-04-09T05:28:13Z</time>
      </trkpt>
      <trkpt lat="48.39896" lon="2.69943">
        <ele>69</ele>
        <time>2017-04-09T05:28:21Z</time>
      </trkpt>
      <trkpt lat="48.39898" lon="2.69957">
        <ele>69</ele>
        <time>2017-04-09T05:28:27Z</time>
      </trkpt>
      <trkpt lat="48.39907" lon="2.70026">
        <ele>70</ele>
        <time>2017-04-09T05:28:57Z</time>
      </trkpt>
      <trkpt lat="48.39912" lon="2.70058">
        <ele>71</ele>
        <time>2017-04-09T05:29:10Z</time>
      </trkpt>
      <trkpt lat="48.3992" lon="2.70121">
        <ele>72</ele>
        <time>2017-04-09T05:29:36Z</time>
      </trkpt>
      <trkpt lat="48.39916" lon="2.70143">
        <ele>72</ele>
        <time>2017-04-09T05:29:46Z</time>
      </trkpt>
      <trkpt lat="48.39912" lon="2.70149">
        <ele>73</ele>
        <time>2017-04-09T05:29:50Z</time>
      </trkpt>
      <trkpt lat="48.39907" lon="2.70152">
        <ele>72</ele>
        <time>2017-04-09T05:29:53Z</time>
      </trkpt>
      <trkpt lat="48.39905" lon="2.7016">
        <ele>72</ele>
        <time>2017-04-09T05:29:57Z</time>
      </trkpt>
      <trkpt lat="48.39902" lon="2.70166">
        <ele>72</ele>
        <time>2017-04-09T05:30:00Z</time>
      </trkpt>
      <trkpt lat="48.39893" lon="2.70172">
        <ele>72</ele>
        <time>2017-04-09T05:30:06Z</time>
      </trkpt>
      <trkpt lat="48.39888" lon="2.70174">
        <ele>72</ele>
        <time>2017-04-09T05:30:09Z</time>
      </trkpt>
      <trkpt lat="48.39873" lon="2.70176">
        <ele>72</ele>
        <time>2017-04-09T05:30:18Z</time>
      </trkpt>
      <trkpt lat="48.39853" lon="2.7018">
        <ele>72</ele>
        <time>2017-04-09T05:30:29Z</time>
      </trkpt>
      <trkpt lat="48.39849" lon="2.70184">
        <ele>72</ele>
        <time>2017-04-09T05:30:32Z</time>
      </trkpt>
      <trkpt lat="48.39846" lon="2.70191">
        <ele>72</ele>
        <time>2017-04-09T05:30:35Z</time>
      </trkpt>
      <trkpt lat="48.39846" lon="2.70206">
        <ele>72</ele>
        <time>2017-04-09T05:30:41Z</time>
      </trkpt>
      <trkpt lat="48.39841" lon="2.70258">
        <ele>72</ele>
        <time>2017-04-09T05:31:03Z</time>
      </trkpt>
      <trkpt lat="48.39841" lon="2.7028">
        <ele>73</ele>
        <time>2017-04-09T05:31:12Z</time>
      </trkpt>
      <trkpt lat="48.39833" lon="2.70351">
        <ele>72</ele>
        <time>2017-04-09T05:31:43Z</time>
      </trkpt>
      <trkpt lat="48.39834" lon="2.70358">
        <ele>72</ele>
        <time>2017-04-09T05:31:46Z</time>
      </trkpt>
      <trkpt lat="48.3984" lon="2.70378">
        <ele>71</ele>
        <time>2017-04-09T05:31:55Z</time>
      </trkpt>
      <trkpt lat="48.39848" lon="2.70398">
        <ele>71</ele>
        <time>2017-04-09T05:32:05Z</time>
      </trkpt>
      <trkpt lat="48.39853" lon="2.7042">
        <ele>70</ele>
        <time>2017-04-09T05:32:14Z</time>
      </trkpt>
      <trkpt lat="48.39855" lon="2.70436">
        <ele>70</ele>
        <time>2017-04-09T05:32:20Z</time>
      </trkpt>
      <trkpt lat="48.39877" lon="2.70508">
        <ele>69</ele>
        <time>2017-04-09T05:32:53Z</time>
      </trkpt>
      <trkpt lat="48.39877" lon="2.70515">
        <ele>70</ele>
        <time>2017-04-09T05:32:56Z</time>
      </trkpt>
      <trkpt lat="48.39881" lon="2.70522">
        <ele>70</ele>
        <time>2017-04-09T05:33:00Z</time>
      </trkpt>
      <trkpt lat="48.39886" lon="2.70526">
        <ele>69</ele>
        <time>2017-04-09T05:33:03Z</time>
      </trkpt>
      <trkpt lat="48.39891" lon="2.70539">
        <ele>69</ele>
        <time>2017-04-09T05:33:09Z</time>
      </trkpt>
      <trkpt lat="48.39894" lon="2.70552">
        <ele>69</ele>
        <time>2017-04-09T05:33:15Z</time>
      </trkpt>
      <trkpt lat="48.39897" lon="2.70558">
        <ele>69</ele>
        <time>2017-04-09T05:33:18Z</time>
      </trkpt>
      <trkpt lat="48.39903" lon="2.70582">
        <ele>69</ele>
        <time>2017-04-09T05:33:29Z</time>
      </trkpt>
      <trkpt lat="48.39909" lon="2.70594">
        <ele>69</ele>
        <time>2017-04-09T05:33:37Z</time>
      </trkpt>
      <trkpt lat="48.39914" lon="2.70592">
        <ele>68</ele>
        <time>2017-04-09T05:36:18Z</time>
      </trkpt>
      <trkpt lat="48.39922" lon="2.70598">
        <ele>70</ele>
        <time>2017-04-09T05:37:22Z</time>
      </trkpt>
      <trkpt lat="48.39932" lon="2.70598">
        <ele>70</ele>
        <time>2017-04-09T05:37:29Z</time>
      </trkpt>
      <trkpt lat="48.39957" lon="2.70605">
        <ele>69</ele>
        <time>2017-04-09T05:37:45Z</time>
      </trkpt>
      <trkpt lat="48.39972" lon="2.70605">
        <ele>69</ele>
        <time>2017-04-09T05:38:02Z</time>
      </trkpt>
      <trkpt lat="48.39982" lon="2.70607">
        <ele>69</ele>
        <time>2017-04-09T05:38:12Z</time>
      </trkpt>
      <trkpt lat="48.39986" lon="2.70611">
        <ele>69</ele>
        <time>2017-04-09T05:38:18Z</time>
      </trkpt>
      <trkpt lat="48.39989" lon="2.70616">
        <ele>69</ele>
        <time>2017-04-09T05:38:22Z</time>
      </trkpt>
      <trkpt lat="48.40009" lon="2.70669">
        <ele>70</ele>
        <time>2017-04-09T05:38:55Z</time>
      </trkpt>
      <trkpt lat="48.40015" lon="2.70685">
        <ele>70</ele>
        <time>2017-04-09T05:39:03Z</time>
      </trkpt>
      <trkpt lat="48.40018" lon="2.7069">
        <ele>70</ele>
        <time>2017-04-09T05:39:06Z</time>
      </trkpt>
      <trkpt lat="48.40037" lon="2.70745">
        <ele>69</ele>
        <time>2017-04-09T05:39:33Z</time>
      </trkpt>
      <trkpt lat="48.40063" lon="2.70755">
        <ele>69</ele>
        <time>2017-04-09T05:39:50Z</time>
      </trkpt>
      <trkpt lat="48.40068" lon="2.70759">
        <ele>69</ele>
        <time>2017-04-09T05:39:54Z</time>
      </trkpt>
      <trkpt lat="48.40073" lon="2.70761">
        <ele>69</ele>
        <time>2017-04-09T05:39:57Z</time>
      </trkpt>
      <trkpt lat="48.40079" lon="2.70761">
        <ele>69</ele>
        <time>2017-04-09T05:40:01Z</time>
      </trkpt>
      <trkpt lat="48.40096" lon="2.70747">
        <ele>68</ele>
        <time>2017-04-09T05:40:13Z</time>
      </trkpt>
      <trkpt lat="48.40105" lon="2.70737">
        <ele>68</ele>
        <time>2017-04-09T05:40:26Z</time>
      </trkpt>
      <trkpt lat="48.4013" lon="2.70719">
        <ele>67</ele>
        <time>2017-04-09T05:40:41Z</time>
      </trkpt>
      <trkpt lat="48.40148" lon="2.70699">
        <ele>66</ele>
        <time>2017-04-09T05:40:53Z</time>
      </trkpt>
      <trkpt lat="48.40157" lon="2.70691">
        <ele>66</ele>
        <time>2017-04-09T05:41:00Z</time>
      </trkpt>
      <trkpt lat="48.40166" lon="2.70681">
        <ele>65</ele>
        <time>2017-04-09T05:41:07Z</time>
      </trkpt>
      <trkpt lat="48.4019" lon="2.70664">
        <ele>64</ele>
        <time>2017-04-09T05:41:22Z</time>
      </trkpt>
      <trkpt lat="48.40228" lon="2.70622">
        <ele>64</ele>
        <time>2017-04-09T05:41:48Z</time>
      </trkpt>
      <trkpt lat="48.40274" lon="2.70596">
        <ele>64</ele>
        <time>2017-04-09T05:42:19Z</time>
      </trkpt>
      <trkpt lat="48.40279" lon="2.70593">
        <ele>64</ele>
        <time>2017-04-09T05:42:22Z</time>
      </trkpt>
      <trkpt lat="48.40286" lon="2.70581">
        <ele>65</ele>
        <time>2017-04-09T05:42:31Z</time>
      </trkpt>
      <trkpt lat="48.4029" lon="2.70578">
        <ele>65</ele>
        <time>2017-04-09T05:42:34Z</time>
      </trkpt>
      <trkpt lat="48.40298" lon="2.70569">
        <ele>65</ele>
        <time>2017-04-09T05:42:41Z</time>
      </trkpt>
      <trkpt lat="48.40308" lon="2.70562">
        <ele>66</ele>
        <time>2017-04-09T05:42:48Z</time>
      </trkpt>
      <trkpt lat="48.40316" lon="2.70552">
        <ele>67</ele>
        <time>2017-04-09T05:42:55Z</time>
      </trkpt>
      <trkpt lat="48.40326" lon="2.70547">
        <ele>67</ele>
        <time>2017-04-09T05:43:01Z</time>
      </trkpt>
      <trkpt lat="48.40331" lon="2.70542">
        <ele>68</ele>
        <time>2017-04-09T05:43:04Z</time>
      </trkpt>
      <trkpt lat="48.40335" lon="2.70539">
        <ele>68</ele>
        <time>2017-04-09T05:43:07Z</time>
      </trkpt>
      <trkpt lat="48.40341" lon="2.70538">
        <ele>68</ele>
        <time>2017-04-09T05:43:11Z</time>
      </trkpt>
      <trkpt lat="48.40346" lon="2.70541">
        <ele>68</ele>
        <time>2017-04-09T05:43:14Z</time>
      </trkpt>
      <trkpt lat="48.4035" lon="2.70546">
        <ele>69</ele>
        <time>2017-04-09T05:43:18Z</time>
      </trkpt>
      <trkpt lat="48.40352" lon="2.70552">
        <ele>69</ele>
        <time>2017-04-09T05:43:23Z</time>
      </trkpt>
      <trkpt lat="48.40355" lon="2.70558">
        <ele>68</ele>
        <time>2017-04-09T05:43:29Z</time>
      </trkpt>
      <trkpt lat="48.40367" lon="2.70586">
        <ele>68</ele>
        <time>2017-04-09T05:43:41Z</time>
      </trkpt>
      <trkpt lat="48.4037" lon="2.70592">
        <ele>68</ele>
        <time>2017-04-09T05:43:45Z</time>
      </trkpt>
      <trkpt lat="48.40374" lon="2.70596">
        <ele>68</ele>
        <time>2017-04-09T05:43:49Z</time>
      </trkpt>
      <trkpt lat="48.4039" lon="2.70652">
        <ele>67</ele>
        <time>2017-04-09T05:44:11Z</time>
      </trkpt>
      <trkpt lat="48.40392" lon="2.7066">
        <ele>67</ele>
        <time>2017-04-09T05:44:13Z</time>
      </trkpt>
      <trkpt lat="48.40393" lon="2.70666">
        <ele>67</ele>
        <time>2017-04-09T05:44:15Z</time>
      </trkpt>
      <trkpt lat="48.40402" lon="2.70685">
        <ele>66</ele>
        <time>2017-04-09T05:44:24Z</time>
      </trkpt>
      <trkpt lat="48.40405" lon="2.707">
        <ele>66</ele>
        <time>2017-04-09T05:44:30Z</time>
      </trkpt>
      <trkpt lat="48.40404" lon="2.70706">
        <ele>66</ele>
        <time>2017-04-09T05:44:33Z</time>
      </trkpt>
      <trkpt lat="48.40407" lon="2.7072">
        <ele>66</ele>
        <time>2017-04-09T05:44:39Z</time>
      </trkpt>
      <trkpt lat="48.40411" lon="2.70728">
        <ele>66</ele>
        <time>2017-04-09T05:44:42Z</time>
      </trkpt>
      <trkpt lat="48.40415" lon="2.70734">
        <ele>66</ele>
        <time>2017-04-09T05:44:45Z</time>
      </trkpt>
      <trkpt lat="48.4042" lon="2.70748">
        <ele>65</ele>
        <time>2017-04-09T05:44:52Z</time>
      </trkpt>
      <trkpt lat="48.40423" lon="2.70754">
        <ele>65</ele>
        <time>2017-04-09T05:44:56Z</time>
      </trkpt>
      <trkpt lat="48.40429" lon="2.70769">
        <ele>65</ele>
        <time>2017-04-09T05:45:02Z</time>
      </trkpt>
      <trkpt lat="48.40432" lon="2.70773">
        <ele>65</ele>
        <time>2017-04-09T05:45:05Z</time>
      </trkpt>
      <trkpt lat="48.40435" lon="2.7078">
        <ele>65</ele>
        <time>2017-04-09T05:45:09Z</time>
      </trkpt>
      <trkpt lat="48.40438" lon="2.70796">
        <ele>65</ele>
        <time>2017-04-09T05:45:15Z</time>
      </trkpt>
      <trkpt lat="48.40442" lon="2.70804">
        <ele>65</ele>
        <time>2017-04-09T05:45:18Z</time>
      </trkpt>
      <trkpt lat="48.40443" lon="2.70811">
        <ele>65</ele>
        <time>2017-04-09T05:45:20Z</time>
      </trkpt>
      <trkpt lat="48.40443" lon="2.70818">
        <ele>65</ele>
        <time>2017-04-09T05:45:22Z</time>
      </trkpt>
      <trkpt lat="48.40445" lon="2.70825">
        <ele>64</ele>
        <time>2017-04-09T05:45:25Z</time>
      </trkpt>
      <trkpt lat="48.40451" lon="2.70839">
        <ele>64</ele>
        <time>2017-04-09T05:45:32Z</time>
      </trkpt>
      <trkpt lat="48.40463" lon="2.70882">
        <ele>64</ele>
        <time>2017-04-09T05:45:50Z</time>
      </trkpt>
      <trkpt lat="48.40462" lon="2.70891">
        <ele>64</ele>
        <time>2017-04-09T05:45:53Z</time>
      </trkpt>
      <trkpt lat="48.40464" lon="2.70903">
        <ele>64</ele>
        <time>2017-04-09T05:45:57Z</time>
      </trkpt>
      <trkpt lat="48.40466" lon="2.70911">
        <ele>64</ele>
        <time>2017-04-09T05:46:00Z</time>
      </trkpt>
      <trkpt lat="48.40469" lon="2.70923">
        <ele>64</ele>
        <time>2017-04-09T05:46:05Z</time>
      </trkpt>
      <trkpt lat="48.40481" lon="2.70939">
        <ele>63</ele>
        <time>2017-04-09T05:46:14Z</time>
      </trkpt>
      <trkpt lat="48.40485" lon="2.70954">
        <ele>63</ele>
        <time>2017-04-09T05:46:20Z</time>
      </trkpt>
      <trkpt lat="48.40487" lon="2.70961">
        <ele>63</ele>
        <time>2017-04-09T05:46:23Z</time>
      </trkpt>
      <trkpt lat="48.40491" lon="2.70967">
        <ele>63</ele>
        <time>2017-04-09T05:46:26Z</time>
      </trkpt>
      <trkpt lat="48.40494" lon="2.70972">
        <ele>63</ele>
        <time>2017-04-09T05:46:29Z</time>
      </trkpt>
      <trkpt lat="48.40498" lon="2.70986">
        <ele>63</ele>
        <time>2017-04-09T05:46:35Z</time>
      </trkpt>
      <trkpt lat="48.40505" lon="2.71">
        <ele>63</ele>
        <time>2017-04-09T05:46:42Z</time>
      </trkpt>
      <trkpt lat="48.40509" lon="2.71014">
        <ele>63</ele>
        <time>2017-04-09T05:46:48Z</time>
      </trkpt>
      <trkpt lat="48.40513" lon="2.7102">
        <ele>63</ele>
        <time>2017-04-09T05:46:51Z</time>
      </trkpt>
      <trkpt lat="48.4052" lon="2.71041">
        <ele>63</ele>
        <time>2017-04-09T05:47:02Z</time>
      </trkpt>
      <trkpt lat="48.40526" lon="2.71066">
        <ele>63</ele>
        <time>2017-04-09T05:47:12Z</time>
      </trkpt>
      <trkpt lat="48.40543" lon="2.71122">
        <ele>63</ele>
        <time>2017-04-09T05:47:36Z</time>
      </trkpt>
      <trkpt lat="48.40548" lon="2.71137">
        <ele>64</ele>
        <time>2017-04-09T05:47:43Z</time>
      </trkpt>
      <trkpt lat="48.40551" lon="2.71143">
        <ele>64</ele>
        <time>2017-04-09T05:47:46Z</time>
      </trkpt>
      <trkpt lat="48.40567" lon="2.71181">
        <ele>64</ele>
        <time>2017-04-09T05:48:04Z</time>
      </trkpt>
      <trkpt lat="48.40569" lon="2.71188">
        <ele>64</ele>
        <time>2017-04-09T05:48:07Z</time>
      </trkpt>
      <trkpt lat="48.40569" lon="2.71196">
        <ele>63</ele>
        <time>2017-04-09T05:48:10Z</time>
      </trkpt>
      <trkpt lat="48.40571" lon="2.71203">
        <ele>63</ele>
        <time>2017-04-09T05:48:13Z</time>
      </trkpt>
      <trkpt lat="48.40573" lon="2.71209">
        <ele>63</ele>
        <time>2017-04-09T05:48:16Z</time>
      </trkpt>
      <trkpt lat="48.40582" lon="2.7122">
        <ele>63</ele>
        <time>2017-04-09T05:48:22Z</time>
      </trkpt>
      <trkpt lat="48.40589" lon="2.71242">
        <ele>63</ele>
        <time>2017-04-09T05:48:31Z</time>
      </trkpt>
      <trkpt lat="48.4059" lon="2.71249">
        <ele>63</ele>
        <time>2017-04-09T05:48:34Z</time>
      </trkpt>
      <trkpt lat="48.40592" lon="2.71255">
        <ele>63</ele>
        <time>2017-04-09T05:48:38Z</time>
      </trkpt>
      <trkpt lat="48.40594" lon="2.7127">
        <ele>63</ele>
        <time>2017-04-09T05:48:43Z</time>
      </trkpt>
      <trkpt lat="48.40597" lon="2.71277">
        <ele>63</ele>
        <time>2017-04-09T05:48:46Z</time>
      </trkpt>
      <trkpt lat="48.40599" lon="2.71285">
        <ele>63</ele>
        <time>2017-04-09T05:48:49Z</time>
      </trkpt>
      <trkpt lat="48.40606" lon="2.71299">
        <ele>62</ele>
        <time>2017-04-09T05:48:55Z</time>
      </trkpt>
      <trkpt lat="48.4061" lon="2.71304">
        <ele>62</ele>
        <time>2017-04-09T05:48:58Z</time>
      </trkpt>
      <trkpt lat="48.40628" lon="2.71343">
        <ele>62</ele>
        <time>2017-04-09T05:49:16Z</time>
      </trkpt>
      <trkpt lat="48.40635" lon="2.7137">
        <ele>62</ele>
        <time>2017-04-09T05:49:27Z</time>
      </trkpt>
      <trkpt lat="48.40638" lon="2.71374">
        <ele>62</ele>
        <time>2017-04-09T05:49:30Z</time>
      </trkpt>
      <trkpt lat="48.40643" lon="2.71376">
        <ele>62</ele>
        <time>2017-04-09T05:49:33Z</time>
      </trkpt>
      <trkpt lat="48.40647" lon="2.7138">
        <ele>62</ele>
        <time>2017-04-09T05:49:36Z</time>
      </trkpt>
      <trkpt lat="48.40651" lon="2.71394">
        <ele>61</ele>
        <time>2017-04-09T05:49:42Z</time>
      </trkpt>
      <trkpt lat="48.40654" lon="2.714">
        <ele>61</ele>
        <time>2017-04-09T05:49:46Z</time>
      </trkpt>
      <trkpt lat="48.40663" lon="2.71454">
        <ele>61</ele>
        <time>2017-04-09T05:50:03Z</time>
      </trkpt>
      <trkpt lat="48.40673" lon="2.71482">
        <ele>61</ele>
        <time>2017-04-09T05:50:15Z</time>
      </trkpt>
      <trkpt lat="48.4068" lon="2.71514">
        <ele>61</ele>
        <time>2017-04-09T05:50:29Z</time>
      </trkpt>
      <trkpt lat="48.40682" lon="2.7152">
        <ele>61</ele>
        <time>2017-04-09T05:50:32Z</time>
      </trkpt>
      <trkpt lat="48.40685" lon="2.71527">
        <ele>60</ele>
        <time>2017-04-09T05:50:36Z</time>
      </trkpt>
      <trkpt lat="48.40688" lon="2.71535">
        <ele>61</ele>
        <time>2017-04-09T05:50:39Z</time>
      </trkpt>
      <trkpt lat="48.40693" lon="2.71542">
        <ele>61</ele>
        <time>2017-04-09T05:50:42Z</time>
      </trkpt>
      <trkpt lat="48.40699" lon="2.71556">
        <ele>60</ele>
        <time>2017-04-09T05:50:51Z</time>
      </trkpt>
      <trkpt lat="48.407" lon="2.71578">
        <ele>60</ele>
        <time>2017-04-09T05:50:58Z</time>
      </trkpt>
      <trkpt lat="48.40703" lon="2.71594">
        <ele>60</ele>
        <time>2017-04-09T05:51:04Z</time>
      </trkpt>
      <trkpt lat="48.40707" lon="2.71601">
        <ele>60</ele>
        <time>2017-04-09T05:51:08Z</time>
      </trkpt>
      <trkpt lat="48.4071" lon="2.71615">
        <ele>60</ele>
        <time>2017-04-09T05:51:13Z</time>
      </trkpt>
      <trkpt lat="48.4073" lon="2.71654">
        <ele>60</ele>
        <time>2017-04-09T05:51:31Z</time>
      </trkpt>
      <trkpt lat="48.40745" lon="2.7169">
        <ele>57</ele>
        <time>2017-04-09T05:51:49Z</time>
      </trkpt>
      <trkpt lat="48.40748" lon="2.71706">
        <ele>56</ele>
        <time>2017-04-09T05:51:56Z</time>
      </trkpt>
      <trkpt lat="48.40759" lon="2.71743">
        <ele>56</ele>
        <time>2017-04-09T05:52:11Z</time>
      </trkpt>
      <trkpt lat="48.40762" lon="2.71749">
        <ele>56</ele>
        <time>2017-04-09T05:52:14Z</time>
      </trkpt>
      <trkpt lat="48.40764" lon="2.71757">
        <ele>56</ele>
        <time>2017-04-09T05:52:17Z</time>
      </trkpt>
      <trkpt lat="48.40768" lon="2.71763">
        <ele>56</ele>
        <time>2017-04-09T05:52:21Z</time>
      </trkpt>
      <trkpt lat="48.40784" lon="2.71822">
        <ele>56</ele>
        <time>2017-04-09T05:52:46Z</time>
      </trkpt>
      <trkpt lat="48.40788" lon="2.7185">
        <ele>56</ele>
        <time>2017-04-09T05:52:55Z</time>
      </trkpt>
      <trkpt lat="48.408" lon="2.71883">
        <ele>56</ele>
        <time>2017-04-09T05:53:10Z</time>
      </trkpt>
      <trkpt lat="48.40819" lon="2.71909">
        <ele>56</ele>
        <time>2017-04-09T05:53:27Z</time>
      </trkpt>
      <trkpt lat="48.40822" lon="2.71915">
        <ele>56</ele>
        <time>2017-04-09T05:53:30Z</time>
      </trkpt>
      <trkpt lat="48.40826" lon="2.7192">
        <ele>56</ele>
        <time>2017-04-09T05:53:33Z</time>
      </trkpt>
      <trkpt lat="48.40829" lon="2.71937">
        <ele>56</ele>
        <time>2017-04-09T05:53:39Z</time>
      </trkpt>
      <trkpt lat="48.40832" lon="2.71956">
        <ele>56</ele>
        <time>2017-04-09T05:53:45Z</time>
      </trkpt>
      <trkpt lat="48.40845" lon="2.71977">
        <ele>55</ele>
        <time>2017-04-09T05:53:59Z</time>
      </trkpt>
      <trkpt lat="48.40853" lon="2.71998">
        <ele>55</ele>
        <time>2017-04-09T05:54:08Z</time>
      </trkpt>
      <trkpt lat="48.40854" lon="2.72005">
        <ele>55</ele>
        <time>2017-04-09T05:54:11Z</time>
      </trkpt>
      <trkpt lat="48.40863" lon="2.72014">
        <ele>55</ele>
        <time>2017-04-09T05:54:18Z</time>
      </trkpt>
      <trkpt lat="48.40865" lon="2.72029">
        <ele>55</ele>
        <time>2017-04-09T05:54:25Z</time>
      </trkpt>
      <trkpt lat="48.40879" lon="2.7207">
        <ele>55</ele>
        <time>2017-04-09T05:54:43Z</time>
      </trkpt>
      <trkpt lat="48.40907" lon="2.72141">
        <ele>54</ele>
        <time>2017-04-09T05:55:16Z</time>
      </trkpt>
      <trkpt lat="48.40909" lon="2.72147">
        <ele>54</ele>
        <time>2017-04-09T05:55:19Z</time>
      </trkpt>
      <trkpt lat="48.4091" lon="2.72154">
        <ele>55</ele>
        <time>2017-04-09T05:55:22Z</time>
      </trkpt>
      <trkpt lat="48.40923" lon="2.72186">
        <ele>54</ele>
        <time>2017-04-09T05:55:37Z</time>
      </trkpt>
      <trkpt lat="48.40925" lon="2.72192">
        <ele>54</ele>
        <time>2017-04-09T05:55:40Z</time>
      </trkpt>
      <trkpt lat="48.40926" lon="2.72199">
        <ele>54</ele>
        <time>2017-04-09T05:55:43Z</time>
      </trkpt>
      <trkpt lat="48.40929" lon="2.72205">
        <ele>54</ele>
        <time>2017-04-09T05:55:48Z</time>
      </trkpt>
      <trkpt lat="48.40941" lon="2.72218">
        <ele>54</ele>
        <time>2017-04-09T05:55:58Z</time>
      </trkpt>
      <trkpt lat="48.40954" lon="2.72238">
        <ele>54</ele>
        <time>2017-04-09T05:56:08Z</time>
      </trkpt>
      <trkpt lat="48.40965" lon="2.72254">
        <ele>54</ele>
        <time>2017-04-09T05:56:18Z</time>
      </trkpt>
      <trkpt lat="48.40974" lon="2.72262">
        <ele>54</ele>
        <time>2017-04-09T05:56:24Z</time>
      </trkpt>
      <trkpt lat="48.40983" lon="2.7227">
        <ele>54</ele>
        <time>2017-04-09T05:56:31Z</time>
      </trkpt>
      <trkpt lat="48.41004" lon="2.72276">
        <ele>54</ele>
        <time>2017-04-09T05:56:45Z</time>
      </trkpt>
      <trkpt lat="48.41024" lon="2.72287">
        <ele>55</ele>
        <time>2017-04-09T05:56:58Z</time>
      </trkpt>
      <trkpt lat="48.41033" lon="2.7229">
        <ele>55</ele>
        <time>2017-04-09T05:57:04Z</time>
      </trkpt>
      <trkpt lat="48.41044" lon="2.72297">
        <ele>55</ele>
        <time>2017-04-09T05:57:10Z</time>
      </trkpt>
      <trkpt lat="48.4106" lon="2.72303">
        <ele>55</ele>
        <time>2017-04-09T05:57:19Z</time>
      </trkpt>
      <trkpt lat="48.41071" lon="2.7232">
        <ele>55</ele>
        <time>2017-04-09T05:57:28Z</time>
      </trkpt>
      <trkpt lat="48.41097" lon="2.72368">
        <ele>55</ele>
        <time>2017-04-09T05:57:53Z</time>
      </trkpt>
      <trkpt lat="48.41134" lon="2.7243">
        <ele>56</ele>
        <time>2017-04-09T05:58:26Z</time>
      </trkpt>
      <trkpt lat="48.41149" lon="2.72451">
        <ele>56</ele>
        <time>2017-04-09T05:58:38Z</time>
      </trkpt>
      <trkpt lat="48.41173" lon="2.72481">
        <ele>56</ele>
        <time>2017-04-09T05:58:56Z</time>
      </trkpt>
      <trkpt lat="48.41186" lon="2.72499">
        <ele>56</ele>
        <time>2017-04-09T05:59:06Z</time>
      </trkpt>
      <trkpt lat="48.41205" lon="2.72525">
        <ele>57</ele>
        <time>2017-04-09T05:59:21Z</time>
      </trkpt>
      <trkpt lat="48.41209" lon="2.72528">
        <ele>56</ele>
        <time>2017-04-09T05:59:24Z</time>
      </trkpt>
      <trkpt lat="48.41215" lon="2.72535">
        <ele>56</ele>
        <time>2017-04-09T05:59:29Z</time>
      </trkpt>
      <trkpt lat="48.41226" lon="2.72551">
        <ele>56</ele>
        <time>2017-04-09T05:59:38Z</time>
      </trkpt>
      <trkpt lat="48.41228" lon="2.72565">
        <ele>57</ele>
        <time>2017-04-09T05:59:46Z</time>
      </trkpt>
      <trkpt lat="48.41232" lon="2.7257">
        <ele>57</ele>
        <time>2017-04-09T05:59:49Z</time>
      </trkpt>
      <trkpt lat="48.41234" lon="2.72585">
        <ele>57</ele>
        <time>2017-04-09T05:59:55Z</time>
      </trkpt>
      <trkpt lat="48.41238" lon="2.72588">
        <ele>57</ele>
        <time>2017-04-09T05:59:58Z</time>
      </trkpt>
      <trkpt lat="48.41243" lon="2.72586">
        <ele>57</ele>
        <time>2017-04-09T06:00:02Z</time>
      </trkpt>
      <trkpt lat="48.41246" lon="2.72591">
        <ele>57</ele>
        <time>2017-04-09T06:00:06Z</time>
      </trkpt>
      <trkpt lat="48.41256" lon="2.72597">
        <ele>57</ele>
        <time>2017-04-09T06:00:12Z</time>
      </trkpt>
      <trkpt lat="48.41262" lon="2.72597">
        <ele>57</ele>
        <time>2017-04-09T06:00:15Z</time>
      </trkpt>
      <trkpt lat="48.41269" lon="2.72599">
        <ele>57</ele>
        <time>2017-04-09T06:00:19Z</time>
      </trkpt>
      <trkpt lat="48.41273" lon="2.72604">
        <ele>57</ele>
        <time>2017-04-09T06:00:21Z</time>
      </trkpt>
      <trkpt lat="48.41283" lon="2.72621">
        <ele>57</ele>
        <time>2017-04-09T06:00:29Z</time>
      </trkpt>
      <trkpt lat="48.41287" lon="2.72625">
        <ele>57</ele>
        <time>2017-04-09T06:00:32Z</time>
      </trkpt>
      <trkpt lat="48.41294" lon="2.7264">
        <ele>56</ele>
        <time>2017-04-09T06:00:42Z</time>
      </trkpt>
      <trkpt lat="48.41297" lon="2.72644">
        <ele>56</ele>
        <time>2017-04-09T06:00:47Z</time>
      </trkpt>
      <trkpt lat="48.41299" lon="2.7265">
        <ele>56</ele>
        <time>2017-04-09T06:00:53Z</time>
      </trkpt>
      <trkpt lat="48.41295" lon="2.72654">
        <ele>56</ele>
        <time>2017-04-09T06:01:02Z</time>
      </trkpt>
      <trkpt lat="48.41297" lon="2.72662">
        <ele>56</ele>
        <time>2017-04-09T06:01:24Z</time>
      </trkpt>
      <trkpt lat="48.413" lon="2.72668">
        <ele>56</ele>
        <time>2017-04-09T06:01:27Z</time>
      </trkpt>
      <trkpt lat="48.41302" lon="2.72676">
        <ele>56</ele>
        <time>2017-04-09T06:01:31Z</time>
      </trkpt>
      <trkpt lat="48.41306" lon="2.72682">
        <ele>56</ele>
        <time>2017-04-09T06:01:35Z</time>
      </trkpt>
      <trkpt lat="48.41309" lon="2.72694">
        <ele>56</ele>
        <time>2017-04-09T06:01:41Z</time>
      </trkpt>
      <trkpt lat="48.41318" lon="2.72701">
        <ele>56</ele>
        <time>2017-04-09T06:01:46Z</time>
      </trkpt>
      <trkpt lat="48.41326" lon="2.72713">
        <ele>56</ele>
        <time>2017-04-09T06:01:52Z</time>
      </trkpt>
      <trkpt lat="48.41331" lon="2.72727">
        <ele>56</ele>
        <time>2017-04-09T06:01:59Z</time>
      </trkpt>
      <trkpt lat="48.4133" lon="2.72735">
        <ele>56</ele>
        <time>2017-04-09T06:02:03Z</time>
      </trkpt>
      <trkpt lat="48.41326" lon="2.72739">
        <ele>56</ele>
        <time>2017-04-09T06:02:06Z</time>
      </trkpt>
      <trkpt lat="48.41287" lon="2.72799">
        <ele>55</ele>
        <time>2017-04-09T06:02:37Z</time>
      </trkpt>
      <trkpt lat="48.41249" lon="2.72856">
        <ele>55</ele>
        <time>2017-04-09T06:03:08Z</time>
      </trkpt>
      <trkpt lat="48.41211" lon="2.72914">
        <ele>55</ele>
        <time>2017-04-09T06:03:40Z</time>
      </trkpt>
      <trkpt lat="48.41187" lon="2.72951">
        <ele>56</ele>
        <time>2017-04-09T06:04:01Z</time>
      </trkpt>
      <trkpt lat="48.41184" lon="2.72958">
        <ele>56</ele>
        <time>2017-04-09T06:04:04Z</time>
      </trkpt>
      <trkpt lat="48.41183" lon="2.72965">
        <ele>56</ele>
        <time>2017-04-09T06:04:07Z</time>
      </trkpt>
      <trkpt lat="48.41186" lon="2.72973">
        <ele>56</ele>
        <time>2017-04-09T06:04:10Z</time>
      </trkpt>
      <trkpt lat="48.41215" lon="2.73012">
        <ele>56</ele>
        <time>2017-04-09T06:04:31Z</time>
      </trkpt>
      <trkpt lat="48.4122" lon="2.73027">
        <ele>56</ele>
        <time>2017-04-09T06:04:37Z</time>
      </trkpt>
      <trkpt lat="48.41249" lon="2.73074">
        <ele>55</ele>
        <time>2017-04-09T06:05:01Z</time>
      </trkpt>
      <trkpt lat="48.41259" lon="2.73078">
        <ele>55</ele>
        <time>2017-04-09T06:05:08Z</time>
      </trkpt>
      <trkpt lat="48.41262" lon="2.73083">
        <ele>55</ele>
        <time>2017-04-09T06:05:11Z</time>
      </trkpt>
      <trkpt lat="48.41268" lon="2.73097">
        <ele>55</ele>
        <time>2017-04-09T06:05:17Z</time>
      </trkpt>
      <trkpt lat="48.41275" lon="2.73107">
        <ele>55</ele>
        <time>2017-04-09T06:05:23Z</time>
      </trkpt>
      <trkpt lat="48.41279" lon="2.73111">
        <ele>55</ele>
        <time>2017-04-09T06:05:26Z</time>
      </trkpt>
      <trkpt lat="48.41283" lon="2.73116">
        <ele>55</ele>
        <time>2017-04-09T06:05:29Z</time>
      </trkpt>
      <trkpt lat="48.41288" lon="2.7312">
        <ele>55</ele>
        <time>2017-04-09T06:05:34Z</time>
      </trkpt>
      <trkpt lat="48.41294" lon="2.73134">
        <ele>54</ele>
        <time>2017-04-09T06:05:40Z</time>
      </trkpt>
      <trkpt lat="48.41295" lon="2.73143">
        <ele>54</ele>
        <time>2017-04-09T06:05:43Z</time>
      </trkpt>
      <trkpt lat="48.41301" lon="2.73156">
        <ele>54</ele>
        <time>2017-04-09T06:05:49Z</time>
      </trkpt>
      <trkpt lat="48.41314" lon="2.73182">
        <ele>54</ele>
        <time>2017-04-09T06:06:01Z</time>
      </trkpt>
      <trkpt lat="48.41324" lon="2.73202">
        <ele>54</ele>
        <time>2017-04-09T06:06:10Z</time>
      </trkpt>
      <trkpt lat="48.41334" lon="2.73208">
        <ele>54</ele>
        <time>2017-04-09T06:06:16Z</time>
      </trkpt>
      <trkpt lat="48.41363" lon="2.73248">
        <ele>54</ele>
        <time>2017-04-09T06:06:40Z</time>
      </trkpt>
      <trkpt lat="48.41377" lon="2.7328">
        <ele>54</ele>
        <time>2017-04-09T06:06:55Z</time>
      </trkpt>
      <trkpt lat="48.41391" lon="2.73292">
        <ele>54</ele>
        <time>2017-04-09T06:07:04Z</time>
      </trkpt>
      <trkpt lat="48.414" lon="2.73299">
        <ele>54</ele>
        <time>2017-04-09T06:07:10Z</time>
      </trkpt>
      <trkpt lat="48.41406" lon="2.73312">
        <ele>54</ele>
        <time>2017-04-09T06:07:17Z</time>
      </trkpt>
      <trkpt lat="48.4141" lon="2.73318">
        <ele>54</ele>
        <time>2017-04-09T06:07:21Z</time>
      </trkpt>
      <trkpt lat="48.4142" lon="2.73338">
        <ele>54</ele>
        <time>2017-04-09T06:07:32Z</time>
      </trkpt>
      <trkpt lat="48.41425" lon="2.73367">
        <ele>54</ele>
        <time>2017-04-09T06:07:44Z</time>
      </trkpt>
      <trkpt lat="48.41431" lon="2.73379">
        <ele>54</ele>
        <time>2017-04-09T06:07:50Z</time>
      </trkpt>
      <trkpt lat="48.41433" lon="2.73387">
        <ele>54</ele>
        <time>2017-04-09T06:07:53Z</time>
      </trkpt>
      <trkpt lat="48.41432" lon="2.73398">
        <ele>54</ele>
        <time>2017-04-09T06:07:57Z</time>
      </trkpt>
      <trkpt lat="48.41433" lon="2.7341">
        <ele>54</ele>
        <time>2017-04-09T06:08:02Z</time>
      </trkpt>
      <trkpt lat="48.41444" lon="2.73427">
        <ele>54</ele>
        <time>2017-04-09T06:08:11Z</time>
      </trkpt>
      <trkpt lat="48.41452" lon="2.73446">
        <ele>54</ele>
        <time>2017-04-09T06:08:20Z</time>
      </trkpt>
      <trkpt lat="48.41455" lon="2.73451">
        <ele>53</ele>
        <time>2017-04-09T06:08:23Z</time>
      </trkpt>
      <trkpt lat="48.41464" lon="2.73459">
        <ele>53</ele>
        <time>2017-04-09T06:08:29Z</time>
      </trkpt>
      <trkpt lat="48.4147" lon="2.7347">
        <ele>53</ele>
        <time>2017-04-09T06:08:35Z</time>
      </trkpt>
      <trkpt lat="48.41479" lon="2.73478">
        <ele>53</ele>
        <time>2017-04-09T06:08:41Z</time>
      </trkpt>
      <trkpt lat="48.41483" lon="2.73484">
        <ele>53</ele>
        <time>2017-04-09T06:08:44Z</time>
      </trkpt>
      <trkpt lat="48.41496" lon="2.73498">
        <ele>53</ele>
        <time>2017-04-09T06:08:53Z</time>
      </trkpt>
      <trkpt lat="48.41507" lon="2.73513">
        <ele>53</ele>
        <time>2017-04-09T06:09:02Z</time>
      </trkpt>
      <trkpt lat="48.41511" lon="2.73518">
        <ele>53</ele>
        <time>2017-04-09T06:09:05Z</time>
      </trkpt>
      <trkpt lat="48.41513" lon="2.73526">
        <ele>53</ele>
        <time>2017-04-09T06:09:08Z</time>
      </trkpt>
      <trkpt lat="48.41516" lon="2.73531">
        <ele>53</ele>
        <time>2017-04-09T06:09:11Z</time>
      </trkpt>
      <trkpt lat="48.41521" lon="2.73534">
        <ele>53</ele>
        <time>2017-04-09T06:09:15Z</time>
      </trkpt>
      <trkpt lat="48.41529" lon="2.73544">
        <ele>53</ele>
        <time>2017-04-09T06:09:21Z</time>
      </trkpt>
      <trkpt lat="48.41532" lon="2.73562">
        <ele>53</ele>
        <time>2017-04-09T06:09:27Z</time>
      </trkpt>
      <trkpt lat="48.41536" lon="2.73568">
        <ele>52</ele>
        <time>2017-04-09T06:09:30Z</time>
      </trkpt>
      <trkpt lat="48.41541" lon="2.73572">
        <ele>52</ele>
        <time>2017-04-09T06:09:33Z</time>
      </trkpt>
      <trkpt lat="48.41547" lon="2.73574">
        <ele>52</ele>
        <time>2017-04-09T06:09:36Z</time>
      </trkpt>
      <trkpt lat="48.41576" lon="2.73578">
        <ele>52</ele>
        <time>2017-04-09T06:09:51Z</time>
      </trkpt>
      <trkpt lat="48.41581" lon="2.7358">
        <ele>52</ele>
        <time>2017-04-09T06:09:54Z</time>
      </trkpt>
      <trkpt lat="48.4159" lon="2.73592">
        <ele>52</ele>
        <time>2017-04-09T06:10:01Z</time>
      </trkpt>
      <trkpt lat="48.41605" lon="2.73603">
        <ele>52</ele>
        <time>2017-04-09T06:10:10Z</time>
      </trkpt>
      <trkpt lat="48.41617" lon="2.73605">
        <ele>52</ele>
        <time>2017-04-09T06:10:16Z</time>
      </trkpt>
      <trkpt lat="48.41627" lon="2.7361">
        <ele>52</ele>
        <time>2017-04-09T06:10:22Z</time>
      </trkpt>
      <trkpt lat="48.41638" lon="2.73611">
        <ele>52</ele>
        <time>2017-04-09T06:10:29Z</time>
      </trkpt>
      <trkpt lat="48.41644" lon="2.73613">
        <ele>52</ele>
        <time>2017-04-09T06:10:33Z</time>
      </trkpt>
      <trkpt lat="48.41653" lon="2.73614">
        <ele>52</ele>
        <time>2017-04-09T06:10:39Z</time>
      </trkpt>
      <trkpt lat="48.41668" lon="2.73619">
        <ele>52</ele>
        <time>2017-04-09T06:10:49Z</time>
      </trkpt>
      <trkpt lat="48.41673" lon="2.73622">
        <ele>52</ele>
        <time>2017-04-09T06:10:52Z</time>
      </trkpt>
      <trkpt lat="48.41678" lon="2.73624">
        <ele>53</ele>
        <time>2017-04-09T06:10:55Z</time>
      </trkpt>
      <trkpt lat="48.41688" lon="2.73631">
        <ele>53</ele>
        <time>2017-04-09T06:11:01Z</time>
      </trkpt>
      <trkpt lat="48.41693" lon="2.73632">
        <ele>52</ele>
        <time>2017-04-09T06:11:04Z</time>
      </trkpt>
      <trkpt lat="48.41699" lon="2.73632">
        <ele>53</ele>
        <time>2017-04-09T06:11:07Z</time>
      </trkpt>
      <trkpt lat="48.41721" lon="2.73639">
        <ele>53</ele>
        <time>2017-04-09T06:11:21Z</time>
      </trkpt>
      <trkpt lat="48.41728" lon="2.7364">
        <ele>53</ele>
        <time>2017-04-09T06:11:24Z</time>
      </trkpt>
      <trkpt lat="48.41734" lon="2.73641">
        <ele>53</ele>
        <time>2017-04-09T06:11:27Z</time>
      </trkpt>
      <trkpt lat="48.41739" lon="2.73646">
        <ele>53</ele>
        <time>2017-04-09T06:11:31Z</time>
      </trkpt>
      <trkpt lat="48.41744" lon="2.73647">
        <ele>53</ele>
        <time>2017-04-09T06:11:34Z</time>
      </trkpt>
      <trkpt lat="48.41749" lon="2.73647">
        <ele>53</ele>
        <time>2017-04-09T06:11:37Z</time>
      </trkpt>
      <trkpt lat="48.41758" lon="2.73654">
        <ele>53</ele>
        <time>2017-04-09T06:11:43Z</time>
      </trkpt>
      <trkpt lat="48.41762" lon="2.73654">
        <ele>53</ele>
        <time>2017-04-09T06:11:46Z</time>
      </trkpt>
      <trkpt lat="48.41772" lon="2.73663">
        <ele>53</ele>
        <time>2017-04-09T06:11:52Z</time>
      </trkpt>
      <trkpt lat="48.41776" lon="2.73676">
        <ele>53</ele>
        <time>2017-04-09T06:11:58Z</time>
      </trkpt>
      <trkpt lat="48.41781" lon="2.7368">
        <ele>53</ele>
        <time>2017-04-09T06:12:02Z</time>
      </trkpt>
      <trkpt lat="48.41783" lon="2.73686">
        <ele>54</ele>
        <time>2017-04-09T06:12:05Z</time>
      </trkpt>
      <trkpt lat="48.41791" lon="2.73695">
        <ele>54</ele>
        <time>2017-04-09T06:12:11Z</time>
      </trkpt>
      <trkpt lat="48.41801" lon="2.73696">
        <ele>54</ele>
        <time>2017-04-09T06:12:17Z</time>
      </trkpt>
      <trkpt lat="48.41816" lon="2.73703">
        <ele>53</ele>
        <time>2017-04-09T06:12:28Z</time>
      </trkpt>
      <trkpt lat="48.41831" lon="2.73703">
        <ele>53</ele>
        <time>2017-04-09T06:12:38Z</time>
      </trkpt>
      <trkpt lat="48.41834" lon="2.73708">
        <ele>53</ele>
        <time>2017-04-09T06:12:42Z</time>
      </trkpt>
      <trkpt lat="48.41839" lon="2.73712">
        <ele>53</ele>
        <time>2017-04-09T06:12:46Z</time>
      </trkpt>
      <trkpt lat="48.41854" lon="2.73701">
        <ele>53</ele>
        <time>2017-04-09T06:12:55Z</time>
      </trkpt>
      <trkpt lat="48.41859" lon="2.73699">
        <ele>53</ele>
        <time>2017-04-09T06:12:58Z</time>
      </trkpt>
      <trkpt lat="48.41863" lon="2.73704">
        <ele>53</ele>
        <time>2017-04-09T06:13:02Z</time>
      </trkpt>
      <trkpt lat="48.41858" lon="2.73718">
        <ele>54</ele>
        <time>2017-04-09T06:13:09Z</time>
      </trkpt>
      <trkpt lat="48.4186" lon="2.73726">
        <ele>54</ele>
        <time>2017-04-09T06:13:12Z</time>
      </trkpt>
      <trkpt lat="48.41863" lon="2.73732">
        <ele>54</ele>
        <time>2017-04-09T06:13:15Z</time>
      </trkpt>
      <trkpt lat="48.41867" lon="2.73736">
        <ele>54</ele>
        <time>2017-04-09T06:13:18Z</time>
      </trkpt>
      <trkpt lat="48.41875" lon="2.73744">
        <ele>54</ele>
        <time>2017-04-09T06:13:25Z</time>
      </trkpt>
      <trkpt lat="48.41884" lon="2.73745">
        <ele>54</ele>
        <time>2017-04-09T06:13:30Z</time>
      </trkpt>
      <trkpt lat="48.41892" lon="2.73738">
        <ele>54</ele>
        <time>2017-04-09T06:13:36Z</time>
      </trkpt>
      <trkpt lat="48.41898" lon="2.73739">
        <ele>53</ele>
        <time>2017-04-09T06:13:40Z</time>
      </trkpt>
      <trkpt lat="48.41903" lon="2.73742">
        <ele>53</ele>
        <time>2017-04-09T06:13:43Z</time>
      </trkpt>
      <trkpt lat="48.41907" lon="2.73747">
        <ele>53</ele>
        <time>2017-04-09T06:13:47Z</time>
      </trkpt>
      <trkpt lat="48.41911" lon="2.7375">
        <ele>53</ele>
        <time>2017-04-09T06:13:50Z</time>
      </trkpt>
      <trkpt lat="48.41925" lon="2.73754">
        <ele>53</ele>
        <time>2017-04-09T06:13:58Z</time>
      </trkpt>
      <trkpt lat="48.41939" lon="2.73766">
        <ele>54</ele>
        <time>2017-04-09T06:14:07Z</time>
      </trkpt>
      <trkpt lat="48.41942" lon="2.73773">
        <ele>54</ele>
        <time>2017-04-09T06:14:10Z</time>
      </trkpt>
      <trkpt lat="48.41946" lon="2.73778">
        <ele>54</ele>
        <time>2017-04-09T06:14:14Z</time>
      </trkpt>
      <trkpt lat="48.4196" lon="2.73782">
        <ele>53</ele>
        <time>2017-04-09T06:14:22Z</time>
      </trkpt>
      <trkpt lat="48.41963" lon="2.73789">
        <ele>53</ele>
        <time>2017-04-09T06:14:25Z</time>
      </trkpt>
      <trkpt lat="48.4197" lon="2.73799">
        <ele>53</ele>
        <time>2017-04-09T06:14:31Z</time>
      </trkpt>
      <trkpt lat="48.41976" lon="2.73803">
        <ele>53</ele>
        <time>2017-04-09T06:14:35Z</time>
      </trkpt>
      <trkpt lat="48.41988" lon="2.73818">
        <ele>53</ele>
        <time>2017-04-09T06:14:47Z</time>
      </trkpt>
      <trkpt lat="48.41991" lon="2.73825">
        <ele>53</ele>
        <time>2017-04-09T06:14:50Z</time>
      </trkpt>
      <trkpt lat="48.41995" lon="2.73828">
        <ele>53</ele>
        <time>2017-04-09T06:14:53Z</time>
      </trkpt>
      <trkpt lat="48.42015" lon="2.7384">
        <ele>53</ele>
        <time>2017-04-09T06:15:08Z</time>
      </trkpt>
      <trkpt lat="48.42043" lon="2.73867">
        <ele>53</ele>
        <time>2017-04-09T06:15:31Z</time>
      </trkpt>
      <trkpt lat="48.42048" lon="2.7387">
        <ele>53</ele>
        <time>2017-04-09T06:15:34Z</time>
      </trkpt>
      <trkpt lat="48.4206" lon="2.73873">
        <ele>53</ele>
        <time>2017-04-09T06:15:41Z</time>
      </trkpt>
      <trkpt lat="48.42089" lon="2.73895">
        <ele>54</ele>
        <time>2017-04-09T06:16:01Z</time>
      </trkpt>
      <trkpt lat="48.42094" lon="2.73897">
        <ele>54</ele>
        <time>2017-04-09T06:16:04Z</time>
      </trkpt>
      <trkpt lat="48.42104" lon="2.73898">
        <ele>54</ele>
        <time>2017-04-09T06:16:11Z</time>
      </trkpt>
      <trkpt lat="48.42118" lon="2.73908">
        <ele>54</ele>
        <time>2017-04-09T06:16:21Z</time>
      </trkpt>
      <trkpt lat="48.42132" lon="2.73921">
        <ele>54</ele>
        <time>2017-04-09T06:16:31Z</time>
      </trkpt>
      <trkpt lat="48.42135" lon="2.73926">
        <ele>54</ele>
        <time>2017-04-09T06:16:34Z</time>
      </trkpt>
      <trkpt lat="48.42138" lon="2.73933">
        <ele>54</ele>
        <time>2017-04-09T06:16:39Z</time>
      </trkpt>
      <trkpt lat="48.42149" lon="2.73946">
        <ele>54</ele>
        <time>2017-04-09T06:16:49Z</time>
      </trkpt>
      <trkpt lat="48.42165" lon="2.73953">
        <ele>54</ele>
        <time>2017-04-09T06:17:00Z</time>
      </trkpt>
      <trkpt lat="48.42183" lon="2.73968">
        <ele>53</ele>
        <time>2017-04-09T06:17:16Z</time>
      </trkpt>
      <trkpt lat="48.42191" lon="2.73968">
        <ele>53</ele>
        <time>2017-04-09T06:17:55Z</time>
      </trkpt>
      <trkpt lat="48.42195" lon="2.73972">
        <ele>52</ele>
        <time>2017-04-09T06:18:00Z</time>
      </trkpt>
      <trkpt lat="48.422" lon="2.73974">
        <ele>52</ele>
        <time>2017-04-09T06:18:03Z</time>
      </trkpt>
      <trkpt lat="48.42204" lon="2.73981">
        <ele>52</ele>
        <time>2017-04-09T06:18:07Z</time>
      </trkpt>
      <trkpt lat="48.42207" lon="2.73987">
        <ele>52</ele>
        <time>2017-04-09T06:18:10Z</time>
      </trkpt>
      <trkpt lat="48.42212" lon="2.7399">
        <ele>52</ele>
        <time>2017-04-09T06:18:13Z</time>
      </trkpt>
      <trkpt lat="48.42217" lon="2.73991">
        <ele>52</ele>
        <time>2017-04-09T06:18:16Z</time>
      </trkpt>
      <trkpt lat="48.42225" lon="2.74005">
        <ele>51</ele>
        <time>2017-04-09T06:18:23Z</time>
      </trkpt>
      <trkpt lat="48.4223" lon="2.74006">
        <ele>51</ele>
        <time>2017-04-09T06:18:26Z</time>
      </trkpt>
      <trkpt lat="48.42236" lon="2.74006">
        <ele>51</ele>
        <time>2017-04-09T06:18:29Z</time>
      </trkpt>
      <trkpt lat="48.42256" lon="2.74015">
        <ele>50</ele>
        <time>2017-04-09T06:18:42Z</time>
      </trkpt>
      <trkpt lat="48.4226" lon="2.74019">
        <ele>50</ele>
        <time>2017-04-09T06:18:45Z</time>
      </trkpt>
      <trkpt lat="48.42271" lon="2.74038">
        <ele>50</ele>
        <time>2017-04-09T06:18:54Z</time>
      </trkpt>
      <trkpt lat="48.42276" lon="2.74042">
        <ele>50</ele>
        <time>2017-04-09T06:18:58Z</time>
      </trkpt>
      <trkpt lat="48.42284" lon="2.74043">
        <ele>50</ele>
        <time>2017-04-09T06:19:03Z</time>
      </trkpt>
      <trkpt lat="48.42294" lon="2.74048">
        <ele>50</ele>
        <time>2017-04-09T06:19:10Z</time>
      </trkpt>
      <trkpt lat="48.42308" lon="2.74061">
        <ele>50</ele>
        <time>2017-04-09T06:19:19Z</time>
      </trkpt>
      <trkpt lat="48.42333" lon="2.74077">
        <ele>50</ele>
        <time>2017-04-09T06:19:36Z</time>
      </trkpt>
      <trkpt lat="48.42337" lon="2.74082">
        <ele>50</ele>
        <time>2017-04-09T06:19:39Z</time>
      </trkpt>
      <trkpt lat="48.4235" lon="2.74108">
        <ele>50</ele>
        <time>2017-04-09T06:19:51Z</time>
      </trkpt>
      <trkpt lat="48.42359" lon="2.74114">
        <ele>51</ele>
        <time>2017-04-09T06:19:58Z</time>
      </trkpt>
      <trkpt lat="48.42365" lon="2.74114">
        <ele>51</ele>
        <time>2017-04-09T06:20:02Z</time>
      </trkpt>
      <trkpt lat="48.4237" lon="2.74119">
        <ele>51</ele>
        <time>2017-04-09T06:20:06Z</time>
      </trkpt>
      <trkpt lat="48.42372" lon="2.74126">
        <ele>51</ele>
        <time>2017-04-09T06:20:10Z</time>
      </trkpt>
      <trkpt lat="48.42381" lon="2.74131">
        <ele>51</ele>
        <time>2017-04-09T06:20:16Z</time>
      </trkpt>
      <trkpt lat="48.42388" lon="2.74151">
        <ele>51</ele>
        <time>2017-04-09T06:20:24Z</time>
      </trkpt>
      <trkpt lat="48.42392" lon="2.74157">
        <ele>51</ele>
        <time>2017-04-09T06:20:27Z</time>
      </trkpt>
      <trkpt lat="48.42395" lon="2.74164">
        <ele>51</ele>
        <time>2017-04-09T06:20:30Z</time>
      </trkpt>
      <trkpt lat="48.424" lon="2.74184">
        <ele>51</ele>
        <time>2017-04-09T06:20:36Z</time>
      </trkpt>
      <trkpt lat="48.42402" lon="2.74201">
        <ele>51</ele>
        <time>2017-04-09T06:20:42Z</time>
      </trkpt>
      <trkpt lat="48.42409" lon="2.74211">
        <ele>51</ele>
        <time>2017-04-09T06:20:48Z</time>
      </trkpt>
      <trkpt lat="48.42414" lon="2.74224">
        <ele>51</ele>
        <time>2017-04-09T06:20:54Z</time>
      </trkpt>
      <trkpt lat="48.42416" lon="2.74233">
        <ele>51</ele>
        <time>2017-04-09T06:20:57Z</time>
      </trkpt>
      <trkpt lat="48.42418" lon="2.74239">
        <ele>51</ele>
        <time>2017-04-09T06:21:00Z</time>
      </trkpt>
      <trkpt lat="48.42421" lon="2.74246">
        <ele>51</ele>
        <time>2017-04-09T06:21:03Z</time>
      </trkpt>
      <trkpt lat="48.4243" lon="2.7426">
        <ele>51</ele>
        <time>2017-04-09T06:21:10Z</time>
      </trkpt>
      <trkpt lat="48.42442" lon="2.74261">
        <ele>51</ele>
        <time>2017-04-09T06:21:16Z</time>
      </trkpt>
      <trkpt lat="48.42448" lon="2.74263">
        <ele>51</ele>
        <time>2017-04-09T06:21:19Z</time>
      </trkpt>
      <trkpt lat="48.42452" lon="2.74269">
        <ele>51</ele>
        <time>2017-04-09T06:21:22Z</time>
      </trkpt>
      <trkpt lat="48.42458" lon="2.74288">
        <ele>50</ele>
        <time>2017-04-09T06:21:31Z</time>
      </trkpt>
      <trkpt lat="48.42459" lon="2.74305">
        <ele>50</ele>
        <time>2017-04-09T06:21:38Z</time>
      </trkpt>
      <trkpt lat="48.42458" lon="2.74312">
        <ele>50</ele>
        <time>2017-04-09T06:21:41Z</time>
      </trkpt>
      <trkpt lat="48.42457" lon="2.74319">
        <ele>50</ele>
        <time>2017-04-09T06:21:44Z</time>
      </trkpt>
      <trkpt lat="48.42453" lon="2.74327">
        <ele>49</ele>
        <time>2017-04-09T06:21:48Z</time>
      </trkpt>
      <trkpt lat="48.42448" lon="2.74331">
        <ele>49</ele>
        <time>2017-04-09T06:21:51Z</time>
      </trkpt>
      <trkpt lat="48.42443" lon="2.74333">
        <ele>49</ele>
        <time>2017-04-09T06:21:54Z</time>
      </trkpt>
      <trkpt lat="48.42438" lon="2.74334">
        <ele>49</ele>
        <time>2017-04-09T06:21:57Z</time>
      </trkpt>
      <trkpt lat="48.42433" lon="2.74337">
        <ele>48</ele>
        <time>2017-04-09T06:22:00Z</time>
      </trkpt>
      <trkpt lat="48.42422" lon="2.74351">
        <ele>48</ele>
        <time>2017-04-09T06:22:09Z</time>
      </trkpt>
      <trkpt lat="48.42419" lon="2.74358">
        <ele>47</ele>
        <time>2017-04-09T06:22:12Z</time>
      </trkpt>
      <trkpt lat="48.42421" lon="2.74367">
        <ele>47</ele>
        <time>2017-04-09T06:22:15Z</time>
      </trkpt>
      <trkpt lat="48.42426" lon="2.74372">
        <ele>46</ele>
        <time>2017-04-09T06:22:18Z</time>
      </trkpt>
      <trkpt lat="48.42444" lon="2.7437">
        <ele>45</ele>
        <time>2017-04-09T06:22:27Z</time>
      </trkpt>
      <trkpt lat="48.42455" lon="2.74373">
        <ele>44</ele>
        <time>2017-04-09T06:22:33Z</time>
      </trkpt>
      <trkpt lat="48.42509" lon="2.74344">
        <ele>45</ele>
        <time>2017-04-09T06:23:06Z</time>
      </trkpt>
      <trkpt lat="48.42523" lon="2.74336">
        <ele>44</ele>
        <time>2017-04-09T06:23:15Z</time>
      </trkpt>
      <trkpt lat="48.42533" lon="2.74334">
        <ele>44</ele>
        <time>2017-04-09T06:23:21Z</time>
      </trkpt>
      <trkpt lat="48.42569" lon="2.74317">
        <ele>44</ele>
        <time>2017-04-09T06:23:42Z</time>
      </trkpt>
      <trkpt lat="48.4261" lon="2.74312">
        <ele>45</ele>
        <time>2017-04-09T06:24:10Z</time>
      </trkpt>
      <trkpt lat="48.42635" lon="2.74326">
        <ele>45</ele>
        <time>2017-04-09T06:24:26Z</time>
      </trkpt>
      <trkpt lat="48.42683" lon="2.74326">
        <ele>45</ele>
        <time>2017-04-09T06:24:53Z</time>
      </trkpt>
      <trkpt lat="48.42733" lon="2.74315">
        <ele>45</ele>
        <time>2017-04-09T06:25:24Z</time>
      </trkpt>
      <trkpt lat="48.42762" lon="2.74311">
        <ele>44</ele>
        <time>2017-04-09T06:25:42Z</time>
      </trkpt>
      <trkpt lat="48.42786" lon="2.74322">
        <ele>43</ele>
        <time>2017-04-09T06:25:57Z</time>
      </trkpt>
      <trkpt lat="48.42839" lon="2.74331">
        <ele>43</ele>
        <time>2017-04-09T06:26:29Z</time>
      </trkpt>
      <trkpt lat="48.42874" lon="2.74347">
        <ele>43</ele>
        <time>2017-04-09T06:26:52Z</time>
      </trkpt>
      <trkpt lat="48.42923" lon="2.74379">
        <ele>44</ele>
        <time>2017-04-09T06:27:22Z</time>
      </trkpt>
      <trkpt lat="48.4293" lon="2.7439">
        <ele>45</ele>
        <time>2017-04-09T06:27:28Z</time>
      </trkpt>
      <trkpt lat="48.42939" lon="2.74409">
        <ele>45</ele>
        <time>2017-04-09T06:27:37Z</time>
      </trkpt>
      <trkpt lat="48.42941" lon="2.74424">
        <ele>45</ele>
        <time>2017-04-09T06:27:44Z</time>
      </trkpt>
      <trkpt lat="48.42941" lon="2.74432">
        <ele>45</ele>
        <time>2017-04-09T06:27:47Z</time>
      </trkpt>
      <trkpt lat="48.42941" lon="2.7444">
        <ele>45</ele>
        <time>2017-04-09T06:27:50Z</time>
      </trkpt>
      <trkpt lat="48.42946" lon="2.74453">
        <ele>45</ele>
        <time>2017-04-09T06:27:56Z</time>
      </trkpt>
      <trkpt lat="48.4295" lon="2.74459">
        <ele>45</ele>
        <time>2017-04-09T06:28:00Z</time>
      </trkpt>
      <trkpt lat="48.42954" lon="2.74461">
        <ele>45</ele>
        <time>2017-04-09T06:28:03Z</time>
      </trkpt>
      <trkpt lat="48.42964" lon="2.74458">
        <ele>45</ele>
        <time>2017-04-09T06:28:10Z</time>
      </trkpt>
      <trkpt lat="48.42968" lon="2.74453">
        <ele>45</ele>
        <time>2017-04-09T06:28:17Z</time>
      </trkpt>
      <trkpt lat="48.42966" lon="2.74443">
        <ele>48</ele>
        <time>2017-04-09T06:28:38Z</time>
      </trkpt>
      <trkpt lat="48.42961" lon="2.74447">
        <ele>48</ele>
        <time>2017-04-09T06:28:42Z</time>
      </trkpt>
      <trkpt lat="48.4296" lon="2.74455">
        <ele>49</ele>
        <time>2017-04-09T06:28:47Z</time>
      </trkpt>
      <trkpt lat="48.42961" lon="2.74463">
        <ele>49</ele>
        <time>2017-04-09T06:28:51Z</time>
      </trkpt>
      <trkpt lat="48.4296" lon="2.7448">
        <ele>50</ele>
        <time>2017-04-09T06:28:59Z</time>
      </trkpt>
      <trkpt lat="48.42961" lon="2.74488">
        <ele>50</ele>
        <time>2017-04-09T06:29:03Z</time>
      </trkpt>
      <trkpt lat="48.42964" lon="2.74558">
        <ele>48</ele>
        <time>2017-04-09T06:29:36Z</time>
      </trkpt>
      <trkpt lat="48.42966" lon="2.74597">
        <ele>48</ele>
        <time>2017-04-09T06:29:53Z</time>
      </trkpt>
      <trkpt lat="48.42966" lon="2.74611">
        <ele>49</ele>
        <time>2017-04-09T06:29:59Z</time>
      </trkpt>
      <trkpt lat="48.42971" lon="2.74659">
        <ele>48</ele>
        <time>2017-04-09T06:30:23Z</time>
      </trkpt>
      <trkpt lat="48.42976" lon="2.7466">
        <ele>48</ele>
        <time>2017-04-09T06:30:26Z</time>
      </trkpt>
      <trkpt lat="48.42985" lon="2.74654">
        <ele>48</ele>
        <time>2017-04-09T06:30:32Z</time>
      </trkpt>
      <trkpt lat="48.42995" lon="2.74648">
        <ele>47</ele>
        <time>2017-04-09T06:30:38Z</time>
      </trkpt>
      <trkpt lat="48.43019" lon="2.7465">
        <ele>46</ele>
        <time>2017-04-09T06:30:54Z</time>
      </trkpt>
      <trkpt lat="48.43034" lon="2.74659">
        <ele>45</ele>
        <time>2017-04-09T06:31:04Z</time>
      </trkpt>
      <trkpt lat="48.4309" lon="2.74662">
        <ele>44</ele>
        <time>2017-04-09T06:31:35Z</time>
      </trkpt>
      <trkpt lat="48.43116" lon="2.74661">
        <ele>44</ele>
        <time>2017-04-09T06:31:51Z</time>
      </trkpt>
      <trkpt lat="48.4313" lon="2.74653">
        <ele>44</ele>
        <time>2017-04-09T06:32:00Z</time>
      </trkpt>
      <trkpt lat="48.43181" lon="2.74657">
        <ele>44</ele>
        <time>2017-04-09T06:32:31Z</time>
      </trkpt>
      <trkpt lat="48.43187" lon="2.74659">
        <ele>43</ele>
        <time>2017-04-09T06:32:35Z</time>
      </trkpt>
      <trkpt lat="48.43224" lon="2.74659">
        <ele>43</ele>
        <time>2017-04-09T06:32:56Z</time>
      </trkpt>
      <trkpt lat="48.43266" lon="2.74651">
        <ele>42</ele>
        <time>2017-04-09T06:33:20Z</time>
      </trkpt>
      <trkpt lat="48.43324" lon="2.74649">
        <ele>42</ele>
        <time>2017-04-09T06:33:53Z</time>
      </trkpt>
      <trkpt lat="48.43339" lon="2.74648">
        <ele>42</ele>
        <time>2017-04-09T06:34:02Z</time>
      </trkpt>
      <trkpt lat="48.43344" lon="2.74646">
        <ele>42</ele>
        <time>2017-04-09T06:34:05Z</time>
      </trkpt>
      <trkpt lat="48.43375" lon="2.74645">
        <ele>42</ele>
        <time>2017-04-09T06:34:23Z</time>
      </trkpt>
      <trkpt lat="48.43406" lon="2.74656">
        <ele>42</ele>
        <time>2017-04-09T06:34:42Z</time>
      </trkpt>
      <trkpt lat="48.43412" lon="2.74656">
        <ele>42</ele>
        <time>2017-04-09T06:34:45Z</time>
      </trkpt>
      <trkpt lat="48.43435" lon="2.74668">
        <ele>42</ele>
        <time>2017-04-09T06:35:00Z</time>
      </trkpt>
      <trkpt lat="48.43473" lon="2.74674">
        <ele>42</ele>
        <time>2017-04-09T06:35:20Z</time>
      </trkpt>
      <trkpt lat="48.43499" lon="2.74684">
        <ele>42</ele>
        <time>2017-04-09T06:35:36Z</time>
      </trkpt>
      <trkpt lat="48.43535" lon="2.74693">
        <ele>43</ele>
        <time>2017-04-09T06:35:59Z</time>
      </trkpt>
      <trkpt lat="48.43572" lon="2.74709">
        <ele>43</ele>
        <time>2017-04-09T06:36:21Z</time>
      </trkpt>
      <trkpt lat="48.43595" lon="2.74709">
        <ele>43</ele>
        <time>2017-04-09T06:36:32Z</time>
      </trkpt>
      <trkpt lat="48.43599" lon="2.74711">
        <ele>43</ele>
        <time>2017-04-09T06:36:35Z</time>
      </trkpt>
      <trkpt lat="48.43604" lon="2.74711">
        <ele>43</ele>
        <time>2017-04-09T06:36:40Z</time>
      </trkpt>
      <trkpt lat="48.43656" lon="2.74734">
        <ele>43</ele>
        <time>2017-04-09T06:37:13Z</time>
      </trkpt>
      <trkpt lat="48.43697" lon="2.74752">
        <ele>43</ele>
        <time>2017-04-09T06:37:37Z</time>
      </trkpt>
      <trkpt lat="48.43705" lon="2.7476">
        <ele>43</ele>
        <time>2017-04-09T06:37:44Z</time>
      </trkpt>
      <trkpt lat="48.43708" lon="2.74767">
        <ele>43</ele>
        <time>2017-04-09T06:37:47Z</time>
      </trkpt>
      <trkpt lat="48.43713" lon="2.74771">
        <ele>43</ele>
        <time>2017-04-09T06:37:50Z</time>
      </trkpt>
      <trkpt lat="48.43746" lon="2.74778">
        <ele>43</ele>
        <time>2017-04-09T06:38:08Z</time>
      </trkpt>
      <trkpt lat="48.43804" lon="2.74798">
        <ele>44</ele>
        <time>2017-04-09T06:38:41Z</time>
      </trkpt>
      <trkpt lat="48.43833" lon="2.74811">
        <ele>44</ele>
        <time>2017-04-09T06:38:59Z</time>
      </trkpt>
      <trkpt lat="48.43842" lon="2.74818">
        <ele>44</ele>
        <time>2017-04-09T06:39:05Z</time>
      </trkpt>
      <trkpt lat="48.43847" lon="2.7482">
        <ele>44</ele>
        <time>2017-04-09T06:39:08Z</time>
      </trkpt>
      <trkpt lat="48.43858" lon="2.74822">
        <ele>44</ele>
        <time>2017-04-09T06:39:14Z</time>
      </trkpt>
      <trkpt lat="48.43867" lon="2.74829">
        <ele>43</ele>
        <time>2017-04-09T06:39:21Z</time>
      </trkpt>
      <trkpt lat="48.43872" lon="2.74831">
        <ele>43</ele>
        <time>2017-04-09T06:39:24Z</time>
      </trkpt>
      <trkpt lat="48.43892" lon="2.74843">
        <ele>43</ele>
        <time>2017-04-09T06:39:37Z</time>
      </trkpt>
      <trkpt lat="48.43898" lon="2.74844">
        <ele>43</ele>
        <time>2017-04-09T06:39:40Z</time>
      </trkpt>
      <trkpt lat="48.43915" lon="2.74859">
        <ele>43</ele>
        <time>2017-04-09T06:39:53Z</time>
      </trkpt>
      <trkpt lat="48.43956" lon="2.74878">
        <ele>44</ele>
        <time>2017-04-09T06:40:17Z</time>
      </trkpt>
      <trkpt lat="48.44005" lon="2.74905">
        <ele>44</ele>
        <time>2017-04-09T06:40:48Z</time>
      </trkpt>
      <trkpt lat="48.44053" lon="2.74931">
        <ele>44</ele>
        <time>2017-04-09T06:41:18Z</time>
      </trkpt>
      <trkpt lat="48.44062" lon="2.74937">
        <ele>44</ele>
        <time>2017-04-09T06:41:24Z</time>
      </trkpt>
      <trkpt lat="48.44067" lon="2.7494">
        <ele>44</ele>
        <time>2017-04-09T06:41:27Z</time>
      </trkpt>
      <trkpt lat="48.44115" lon="2.7497">
        <ele>44</ele>
        <time>2017-04-09T06:41:57Z</time>
      </trkpt>
      <trkpt lat="48.44166" lon="2.75007">
        <ele>44</ele>
        <time>2017-04-09T06:42:30Z</time>
      </trkpt>
      <trkpt lat="48.44174" lon="2.75014">
        <ele>44</ele>
        <time>2017-04-09T06:42:36Z</time>
      </trkpt>
      <trkpt lat="48.44182" lon="2.75025">
        <ele>43</ele>
        <time>2017-04-09T06:42:42Z</time>
      </trkpt>
      <trkpt lat="48.4422" lon="2.75054">
        <ele>43</ele>
        <time>2017-04-09T06:43:06Z</time>
      </trkpt>
      <trkpt lat="48.4424" lon="2.7508">
        <ele>43</ele>
        <time>2017-04-09T06:43:21Z</time>
      </trkpt>
      <trkpt lat="48.44246" lon="2.75093">
        <ele>43</ele>
        <time>2017-04-09T06:43:27Z</time>
      </trkpt>
      <trkpt lat="48.44256" lon="2.75102">
        <ele>43</ele>
        <time>2017-04-09T06:43:35Z</time>
      </trkpt>
      <trkpt lat="48.4427" lon="2.7512">
        <ele>42</ele>
        <time>2017-04-09T06:43:45Z</time>
      </trkpt>
      <trkpt lat="48.44275" lon="2.75134">
        <ele>43</ele>
        <time>2017-04-09T06:43:51Z</time>
      </trkpt>
      <trkpt lat="48.44279" lon="2.75137">
        <ele>43</ele>
        <time>2017-04-09T06:43:54Z</time>
      </trkpt>
      <trkpt lat="48.44285" lon="2.75139">
        <ele>42</ele>
        <time>2017-04-09T06:43:57Z</time>
      </trkpt>
      <trkpt lat="48.44291" lon="2.75144">
        <ele>42</ele>
        <time>2017-04-09T06:44:00Z</time>
      </trkpt>
      <trkpt lat="48.44298" lon="2.75156">
        <ele>42</ele>
        <time>2017-04-09T06:44:06Z</time>
      </trkpt>
      <trkpt lat="48.44308" lon="2.75165">
        <ele>42</ele>
        <time>2017-04-09T06:44:13Z</time>
      </trkpt>
      <trkpt lat="48.44343" lon="2.75213">
        <ele>41</ele>
        <time>2017-04-09T06:44:42Z</time>
      </trkpt>
      <trkpt lat="48.4435" lon="2.75224">
        <ele>41</ele>
        <time>2017-04-09T06:44:48Z</time>
      </trkpt>
      <trkpt lat="48.44376" lon="2.75237">
        <ele>41</ele>
        <time>2017-04-09T06:45:03Z</time>
      </trkpt>
      <trkpt lat="48.4438" lon="2.75241">
        <ele>42</ele>
        <time>2017-04-09T06:45:06Z</time>
      </trkpt>
      <trkpt lat="48.44417" lon="2.75286">
        <ele>42</ele>
        <time>2017-04-09T06:45:35Z</time>
      </trkpt>
      <trkpt lat="48.44431" lon="2.75295">
        <ele>42</ele>
        <time>2017-04-09T06:45:45Z</time>
      </trkpt>
      <trkpt lat="48.44439" lon="2.75304">
        <ele>42</ele>
        <time>2017-04-09T06:45:51Z</time>
      </trkpt>
      <trkpt lat="48.44447" lon="2.75311">
        <ele>42</ele>
        <time>2017-04-09T06:45:57Z</time>
      </trkpt>
      <trkpt lat="48.44451" lon="2.75316">
        <ele>42</ele>
        <time>2017-04-09T06:46:00Z</time>
      </trkpt>
      <trkpt lat="48.44457" lon="2.75322">
        <ele>42</ele>
        <time>2017-04-09T06:46:12Z</time>
      </trkpt>
      <trkpt lat="48.44483" lon="2.75351">
        <ele>42</ele>
        <time>2017-04-09T06:46:35Z</time>
      </trkpt>
      <trkpt lat="48.4452" lon="2.75381">
        <ele>43</ele>
        <time>2017-04-09T06:47:06Z</time>
      </trkpt>
      <trkpt lat="48.44546" lon="2.75405">
        <ele>43</ele>
        <time>2017-04-09T06:47:25Z</time>
      </trkpt>
      <trkpt lat="48.44551" lon="2.75406">
        <ele>43</ele>
        <time>2017-04-09T06:47:28Z</time>
      </trkpt>
      <trkpt lat="48.44566" lon="2.75419">
        <ele>43</ele>
        <time>2017-04-09T06:47:39Z</time>
      </trkpt>
      <trkpt lat="48.4457" lon="2.75424">
        <ele>43</ele>
        <time>2017-04-09T06:47:42Z</time>
      </trkpt>
      <trkpt lat="48.44579" lon="2.7543">
        <ele>43</ele>
        <time>2017-04-09T06:47:48Z</time>
      </trkpt>
      <trkpt lat="48.44582" lon="2.75435">
        <ele>43</ele>
        <time>2017-04-09T06:47:51Z</time>
      </trkpt>
      <trkpt lat="48.44586" lon="2.75438">
        <ele>43</ele>
        <time>2017-04-09T06:47:54Z</time>
      </trkpt>
      <trkpt lat="48.44607" lon="2.75471">
        <ele>43</ele>
        <time>2017-04-09T06:48:13Z</time>
      </trkpt>
      <trkpt lat="48.44612" lon="2.75484">
        <ele>43</ele>
        <time>2017-04-09T06:48:20Z</time>
      </trkpt>
      <trkpt lat="48.44632" lon="2.75517">
        <ele>43</ele>
        <time>2017-04-09T06:48:39Z</time>
      </trkpt>
      <trkpt lat="48.44638" lon="2.75532">
        <ele>43</ele>
        <time>2017-04-09T06:48:47Z</time>
      </trkpt>
      <trkpt lat="48.44644" lon="2.75542">
        <ele>43</ele>
        <time>2017-04-09T06:48:53Z</time>
      </trkpt>
      <trkpt lat="48.44649" lon="2.75546">
        <ele>43</ele>
        <time>2017-04-09T06:48:56Z</time>
      </trkpt>
      <trkpt lat="48.44673" lon="2.75583">
        <ele>43</ele>
        <time>2017-04-09T06:49:18Z</time>
      </trkpt>
      <trkpt lat="48.44676" lon="2.7559">
        <ele>43</ele>
        <time>2017-04-09T06:49:21Z</time>
      </trkpt>
      <trkpt lat="48.44686" lon="2.75606">
        <ele>43</ele>
        <time>2017-04-09T06:49:30Z</time>
      </trkpt>
      <trkpt lat="48.44691" lon="2.75618">
        <ele>43</ele>
        <time>2017-04-09T06:49:36Z</time>
      </trkpt>
      <trkpt lat="48.44695" lon="2.75623">
        <ele>43</ele>
        <time>2017-04-09T06:49:40Z</time>
      </trkpt>
      <trkpt lat="48.44698" lon="2.75629">
        <ele>43</ele>
        <time>2017-04-09T06:49:43Z</time>
      </trkpt>
      <trkpt lat="48.44701" lon="2.75644">
        <ele>43</ele>
        <time>2017-04-09T06:49:49Z</time>
      </trkpt>
      <trkpt lat="48.44707" lon="2.75657">
        <ele>43</ele>
        <time>2017-04-09T06:49:55Z</time>
      </trkpt>
      <trkpt lat="48.44714" lon="2.75667">
        <ele>43</ele>
        <time>2017-04-09T06:50:01Z</time>
      </trkpt>
      <trkpt lat="48.4472" lon="2.7568">
        <ele>42</ele>
        <time>2017-04-09T06:50:07Z</time>
      </trkpt>
      <trkpt lat="48.44727" lon="2.7569">
        <ele>42</ele>
        <time>2017-04-09T06:50:13Z</time>
      </trkpt>
      <trkpt lat="48.4473" lon="2.75698">
        <ele>42</ele>
        <time>2017-04-09T06:50:16Z</time>
      </trkpt>
      <trkpt lat="48.44743" lon="2.75724">
        <ele>42</ele>
        <time>2017-04-09T06:50:29Z</time>
      </trkpt>
      <trkpt lat="48.44746" lon="2.7573">
        <ele>42</ele>
        <time>2017-04-09T06:50:32Z</time>
      </trkpt>
      <trkpt lat="48.4476" lon="2.75751">
        <ele>42</ele>
        <time>2017-04-09T06:50:44Z</time>
      </trkpt>
      <trkpt lat="48.44767" lon="2.75759">
        <ele>42</ele>
        <time>2017-04-09T06:50:50Z</time>
      </trkpt>
      <trkpt lat="48.44796" lon="2.75818">
        <ele>43</ele>
        <time>2017-04-09T06:51:20Z</time>
      </trkpt>
      <trkpt lat="48.44798" lon="2.75825">
        <ele>43</ele>
        <time>2017-04-09T06:51:23Z</time>
      </trkpt>
      <trkpt lat="48.448" lon="2.75833">
        <ele>43</ele>
        <time>2017-04-09T06:51:26Z</time>
      </trkpt>
      <trkpt lat="48.44804" lon="2.7584">
        <ele>43</ele>
        <time>2017-04-09T06:51:30Z</time>
      </trkpt>
      <trkpt lat="48.44812" lon="2.7585">
        <ele>43</ele>
        <time>2017-04-09T06:51:36Z</time>
      </trkpt>
      <trkpt lat="48.44832" lon="2.75884">
        <ele>43</ele>
        <time>2017-04-09T06:51:54Z</time>
      </trkpt>
      <trkpt lat="48.44849" lon="2.75899">
        <ele>43</ele>
        <time>2017-04-09T06:52:06Z</time>
      </trkpt>
      <trkpt lat="48.44886" lon="2.75953">
        <ele>43</ele>
        <time>2017-04-09T06:52:37Z</time>
      </trkpt>
      <trkpt lat="48.44889" lon="2.75959">
        <ele>43</ele>
        <time>2017-04-09T06:52:40Z</time>
      </trkpt>
      <trkpt lat="48.44894" lon="2.75973">
        <ele>43</ele>
        <time>2017-04-09T06:52:46Z</time>
      </trkpt>
      <trkpt lat="48.44898" lon="2.75979">
        <ele>43</ele>
        <time>2017-04-09T06:52:49Z</time>
      </trkpt>
      <trkpt lat="48.44907" lon="2.76003">
        <ele>43</ele>
        <time>2017-04-09T06:52:59Z</time>
      </trkpt>
      <trkpt lat="48.44919" lon="2.76018">
        <ele>43</ele>
        <time>2017-04-09T06:53:08Z</time>
      </trkpt>
      <trkpt lat="48.44926" lon="2.7603">
        <ele>43</ele>
        <time>2017-04-09T06:53:14Z</time>
      </trkpt>
      <trkpt lat="48.44935" lon="2.7604">
        <ele>43</ele>
        <time>2017-04-09T06:53:20Z</time>
      </trkpt>
      <trkpt lat="48.44967" lon="2.76095">
        <ele>42</ele>
        <time>2017-04-09T06:53:50Z</time>
      </trkpt>
      <trkpt lat="48.45" lon="2.76142">
        <ele>41</ele>
        <time>2017-04-09T06:54:19Z</time>
      </trkpt>
      <trkpt lat="48.45013" lon="2.76165">
        <ele>40</ele>
        <time>2017-04-09T06:54:31Z</time>
      </trkpt>
      <trkpt lat="48.45032" lon="2.76191">
        <ele>40</ele>
        <time>2017-04-09T06:55:18Z</time>
      </trkpt>
      <trkpt lat="48.45046" lon="2.76211">
        <ele>40</ele>
        <time>2017-04-09T06:55:33Z</time>
      </trkpt>
      <trkpt lat="48.45056" lon="2.76218">
        <ele>40</ele>
        <time>2017-04-09T06:55:42Z</time>
      </trkpt>
      <trkpt lat="48.45093" lon="2.76269">
        <ele>40</ele>
        <time>2017-04-09T06:56:13Z</time>
      </trkpt>
      <trkpt lat="48.45111" lon="2.76304">
        <ele>40</ele>
        <time>2017-04-09T06:56:32Z</time>
      </trkpt>
      <trkpt lat="48.45113" lon="2.76311">
        <ele>40</ele>
        <time>2017-04-09T06:56:35Z</time>
      </trkpt>
      <trkpt lat="48.45112" lon="2.76318">
        <ele>40</ele>
        <time>2017-04-09T06:56:38Z</time>
      </trkpt>
      <trkpt lat="48.4508" lon="2.76372">
        <ele>42</ele>
        <time>2017-04-09T06:57:09Z</time>
      </trkpt>
      <trkpt lat="48.45067" lon="2.76396">
        <ele>44</ele>
        <time>2017-04-09T06:57:22Z</time>
      </trkpt>
      <trkpt lat="48.45058" lon="2.76417">
        <ele>44</ele>
        <time>2017-04-09T06:57:34Z</time>
      </trkpt>
      <trkpt lat="48.45028" lon="2.76475">
        <ele>47</ele>
        <time>2017-04-09T06:58:08Z</time>
      </trkpt>
      <trkpt lat="48.45017" lon="2.76491">
        <ele>48</ele>
        <time>2017-04-09T06:58:18Z</time>
      </trkpt>
      <trkpt lat="48.44977" lon="2.76529">
        <ele>50</ele>
        <time>2017-04-09T06:58:50Z</time>
      </trkpt>
      <trkpt lat="48.44963" lon="2.76541">
        <ele>50</ele>
        <time>2017-04-09T06:59:02Z</time>
      </trkpt>
      <trkpt lat="48.44958" lon="2.76547">
        <ele>51</ele>
        <time>2017-04-09T06:59:06Z</time>
      </trkpt>
      <trkpt lat="48.44947" lon="2.76575">
        <ele>52</ele>
        <time>2017-04-09T06:59:20Z</time>
      </trkpt>
      <trkpt lat="48.4494" lon="2.76604">
        <ele>53</ele>
        <time>2017-04-09T06:59:35Z</time>
      </trkpt>
      <trkpt lat="48.4494" lon="2.76613">
        <ele>54</ele>
        <time>2017-04-09T06:59:39Z</time>
      </trkpt>
      <trkpt lat="48.44942" lon="2.7662">
        <ele>54</ele>
        <time>2017-04-09T06:59:42Z</time>
      </trkpt>
      <trkpt lat="48.4497" lon="2.76662">
        <ele>56</ele>
        <time>2017-04-09T07:00:06Z</time>
      </trkpt>
      <trkpt lat="48.44975" lon="2.76675">
        <ele>56</ele>
        <time>2017-04-09T07:00:12Z</time>
      </trkpt>
      <trkpt lat="48.44977" lon="2.76682">
        <ele>57</ele>
        <time>2017-04-09T07:00:15Z</time>
      </trkpt>
      <trkpt lat="48.44992" lon="2.76711">
        <ele>58</ele>
        <time>2017-04-09T07:00:30Z</time>
      </trkpt>
      <trkpt lat="48.44995" lon="2.76718">
        <ele>58</ele>
        <time>2017-04-09T07:00:33Z</time>
      </trkpt>
      <trkpt lat="48.44998" lon="2.76723">
        <ele>59</ele>
        <time>2017-04-09T07:00:36Z</time>
      </trkpt>
      <trkpt lat="48.45005" lon="2.76742">
        <ele>60</ele>
        <time>2017-04-09T07:00:46Z</time>
      </trkpt>
      <trkpt lat="48.45006" lon="2.76751">
        <ele>60</ele>
        <time>2017-04-09T07:00:50Z</time>
      </trkpt>
      <trkpt lat="48.45003" lon="2.76776">
        <ele>61</ele>
        <time>2017-04-09T07:00:59Z</time>
      </trkpt>
      <trkpt lat="48.44999" lon="2.76799">
        <ele>63</ele>
        <time>2017-04-09T07:01:09Z</time>
      </trkpt>
      <trkpt lat="48.44997" lon="2.76822">
        <ele>65</ele>
        <time>2017-04-09T07:01:20Z</time>
      </trkpt>
      <trkpt lat="48.44995" lon="2.76831">
        <ele>66</ele>
        <time>2017-04-09T07:01:24Z</time>
      </trkpt>
      <trkpt lat="48.44995" lon="2.76845">
        <ele>67</ele>
        <time>2017-04-09T07:01:31Z</time>
      </trkpt>
      <trkpt lat="48.44994" lon="2.76853">
        <ele>68</ele>
        <time>2017-04-09T07:01:34Z</time>
      </trkpt>
      <trkpt lat="48.44989" lon="2.76928">
        <ele>73</ele>
        <time>2017-04-09T07:02:08Z</time>
      </trkpt>
      <trkpt lat="48.45003" lon="2.77003">
        <ele>77</ele>
        <time>2017-04-09T07:02:42Z</time>
      </trkpt>
      <trkpt lat="48.45006" lon="2.77009">
        <ele>78</ele>
        <time>2017-04-09T07:02:46Z</time>
      </trkpt>
      <trkpt lat="48.45012" lon="2.77013">
        <ele>78</ele>
        <time>2017-04-09T07:02:50Z</time>
      </trkpt>
      <trkpt lat="48.45021" lon="2.77014">
        <ele>78</ele>
        <time>2017-04-09T07:02:56Z</time>
      </trkpt>
      <trkpt lat="48.45052" lon="2.7701">
        <ele>78</ele>
        <time>2017-04-09T07:03:17Z</time>
      </trkpt>
      <trkpt lat="48.45064" lon="2.77011">
        <ele>78</ele>
        <time>2017-04-09T07:03:24Z</time>
      </trkpt>
      <trkpt lat="48.45073" lon="2.77009">
        <ele>77</ele>
        <time>2017-04-09T07:03:30Z</time>
      </trkpt>
      <trkpt lat="48.45078" lon="2.77009">
        <ele>77</ele>
        <time>2017-04-09T07:03:33Z</time>
      </trkpt>
      <trkpt lat="48.45084" lon="2.77012">
        <ele>77</ele>
        <time>2017-04-09T07:03:37Z</time>
      </trkpt>
      <trkpt lat="48.45088" lon="2.77015">
        <ele>77</ele>
        <time>2017-04-09T07:03:40Z</time>
      </trkpt>
      <trkpt lat="48.4509" lon="2.77022">
        <ele>77</ele>
        <time>2017-04-09T07:03:43Z</time>
      </trkpt>
      <trkpt lat="48.45093" lon="2.77045">
        <ele>78</ele>
        <time>2017-04-09T07:03:52Z</time>
      </trkpt>
      <trkpt lat="48.45091" lon="2.77053">
        <ele>78</ele>
        <time>2017-04-09T07:03:55Z</time>
      </trkpt>
      <trkpt lat="48.45092" lon="2.77068">
        <ele>79</ele>
        <time>2017-04-09T07:04:01Z</time>
      </trkpt>
      <trkpt lat="48.45093" lon="2.77076">
        <ele>79</ele>
        <time>2017-04-09T07:04:05Z</time>
      </trkpt>
      <trkpt lat="48.45096" lon="2.77082">
        <ele>79</ele>
        <time>2017-04-09T07:04:08Z</time>
      </trkpt>
      <trkpt lat="48.45098" lon="2.77089">
        <ele>80</ele>
        <time>2017-04-09T07:04:11Z</time>
      </trkpt>
      <trkpt lat="48.451" lon="2.77104">
        <ele>80</ele>
        <time>2017-04-09T07:04:17Z</time>
      </trkpt>
      <trkpt lat="48.45102" lon="2.7711">
        <ele>81</ele>
        <time>2017-04-09T07:04:21Z</time>
      </trkpt>
      <trkpt lat="48.45113" lon="2.77171">
        <ele>84</ele>
        <time>2017-04-09T07:04:50Z</time>
      </trkpt>
      <trkpt lat="48.45122" lon="2.772">
        <ele>86</ele>
        <time>2017-04-09T07:05:03Z</time>
      </trkpt>
      <trkpt lat="48.45126" lon="2.77231">
        <ele>86</ele>
        <time>2017-04-09T07:05:15Z</time>
      </trkpt>
      <trkpt lat="48.45127" lon="2.77246">
        <ele>87</ele>
        <time>2017-04-09T07:05:20Z</time>
      </trkpt>
      <trkpt lat="48.45128" lon="2.77263">
        <ele>87</ele>
        <time>2017-04-09T07:05:26Z</time>
      </trkpt>
      <trkpt lat="48.45121" lon="2.77341">
        <ele>90</ele>
        <time>2017-04-09T07:05:58Z</time>
      </trkpt>
      <trkpt lat="48.4512" lon="2.77355">
        <ele>90</ele>
        <time>2017-04-09T07:06:04Z</time>
      </trkpt>
      <trkpt lat="48.45122" lon="2.77376">
        <ele>91</ele>
        <time>2017-04-09T07:06:13Z</time>
      </trkpt>
      <trkpt lat="48.45122" lon="2.77397">
        <ele>91</ele>
        <time>2017-04-09T07:06:22Z</time>
      </trkpt>
      <trkpt lat="48.45123" lon="2.77405">
        <ele>91</ele>
        <time>2017-04-09T07:06:25Z</time>
      </trkpt>
      <trkpt lat="48.45124" lon="2.77412">
        <ele>91</ele>
        <time>2017-04-09T07:06:28Z</time>
      </trkpt>
      <trkpt lat="48.45126" lon="2.77418">
        <ele>91</ele>
        <time>2017-04-09T07:06:31Z</time>
      </trkpt>
      <trkpt lat="48.45127" lon="2.77426">
        <ele>91</ele>
        <time>2017-04-09T07:06:34Z</time>
      </trkpt>
      <trkpt lat="48.45126" lon="2.7745">
        <ele>92</ele>
        <time>2017-04-09T07:06:43Z</time>
      </trkpt>
      <trkpt lat="48.4513" lon="2.77488">
        <ele>93</ele>
        <time>2017-04-09T07:06:58Z</time>
      </trkpt>
      <trkpt lat="48.45146" lon="2.77562">
        <ele>94</ele>
        <time>2017-04-09T07:07:30Z</time>
      </trkpt>
      <trkpt lat="48.45162" lon="2.77633">
        <ele>95</ele>
        <time>2017-04-09T07:08:00Z</time>
      </trkpt>
      <trkpt lat="48.4517" lon="2.77676">
        <ele>95</ele>
        <time>2017-04-09T07:08:18Z</time>
      </trkpt>
      <trkpt lat="48.45176" lon="2.77696">
        <ele>95</ele>
        <time>2017-04-09T07:08:27Z</time>
      </trkpt>
      <trkpt lat="48.45177" lon="2.77703">
        <ele>95</ele>
        <time>2017-04-09T07:08:30Z</time>
      </trkpt>
      <trkpt lat="48.45178" lon="2.77718">
        <ele>95</ele>
        <time>2017-04-09T07:08:36Z</time>
      </trkpt>
      <trkpt lat="48.45181" lon="2.77733">
        <ele>95</ele>
        <time>2017-04-09T07:08:42Z</time>
      </trkpt>
      <trkpt lat="48.45191" lon="2.77801">
        <ele>94</ele>
        <time>2017-04-09T07:09:09Z</time>
      </trkpt>
      <trkpt lat="48.45204" lon="2.77874">
        <ele>94</ele>
        <time>2017-04-09T07:09:40Z</time>
      </trkpt>
      <trkpt lat="48.45214" lon="2.77949">
        <ele>93</ele>
        <time>2017-04-09T07:10:10Z</time>
      </trkpt>
      <trkpt lat="48.45227" lon="2.78031">
        <ele>93</ele>
        <time>2017-04-09T07:10:42Z</time>
      </trkpt>
      <trkpt lat="48.45231" lon="2.78053">
        <ele>93</ele>
        <time>2017-04-09T07:10:51Z</time>
      </trkpt>
      <trkpt lat="48.45249" lon="2.78123">
        <ele>92</ele>
        <time>2017-04-09T07:11:22Z</time>
      </trkpt>
      <trkpt lat="48.45262" lon="2.78173">
        <ele>92</ele>
        <time>2017-04-09T07:11:43Z</time>
      </trkpt>
      <trkpt lat="48.4527" lon="2.78194">
        <ele>92</ele>
        <time>2017-04-09T07:11:52Z</time>
      </trkpt>
      <trkpt lat="48.45273" lon="2.782">
        <ele>91</ele>
        <time>2017-04-09T07:11:55Z</time>
      </trkpt>
      <trkpt lat="48.45288" lon="2.78221">
        <ele>91</ele>
        <time>2017-04-09T07:12:07Z</time>
      </trkpt>
      <trkpt lat="48.45316" lon="2.78239">
        <ele>89</ele>
        <time>2017-04-09T07:12:25Z</time>
      </trkpt>
      <trkpt lat="48.45366" lon="2.78247">
        <ele>86</ele>
        <time>2017-04-09T07:12:56Z</time>
      </trkpt>
      <trkpt lat="48.45424" lon="2.78261">
        <ele>82</ele>
        <time>2017-04-09T07:13:30Z</time>
      </trkpt>
      <trkpt lat="48.45435" lon="2.78267">
        <ele>82</ele>
        <time>2017-04-09T07:13:37Z</time>
      </trkpt>
      <trkpt lat="48.45443" lon="2.78275">
        <ele>81</ele>
        <time>2017-04-09T07:13:43Z</time>
      </trkpt>
      <trkpt lat="48.45448" lon="2.78276">
        <ele>80</ele>
        <time>2017-04-09T07:13:46Z</time>
      </trkpt>
      <trkpt lat="48.45453" lon="2.78276">
        <ele>80</ele>
        <time>2017-04-09T07:13:49Z</time>
      </trkpt>
      <trkpt lat="48.45481" lon="2.7829">
        <ele>78</ele>
        <time>2017-04-09T07:14:07Z</time>
      </trkpt>
      <trkpt lat="48.45486" lon="2.78294">
        <ele>78</ele>
        <time>2017-04-09T07:14:10Z</time>
      </trkpt>
      <trkpt lat="48.45524" lon="2.78307">
        <ele>73</ele>
        <time>2017-04-09T07:14:35Z</time>
      </trkpt>
      <trkpt lat="48.45548" lon="2.78304">
        <ele>71</ele>
        <time>2017-04-09T07:14:50Z</time>
      </trkpt>
      <trkpt lat="48.45583" lon="2.78286">
        <ele>68</ele>
        <time>2017-04-09T07:15:15Z</time>
      </trkpt>
      <trkpt lat="48.45608" lon="2.78282">
        <ele>65</ele>
        <time>2017-04-09T07:15:32Z</time>
      </trkpt>
      <trkpt lat="48.45617" lon="2.78275">
        <ele>64</ele>
        <time>2017-04-09T07:15:38Z</time>
      </trkpt>
      <trkpt lat="48.4567" lon="2.78281">
        <ele>60</ele>
        <time>2017-04-09T07:16:10Z</time>
      </trkpt>
      <trkpt lat="48.45722" lon="2.78284">
        <ele>58</ele>
        <time>2017-04-09T07:16:40Z</time>
      </trkpt>
      <trkpt lat="48.45759" lon="2.78292">
        <ele>56</ele>
        <time>2017-04-09T07:17:04Z</time>
      </trkpt>
      <trkpt lat="48.45764" lon="2.78295">
        <ele>56</ele>
        <time>2017-04-09T07:17:07Z</time>
      </trkpt>
      <trkpt lat="48.45773" lon="2.78298">
        <ele>56</ele>
        <time>2017-04-09T07:17:13Z</time>
      </trkpt>
      <trkpt lat="48.45776" lon="2.78305">
        <ele>56</ele>
        <time>2017-04-09T07:17:17Z</time>
      </trkpt>
      <trkpt lat="48.45764" lon="2.78367">
        <ele>56</ele>
        <time>2017-04-09T07:17:48Z</time>
      </trkpt>
      <trkpt lat="48.45757" lon="2.78388">
        <ele>55</ele>
        <time>2017-04-09T07:17:58Z</time>
      </trkpt>
      <trkpt lat="48.45738" lon="2.7843">
        <ele>54</ele>
        <time>2017-04-09T07:18:19Z</time>
      </trkpt>
      <trkpt lat="48.45728" lon="2.78446">
        <ele>54</ele>
        <time>2017-04-09T07:18:28Z</time>
      </trkpt>
      <trkpt lat="48.4572" lon="2.78467">
        <ele>54</ele>
        <time>2017-04-09T07:18:37Z</time>
      </trkpt>
      <trkpt lat="48.45713" lon="2.78498">
        <ele>54</ele>
        <time>2017-04-09T07:18:49Z</time>
      </trkpt>
      <trkpt lat="48.45711" lon="2.78521">
        <ele>55</ele>
        <time>2017-04-09T07:18:58Z</time>
      </trkpt>
      <trkpt lat="48.45707" lon="2.78543">
        <ele>55</ele>
        <time>2017-04-09T07:19:08Z</time>
      </trkpt>
      <trkpt lat="48.45694" lon="2.78564">
        <ele>55</ele>
        <time>2017-04-09T07:19:20Z</time>
      </trkpt>
      <trkpt lat="48.45671" lon="2.7859">
        <ele>54</ele>
        <time>2017-04-09T07:19:37Z</time>
      </trkpt>
      <trkpt lat="48.45647" lon="2.78634">
        <ele>55</ele>
        <time>2017-04-09T07:19:59Z</time>
      </trkpt>
      <trkpt lat="48.45626" lon="2.78689">
        <ele>56</ele>
        <time>2017-04-09T07:20:25Z</time>
      </trkpt>
      <trkpt lat="48.45624" lon="2.78704">
        <ele>55</ele>
        <time>2017-04-09T07:20:31Z</time>
      </trkpt>
      <trkpt lat="48.45622" lon="2.78711">
        <ele>55</ele>
        <time>2017-04-09T07:20:34Z</time>
      </trkpt>
      <trkpt lat="48.45622" lon="2.78735">
        <ele>56</ele>
        <time>2017-04-09T07:20:43Z</time>
      </trkpt>
      <trkpt lat="48.45628" lon="2.7875">
        <ele>56</ele>
        <time>2017-04-09T07:20:49Z</time>
      </trkpt>
      <trkpt lat="48.45635" lon="2.78762">
        <ele>56</ele>
        <time>2017-04-09T07:20:55Z</time>
      </trkpt>
      <trkpt lat="48.45658" lon="2.78787">
        <ele>55</ele>
        <time>2017-04-09T07:21:12Z</time>
      </trkpt>
      <trkpt lat="48.45664" lon="2.78791">
        <ele>54</ele>
        <time>2017-04-09T07:21:16Z</time>
      </trkpt>
      <trkpt lat="48.45673" lon="2.78797">
        <ele>55</ele>
        <time>2017-04-09T07:21:22Z</time>
      </trkpt>
      <trkpt lat="48.45682" lon="2.78805">
        <ele>54</ele>
        <time>2017-04-09T07:21:29Z</time>
      </trkpt>
      <trkpt lat="48.45686" lon="2.7881">
        <ele>54</ele>
        <time>2017-04-09T07:21:32Z</time>
      </trkpt>
      <trkpt lat="48.45703" lon="2.78838">
        <ele>54</ele>
        <time>2017-04-09T07:21:47Z</time>
      </trkpt>
      <trkpt lat="48.4571" lon="2.78859">
        <ele>53</ele>
        <time>2017-04-09T07:21:57Z</time>
      </trkpt>
      <trkpt lat="48.45712" lon="2.78881">
        <ele>54</ele>
        <time>2017-04-09T07:22:06Z</time>
      </trkpt>
      <trkpt lat="48.45712" lon="2.78888">
        <ele>54</ele>
        <time>2017-04-09T07:22:09Z</time>
      </trkpt>
      <trkpt lat="48.45713" lon="2.78895">
        <ele>55</ele>
        <time>2017-04-09T07:22:14Z</time>
      </trkpt>
      <trkpt lat="48.45717" lon="2.78908">
        <ele>56</ele>
        <time>2017-04-09T07:22:25Z</time>
      </trkpt>
      <trkpt lat="48.45716" lon="2.78924">
        <ele>57</ele>
        <time>2017-04-09T07:22:34Z</time>
      </trkpt>
      <trkpt lat="48.45697" lon="2.78948">
        <ele>61</ele>
        <time>2017-04-09T07:23:03Z</time>
      </trkpt>
      <trkpt lat="48.4567" lon="2.78971">
        <ele>66</ele>
        <time>2017-04-09T07:23:34Z</time>
      </trkpt>
      <trkpt lat="48.45666" lon="2.78975">
        <ele>67</ele>
        <time>2017-04-09T07:23:39Z</time>
      </trkpt>
      <trkpt lat="48.45662" lon="2.78978">
        <ele>67</ele>
        <time>2017-04-09T07:23:43Z</time>
      </trkpt>
      <trkpt lat="48.45657" lon="2.78981">
        <ele>68</ele>
        <time>2017-04-09T07:23:48Z</time>
      </trkpt>
      <trkpt lat="48.45653" lon="2.78985">
        <ele>69</ele>
        <time>2017-04-09T07:23:52Z</time>
      </trkpt>
      <trkpt lat="48.45651" lon="2.78992">
        <ele>70</ele>
        <time>2017-04-09T07:23:58Z</time>
      </trkpt>
      <trkpt lat="48.45648" lon="2.78998">
        <ele>71</ele>
        <time>2017-04-09T07:24:04Z</time>
      </trkpt>
      <trkpt lat="48.45637" lon="2.79035">
        <ele>75</ele>
        <time>2017-04-09T07:24:24Z</time>
      </trkpt>
      <trkpt lat="48.45637" lon="2.79059">
        <ele>76</ele>
        <time>2017-04-09T07:24:35Z</time>
      </trkpt>
      <trkpt lat="48.45635" lon="2.79067">
        <ele>77</ele>
        <time>2017-04-09T07:24:39Z</time>
      </trkpt>
      <trkpt lat="48.4563" lon="2.7908">
        <ele>78</ele>
        <time>2017-04-09T07:24:46Z</time>
      </trkpt>
      <trkpt lat="48.45629" lon="2.79096">
        <ele>79</ele>
        <time>2017-04-09T07:24:54Z</time>
      </trkpt>
      <trkpt lat="48.4563" lon="2.79104">
        <ele>79</ele>
        <time>2017-04-09T07:24:58Z</time>
      </trkpt>
      <trkpt lat="48.4563" lon="2.7912">
        <ele>80</ele>
        <time>2017-04-09T07:25:06Z</time>
      </trkpt>
      <trkpt lat="48.45625" lon="2.79136">
        <ele>81</ele>
        <time>2017-04-09T07:25:15Z</time>
      </trkpt>
      <trkpt lat="48.45624" lon="2.79151">
        <ele>82</ele>
        <time>2017-04-09T07:25:23Z</time>
      </trkpt>
      <trkpt lat="48.45625" lon="2.79159">
        <ele>82</ele>
        <time>2017-04-09T07:25:28Z</time>
      </trkpt>
      <trkpt lat="48.45629" lon="2.79166">
        <ele>82</ele>
        <time>2017-04-09T07:25:32Z</time>
      </trkpt>
      <trkpt lat="48.45629" lon="2.79181">
        <ele>83</ele>
        <time>2017-04-09T07:25:40Z</time>
      </trkpt>
      <trkpt lat="48.45627" lon="2.79196">
        <ele>84</ele>
        <time>2017-04-09T07:25:48Z</time>
      </trkpt>
      <trkpt lat="48.4563" lon="2.79211">
        <ele>84</ele>
        <time>2017-04-09T07:25:55Z</time>
      </trkpt>
      <trkpt lat="48.45628" lon="2.79234">
        <ele>85</ele>
        <time>2017-04-09T07:26:08Z</time>
      </trkpt>
      <trkpt lat="48.45624" lon="2.79251">
        <ele>85</ele>
        <time>2017-04-09T07:26:15Z</time>
      </trkpt>
      <trkpt lat="48.45624" lon="2.79259">
        <ele>85</ele>
        <time>2017-04-09T07:26:19Z</time>
      </trkpt>
      <trkpt lat="48.45627" lon="2.79264">
        <ele>86</ele>
        <time>2017-04-09T07:26:23Z</time>
      </trkpt>
      <trkpt lat="48.45626" lon="2.79286">
        <ele>86</ele>
        <time>2017-04-09T07:26:33Z</time>
      </trkpt>
      <trkpt lat="48.45623" lon="2.79294">
        <ele>86</ele>
        <time>2017-04-09T07:26:37Z</time>
      </trkpt>
      <trkpt lat="48.45623" lon="2.79302">
        <ele>87</ele>
        <time>2017-04-09T07:26:41Z</time>
      </trkpt>
      <trkpt lat="48.45626" lon="2.79316">
        <ele>87</ele>
        <time>2017-04-09T07:26:49Z</time>
      </trkpt>
      <trkpt lat="48.45625" lon="2.79322">
        <ele>88</ele>
        <time>2017-04-09T07:26:54Z</time>
      </trkpt>
      <trkpt lat="48.45624" lon="2.79329">
        <ele>88</ele>
        <time>2017-04-09T07:26:57Z</time>
      </trkpt>
      <trkpt lat="48.45631" lon="2.7938">
        <ele>90</ele>
        <time>2017-04-09T07:27:23Z</time>
      </trkpt>
      <trkpt lat="48.4563" lon="2.79387">
        <ele>90</ele>
        <time>2017-04-09T07:27:26Z</time>
      </trkpt>
      <trkpt lat="48.45636" lon="2.79416">
        <ele>92</ele>
        <time>2017-04-09T07:27:41Z</time>
      </trkpt>
      <trkpt lat="48.45639" lon="2.79422">
        <ele>92</ele>
        <time>2017-04-09T07:27:45Z</time>
      </trkpt>
      <trkpt lat="48.45641" lon="2.79429">
        <ele>92</ele>
        <time>2017-04-09T07:27:50Z</time>
      </trkpt>
      <trkpt lat="48.45643" lon="2.79435">
        <ele>93</ele>
        <time>2017-04-09T07:27:54Z</time>
      </trkpt>
      <trkpt lat="48.45643" lon="2.79443">
        <ele>93</ele>
        <time>2017-04-09T07:28:06Z</time>
      </trkpt>
      <trkpt lat="48.45643" lon="2.79448">
        <ele>94</ele>
        <time>2017-04-09T07:35:45Z</time>
      </trkpt>
      <trkpt lat="48.45651" lon="2.79444">
        <ele>93</ele>
        <time>2017-04-09T07:37:12Z</time>
      </trkpt>
      <trkpt lat="48.45657" lon="2.79447">
        <ele>93</ele>
        <time>2017-04-09T07:39:21Z</time>
      </trkpt>
      <trkpt lat="48.4566" lon="2.79453">
        <ele>93</ele>
        <time>2017-04-09T07:39:24Z</time>
      </trkpt>
      <trkpt lat="48.45659" lon="2.79464">
        <ele>94</ele>
        <time>2017-04-09T07:39:33Z</time>
      </trkpt>
      <trkpt lat="48.4566" lon="2.79487">
        <ele>94</ele>
        <time>2017-04-09T07:39:43Z</time>
      </trkpt>
      <trkpt lat="48.45669" lon="2.7953">
        <ele>94</ele>
        <time>2017-04-09T07:40:00Z</time>
      </trkpt>
      <trkpt lat="48.4569" lon="2.79578">
        <ele>94</ele>
        <time>2017-04-09T07:40:24Z</time>
      </trkpt>
      <trkpt lat="48.45698" lon="2.79588">
        <ele>94</ele>
        <time>2017-04-09T07:40:31Z</time>
      </trkpt>
      <trkpt lat="48.45703" lon="2.79589">
        <ele>94</ele>
        <time>2017-04-09T07:40:35Z</time>
      </trkpt>
      <trkpt lat="48.4571" lon="2.79579">
        <ele>94</ele>
        <time>2017-04-09T07:40:41Z</time>
      </trkpt>
      <trkpt lat="48.45715" lon="2.79575">
        <ele>94</ele>
        <time>2017-04-09T07:40:45Z</time>
      </trkpt>
      <trkpt lat="48.45749" lon="2.79577">
        <ele>94</ele>
        <time>2017-04-09T07:41:07Z</time>
      </trkpt>
      <trkpt lat="48.45754" lon="2.7958">
        <ele>94</ele>
        <time>2017-04-09T07:41:10Z</time>
      </trkpt>
      <trkpt lat="48.45774" lon="2.79583">
        <ele>93</ele>
        <time>2017-04-09T07:41:25Z</time>
      </trkpt>
      <trkpt lat="48.45782" lon="2.79594">
        <ele>93</ele>
        <time>2017-04-09T07:41:31Z</time>
      </trkpt>
      <trkpt lat="48.45796" lon="2.79604">
        <ele>93</ele>
        <time>2017-04-09T07:41:40Z</time>
      </trkpt>
      <trkpt lat="48.45805" lon="2.79609">
        <ele>93</ele>
        <time>2017-04-09T07:41:46Z</time>
      </trkpt>
      <trkpt lat="48.45819" lon="2.79621">
        <ele>94</ele>
        <time>2017-04-09T07:41:57Z</time>
      </trkpt>
      <trkpt lat="48.45825" lon="2.79642">
        <ele>94</ele>
        <time>2017-04-09T07:42:08Z</time>
      </trkpt>
      <trkpt lat="48.45829" lon="2.79647">
        <ele>94</ele>
        <time>2017-04-09T07:42:12Z</time>
      </trkpt>
      <trkpt lat="48.45847" lon="2.79695">
        <ele>94</ele>
        <time>2017-04-09T07:42:36Z</time>
      </trkpt>
      <trkpt lat="48.4585" lon="2.79709">
        <ele>94</ele>
        <time>2017-04-09T07:42:42Z</time>
      </trkpt>
      <trkpt lat="48.45857" lon="2.7972">
        <ele>95</ele>
        <time>2017-04-09T07:42:48Z</time>
      </trkpt>
      <trkpt lat="48.45861" lon="2.79725">
        <ele>95</ele>
        <time>2017-04-09T07:42:51Z</time>
      </trkpt>
      <trkpt lat="48.45864" lon="2.79731">
        <ele>95</ele>
        <time>2017-04-09T07:42:54Z</time>
      </trkpt>
      <trkpt lat="48.45866" lon="2.7974">
        <ele>95</ele>
        <time>2017-04-09T07:42:58Z</time>
      </trkpt>
      <trkpt lat="48.45869" lon="2.79746">
        <ele>95</ele>
        <time>2017-04-09T07:43:02Z</time>
      </trkpt>
      <trkpt lat="48.45873" lon="2.79759">
        <ele>95</ele>
        <time>2017-04-09T07:43:08Z</time>
      </trkpt>
      <trkpt lat="48.45902" lon="2.79812">
        <ele>96</ele>
        <time>2017-04-09T07:43:35Z</time>
      </trkpt>
      <trkpt lat="48.45919" lon="2.79863">
        <ele>97</ele>
        <time>2017-04-09T07:44:00Z</time>
      </trkpt>
      <trkpt lat="48.45922" lon="2.79869">
        <ele>97</ele>
        <time>2017-04-09T07:44:03Z</time>
      </trkpt>
      <trkpt lat="48.45936" lon="2.79895">
        <ele>97</ele>
        <time>2017-04-09T07:44:19Z</time>
      </trkpt>
      <trkpt lat="48.45953" lon="2.79912">
        <ele>97</ele>
        <time>2017-04-09T07:44:32Z</time>
      </trkpt>
      <trkpt lat="48.45957" lon="2.79914">
        <ele>98</ele>
        <time>2017-04-09T07:44:36Z</time>
      </trkpt>
      <trkpt lat="48.45961" lon="2.79918">
        <ele>98</ele>
        <time>2017-04-09T07:44:40Z</time>
      </trkpt>
      <trkpt lat="48.45965" lon="2.79925">
        <ele>98</ele>
        <time>2017-04-09T07:44:44Z</time>
      </trkpt>
      <trkpt lat="48.45968" lon="2.79932">
        <ele>98</ele>
        <time>2017-04-09T07:44:48Z</time>
      </trkpt>
      <trkpt lat="48.45972" lon="2.79936">
        <ele>97</ele>
        <time>2017-04-09T07:44:51Z</time>
      </trkpt>
      <trkpt lat="48.45987" lon="2.79942">
        <ele>97</ele>
        <time>2017-04-09T07:45:02Z</time>
      </trkpt>
      <trkpt lat="48.45991" lon="2.79947">
        <ele>96</ele>
        <time>2017-04-09T07:45:06Z</time>
      </trkpt>
      <trkpt lat="48.45989" lon="2.79954">
        <ele>96</ele>
        <time>2017-04-09T07:45:13Z</time>
      </trkpt>
      <trkpt lat="48.45986" lon="2.79959">
        <ele>96</ele>
        <time>2017-04-09T07:45:21Z</time>
      </trkpt>
      <trkpt lat="48.4599" lon="2.79966">
        <ele>95</ele>
        <time>2017-04-09T07:45:42Z</time>
      </trkpt>
      <trkpt lat="48.45992" lon="2.79969">
        <ele>95</ele>
        <time>2017-04-09T07:48:45Z</time>
      </trkpt>
      <trkpt lat="48.45994" lon="2.79977">
        <ele>93</ele>
        <time>2017-04-09T07:48:50Z</time>
      </trkpt>
      <trkpt lat="48.45997" lon="2.79983">
        <ele>93</ele>
        <time>2017-04-09T07:48:55Z</time>
      </trkpt>
      <trkpt lat="48.45999" lon="2.80006">
        <ele>93</ele>
        <time>2017-04-09T07:49:06Z</time>
      </trkpt>
      <trkpt lat="48.45999" lon="2.80014">
        <ele>93</ele>
        <time>2017-04-09T07:49:10Z</time>
      </trkpt>
      <trkpt lat="48.46006" lon="2.80041">
        <ele>93</ele>
        <time>2017-04-09T07:49:23Z</time>
      </trkpt>
      <trkpt lat="48.46011" lon="2.80062">
        <ele>94</ele>
        <time>2017-04-09T07:49:32Z</time>
      </trkpt>
      <trkpt lat="48.46019" lon="2.80075">
        <ele>94</ele>
        <time>2017-04-09T07:49:39Z</time>
      </trkpt>
      <trkpt lat="48.46021" lon="2.80082">
        <ele>94</ele>
        <time>2017-04-09T07:49:42Z</time>
      </trkpt>
      <trkpt lat="48.46021" lon="2.80099">
        <ele>94</ele>
        <time>2017-04-09T07:49:50Z</time>
      </trkpt>
      <trkpt lat="48.46019" lon="2.80108">
        <ele>94</ele>
        <time>2017-04-09T07:49:54Z</time>
      </trkpt>
      <trkpt lat="48.46019" lon="2.80122">
        <ele>95</ele>
        <time>2017-04-09T07:50:00Z</time>
      </trkpt>
      <trkpt lat="48.46017" lon="2.80129">
        <ele>95</ele>
        <time>2017-04-09T07:50:03Z</time>
      </trkpt>
      <trkpt lat="48.46017" lon="2.80137">
        <ele>95</ele>
        <time>2017-04-09T07:50:06Z</time>
      </trkpt>
      <trkpt lat="48.46024" lon="2.80165">
        <ele>95</ele>
        <time>2017-04-09T07:50:18Z</time>
      </trkpt>
      <trkpt lat="48.46028" lon="2.80168">
        <ele>95</ele>
        <time>2017-04-09T07:50:21Z</time>
      </trkpt>
      <trkpt lat="48.46039" lon="2.8017">
        <ele>95</ele>
        <time>2017-04-09T07:50:27Z</time>
      </trkpt>
      <trkpt lat="48.4605" lon="2.80171">
        <ele>95</ele>
        <time>2017-04-09T07:50:34Z</time>
      </trkpt>
      <trkpt lat="48.46066" lon="2.80177">
        <ele>96</ele>
        <time>2017-04-09T07:50:45Z</time>
      </trkpt>
      <trkpt lat="48.4607" lon="2.80176">
        <ele>96</ele>
        <time>2017-04-09T07:50:48Z</time>
      </trkpt>
      <trkpt lat="48.46083" lon="2.80164">
        <ele>96</ele>
        <time>2017-04-09T07:50:57Z</time>
      </trkpt>
      <trkpt lat="48.46087" lon="2.8016">
        <ele>96</ele>
        <time>2017-04-09T07:51:00Z</time>
      </trkpt>
      <trkpt lat="48.46109" lon="2.80141">
        <ele>95</ele>
        <time>2017-04-09T07:51:15Z</time>
      </trkpt>
      <trkpt lat="48.46125" lon="2.80124">
        <ele>94</ele>
        <time>2017-04-09T07:51:27Z</time>
      </trkpt>
      <trkpt lat="48.46148" lon="2.80104">
        <ele>93</ele>
        <time>2017-04-09T07:51:47Z</time>
      </trkpt>
      <trkpt lat="48.46187" lon="2.80052">
        <ele>90</ele>
        <time>2017-04-09T07:52:20Z</time>
      </trkpt>
      <trkpt lat="48.46216" lon="2.7999">
        <ele>88</ele>
        <time>2017-04-09T07:52:50Z</time>
      </trkpt>
      <trkpt lat="48.4623" lon="2.79962">
        <ele>87</ele>
        <time>2017-04-09T07:53:04Z</time>
      </trkpt>
      <trkpt lat="48.46234" lon="2.79957">
        <ele>87</ele>
        <time>2017-04-09T07:53:08Z</time>
      </trkpt>
      <trkpt lat="48.46239" lon="2.79954">
        <ele>87</ele>
        <time>2017-04-09T07:53:13Z</time>
      </trkpt>
      <trkpt lat="48.46244" lon="2.79952">
        <ele>86</ele>
        <time>2017-04-09T07:53:17Z</time>
      </trkpt>
      <trkpt lat="48.46255" lon="2.79953">
        <ele>85</ele>
        <time>2017-04-09T07:53:25Z</time>
      </trkpt>
      <trkpt lat="48.4626" lon="2.79951">
        <ele>85</ele>
        <time>2017-04-09T07:53:29Z</time>
      </trkpt>
      <trkpt lat="48.46266" lon="2.79952">
        <ele>85</ele>
        <time>2017-04-09T07:53:33Z</time>
      </trkpt>
      <trkpt lat="48.46271" lon="2.79955">
        <ele>84</ele>
        <time>2017-04-09T07:53:36Z</time>
      </trkpt>
      <trkpt lat="48.46274" lon="2.79962">
        <ele>84</ele>
        <time>2017-04-09T07:53:40Z</time>
      </trkpt>
      <trkpt lat="48.46296" lon="2.79985">
        <ele>82</ele>
        <time>2017-04-09T07:53:55Z</time>
      </trkpt>
      <trkpt lat="48.46331" lon="2.80046">
        <ele>81</ele>
        <time>2017-04-09T07:54:27Z</time>
      </trkpt>
      <trkpt lat="48.46335" lon="2.8005">
        <ele>81</ele>
        <time>2017-04-09T07:54:30Z</time>
      </trkpt>
      <trkpt lat="48.4634" lon="2.80053">
        <ele>81</ele>
        <time>2017-04-09T07:54:33Z</time>
      </trkpt>
      <trkpt lat="48.4635" lon="2.80055">
        <ele>81</ele>
        <time>2017-04-09T07:54:39Z</time>
      </trkpt>
      <trkpt lat="48.46362" lon="2.80054">
        <ele>81</ele>
        <time>2017-04-09T07:54:45Z</time>
      </trkpt>
      <trkpt lat="48.4637" lon="2.80054">
        <ele>80</ele>
        <time>2017-04-09T07:54:50Z</time>
      </trkpt>
      <trkpt lat="48.46374" lon="2.80059">
        <ele>80</ele>
        <time>2017-04-09T07:54:53Z</time>
      </trkpt>
      <trkpt lat="48.4638" lon="2.80071">
        <ele>80</ele>
        <time>2017-04-09T07:54:59Z</time>
      </trkpt>
      <trkpt lat="48.46384" lon="2.80077">
        <ele>80</ele>
        <time>2017-04-09T07:55:02Z</time>
      </trkpt>
      <trkpt lat="48.46388" lon="2.80078">
        <ele>81</ele>
        <time>2017-04-09T07:55:05Z</time>
      </trkpt>
      <trkpt lat="48.46393" lon="2.80078">
        <ele>81</ele>
        <time>2017-04-09T07:55:08Z</time>
      </trkpt>
      <trkpt lat="48.46398" lon="2.80081">
        <ele>81</ele>
        <time>2017-04-09T07:55:12Z</time>
      </trkpt>
      <trkpt lat="48.46406" lon="2.8009">
        <ele>81</ele>
        <time>2017-04-09T07:55:19Z</time>
      </trkpt>
      <trkpt lat="48.46416" lon="2.80108">
        <ele>80</ele>
        <time>2017-04-09T07:55:30Z</time>
      </trkpt>
      <trkpt lat="48.46424" lon="2.80142">
        <ele>79</ele>
        <time>2017-04-09T07:55:46Z</time>
      </trkpt>
      <trkpt lat="48.46427" lon="2.80175">
        <ele>78</ele>
        <time>2017-04-09T07:56:02Z</time>
      </trkpt>
      <trkpt lat="48.46426" lon="2.80182">
        <ele>77</ele>
        <time>2017-04-09T07:56:05Z</time>
      </trkpt>
      <trkpt lat="48.46427" lon="2.8019">
        <ele>77</ele>
        <time>2017-04-09T07:56:09Z</time>
      </trkpt>
      <trkpt lat="48.4643" lon="2.80198">
        <ele>76</ele>
        <time>2017-04-09T07:56:13Z</time>
      </trkpt>
      <trkpt lat="48.46443" lon="2.80231">
        <ele>75</ele>
        <time>2017-04-09T07:56:28Z</time>
      </trkpt>
      <trkpt lat="48.46454" lon="2.80271">
        <ele>74</ele>
        <time>2017-04-09T07:56:51Z</time>
      </trkpt>
      <trkpt lat="48.46453" lon="2.80286">
        <ele>73</ele>
        <time>2017-04-09T07:56:59Z</time>
      </trkpt>
      <trkpt lat="48.46469" lon="2.80305">
        <ele>73</ele>
        <time>2017-04-09T07:57:11Z</time>
      </trkpt>
      <trkpt lat="48.46474" lon="2.80317">
        <ele>73</ele>
        <time>2017-04-09T07:57:18Z</time>
      </trkpt>
      <trkpt lat="48.46496" lon="2.80347">
        <ele>73</ele>
        <time>2017-04-09T07:57:34Z</time>
      </trkpt>
      <trkpt lat="48.46498" lon="2.80361">
        <ele>73</ele>
        <time>2017-04-09T07:57:41Z</time>
      </trkpt>
      <trkpt lat="48.46503" lon="2.80374">
        <ele>74</ele>
        <time>2017-04-09T07:57:48Z</time>
      </trkpt>
      <trkpt lat="48.46506" lon="2.80389">
        <ele>74</ele>
        <time>2017-04-09T07:57:55Z</time>
      </trkpt>
      <trkpt lat="48.46523" lon="2.80426">
        <ele>76</ele>
        <time>2017-04-09T07:58:17Z</time>
      </trkpt>
      <trkpt lat="48.46531" lon="2.80436">
        <ele>76</ele>
        <time>2017-04-09T07:58:24Z</time>
      </trkpt>
      <trkpt lat="48.46537" lon="2.80446">
        <ele>77</ele>
        <time>2017-04-09T07:58:30Z</time>
      </trkpt>
      <trkpt lat="48.46542" lon="2.80459">
        <ele>77</ele>
        <time>2017-04-09T07:58:36Z</time>
      </trkpt>
      <trkpt lat="48.46545" lon="2.80466">
        <ele>78</ele>
        <time>2017-04-09T07:58:40Z</time>
      </trkpt>
      <trkpt lat="48.46558" lon="2.80514">
        <ele>81</ele>
        <time>2017-04-09T07:59:05Z</time>
      </trkpt>
      <trkpt lat="48.46561" lon="2.80519">
        <ele>81</ele>
        <time>2017-04-09T07:59:09Z</time>
      </trkpt>
      <trkpt lat="48.46573" lon="2.80547">
        <ele>83</ele>
        <time>2017-04-09T07:59:24Z</time>
      </trkpt>
      <trkpt lat="48.46575" lon="2.80562">
        <ele>84</ele>
        <time>2017-04-09T07:59:32Z</time>
      </trkpt>
      <trkpt lat="48.46575" lon="2.80569">
        <ele>85</ele>
        <time>2017-04-09T07:59:36Z</time>
      </trkpt>
      <trkpt lat="48.46576" lon="2.80578">
        <ele>85</ele>
        <time>2017-04-09T07:59:40Z</time>
      </trkpt>
      <trkpt lat="48.46575" lon="2.80585">
        <ele>83</ele>
        <time>2017-04-09T07:59:44Z</time>
      </trkpt>
      <trkpt lat="48.46571" lon="2.80591">
        <ele>82</ele>
        <time>2017-04-09T07:59:47Z</time>
      </trkpt>
      <trkpt lat="48.46567" lon="2.80593">
        <ele>81</ele>
        <time>2017-04-09T07:59:50Z</time>
      </trkpt>
      <trkpt lat="48.46563" lon="2.80595">
        <ele>81</ele>
        <time>2017-04-09T07:59:53Z</time>
      </trkpt>
      <trkpt lat="48.46558" lon="2.80598">
        <ele>81</ele>
        <time>2017-04-09T07:59:57Z</time>
      </trkpt>
      <trkpt lat="48.46553" lon="2.80601">
        <ele>81</ele>
        <time>2017-04-09T08:00:02Z</time>
      </trkpt>
      <trkpt lat="48.46544" lon="2.8061">
        <ele>83</ele>
        <time>2017-04-09T08:00:11Z</time>
      </trkpt>
      <trkpt lat="48.46534" lon="2.80613">
        <ele>84</ele>
        <time>2017-04-09T08:00:18Z</time>
      </trkpt>
      <trkpt lat="48.46518" lon="2.80613">
        <ele>86</ele>
        <time>2017-04-09T08:00:35Z</time>
      </trkpt>
      <trkpt lat="48.46508" lon="2.8062">
        <ele>87</ele>
        <time>2017-04-09T08:00:44Z</time>
      </trkpt>
      <trkpt lat="48.46507" lon="2.80627">
        <ele>88</ele>
        <time>2017-04-09T08:00:50Z</time>
      </trkpt>
      <trkpt lat="48.46508" lon="2.80636">
        <ele>89</ele>
        <time>2017-04-09T08:00:56Z</time>
      </trkpt>
      <trkpt lat="48.46508" lon="2.80643">
        <ele>89</ele>
        <time>2017-04-09T08:01:01Z</time>
      </trkpt>
      <trkpt lat="48.46509" lon="2.8065">
        <ele>90</ele>
        <time>2017-04-09T08:01:05Z</time>
      </trkpt>
      <trkpt lat="48.4651" lon="2.80659">
        <ele>90</ele>
        <time>2017-04-09T08:01:10Z</time>
      </trkpt>
      <trkpt lat="48.46513" lon="2.80666">
        <ele>90</ele>
        <time>2017-04-09T08:01:15Z</time>
      </trkpt>
      <trkpt lat="48.46511" lon="2.8068">
        <ele>90</ele>
        <time>2017-04-09T08:01:21Z</time>
      </trkpt>
      <trkpt lat="48.46513" lon="2.80688">
        <ele>90</ele>
        <time>2017-04-09T08:01:25Z</time>
      </trkpt>
      <trkpt lat="48.46512" lon="2.80696">
        <ele>90</ele>
        <time>2017-04-09T08:01:28Z</time>
      </trkpt>
      <trkpt lat="48.46514" lon="2.80729">
        <ele>90</ele>
        <time>2017-04-09T08:01:43Z</time>
      </trkpt>
      <trkpt lat="48.46513" lon="2.80736">
        <ele>90</ele>
        <time>2017-04-09T08:01:46Z</time>
      </trkpt>
      <trkpt lat="48.46513" lon="2.80744">
        <ele>90</ele>
        <time>2017-04-09T08:01:49Z</time>
      </trkpt>
      <trkpt lat="48.46511" lon="2.8076">
        <ele>90</ele>
        <time>2017-04-09T08:01:55Z</time>
      </trkpt>
      <trkpt lat="48.46512" lon="2.80767">
        <ele>90</ele>
        <time>2017-04-09T08:01:59Z</time>
      </trkpt>
      <trkpt lat="48.46507" lon="2.8081">
        <ele>91</ele>
        <time>2017-04-09T08:02:18Z</time>
      </trkpt>
      <trkpt lat="48.46504" lon="2.80817">
        <ele>90</ele>
        <time>2017-04-09T08:02:21Z</time>
      </trkpt>
      <trkpt lat="48.46503" lon="2.80833">
        <ele>90</ele>
        <time>2017-04-09T08:02:27Z</time>
      </trkpt>
      <trkpt lat="48.46503" lon="2.80841">
        <ele>90</ele>
        <time>2017-04-09T08:02:30Z</time>
      </trkpt>
      <trkpt lat="48.46503" lon="2.8085">
        <ele>90</ele>
        <time>2017-04-09T08:02:34Z</time>
      </trkpt>
      <trkpt lat="48.46502" lon="2.80857">
        <ele>90</ele>
        <time>2017-04-09T08:02:37Z</time>
      </trkpt>
      <trkpt lat="48.46502" lon="2.80864">
        <ele>90</ele>
        <time>2017-04-09T08:02:40Z</time>
      </trkpt>
      <trkpt lat="48.46504" lon="2.80888">
        <ele>90</ele>
        <time>2017-04-09T08:02:50Z</time>
      </trkpt>
      <trkpt lat="48.46505" lon="2.80898">
        <ele>90</ele>
        <time>2017-04-09T08:02:54Z</time>
      </trkpt>
      <trkpt lat="48.46508" lon="2.80904">
        <ele>90</ele>
        <time>2017-04-09T08:02:59Z</time>
      </trkpt>
      <trkpt lat="48.46505" lon="2.80952">
        <ele>90</ele>
        <time>2017-04-09T08:03:16Z</time>
      </trkpt>
      <trkpt lat="48.46508" lon="2.80967">
        <ele>90</ele>
        <time>2017-04-09T08:03:22Z</time>
      </trkpt>
      <trkpt lat="48.4651" lon="2.81007">
        <ele>91</ele>
        <time>2017-04-09T08:03:39Z</time>
      </trkpt>
      <trkpt lat="48.46511" lon="2.81016">
        <ele>90</ele>
        <time>2017-04-09T08:03:44Z</time>
      </trkpt>
      <trkpt lat="48.46514" lon="2.81021">
        <ele>90</ele>
        <time>2017-04-09T08:03:47Z</time>
      </trkpt>
      <trkpt lat="48.46515" lon="2.8103">
        <ele>90</ele>
        <time>2017-04-09T08:03:51Z</time>
      </trkpt>
      <trkpt lat="48.46515" lon="2.81037">
        <ele>90</ele>
        <time>2017-04-09T08:03:54Z</time>
      </trkpt>
      <trkpt lat="48.46517" lon="2.81046">
        <ele>90</ele>
        <time>2017-04-09T08:03:57Z</time>
      </trkpt>
      <trkpt lat="48.46521" lon="2.81052">
        <ele>90</ele>
        <time>2017-04-09T08:04:00Z</time>
      </trkpt>
      <trkpt lat="48.46545" lon="2.81117">
        <ele>90</ele>
        <time>2017-04-09T08:04:32Z</time>
      </trkpt>
      <trkpt lat="48.46547" lon="2.81124">
        <ele>90</ele>
        <time>2017-04-09T08:04:35Z</time>
      </trkpt>
      <trkpt lat="48.46552" lon="2.81154">
        <ele>88</ele>
        <time>2017-04-09T08:04:49Z</time>
      </trkpt>
      <trkpt lat="48.46558" lon="2.81168">
        <ele>87</ele>
        <time>2017-04-09T08:04:55Z</time>
      </trkpt>
      <trkpt lat="48.46568" lon="2.81179">
        <ele>86</ele>
        <time>2017-04-09T08:05:01Z</time>
      </trkpt>
      <trkpt lat="48.46582" lon="2.8121">
        <ele>84</ele>
        <time>2017-04-09T08:05:14Z</time>
      </trkpt>
      <trkpt lat="48.46587" lon="2.81216">
        <ele>84</ele>
        <time>2017-04-09T08:05:17Z</time>
      </trkpt>
      <trkpt lat="48.46592" lon="2.81218">
        <ele>83</ele>
        <time>2017-04-09T08:05:20Z</time>
      </trkpt>
      <trkpt lat="48.46607" lon="2.81246">
        <ele>81</ele>
        <time>2017-04-09T08:05:33Z</time>
      </trkpt>
      <trkpt lat="48.46609" lon="2.81254">
        <ele>81</ele>
        <time>2017-04-09T08:05:36Z</time>
      </trkpt>
      <trkpt lat="48.46625" lon="2.81271">
        <ele>79</ele>
        <time>2017-04-09T08:05:46Z</time>
      </trkpt>
      <trkpt lat="48.46633" lon="2.81283">
        <ele>78</ele>
        <time>2017-04-09T08:05:52Z</time>
      </trkpt>
      <trkpt lat="48.46643" lon="2.81294">
        <ele>78</ele>
        <time>2017-04-09T08:05:58Z</time>
      </trkpt>
      <trkpt lat="48.46652" lon="2.813">
        <ele>78</ele>
        <time>2017-04-09T08:06:03Z</time>
      </trkpt>
      <trkpt lat="48.46662" lon="2.81303">
        <ele>78</ele>
        <time>2017-04-09T08:06:09Z</time>
      </trkpt>
      <trkpt lat="48.4667" lon="2.8131">
        <ele>78</ele>
        <time>2017-04-09T08:06:15Z</time>
      </trkpt>
      <trkpt lat="48.46675" lon="2.81311">
        <ele>78</ele>
        <time>2017-04-09T08:06:18Z</time>
      </trkpt>
      <trkpt lat="48.46681" lon="2.81311">
        <ele>78</ele>
        <time>2017-04-09T08:06:21Z</time>
      </trkpt>
      <trkpt lat="48.46696" lon="2.81306">
        <ele>78</ele>
        <time>2017-04-09T08:06:30Z</time>
      </trkpt>
      <trkpt lat="48.46702" lon="2.81306">
        <ele>78</ele>
        <time>2017-04-09T08:06:34Z</time>
      </trkpt>
      <trkpt lat="48.46707" lon="2.81307">
        <ele>78</ele>
        <time>2017-04-09T08:06:37Z</time>
      </trkpt>
      <trkpt lat="48.46712" lon="2.8131">
        <ele>78</ele>
        <time>2017-04-09T08:06:40Z</time>
      </trkpt>
      <trkpt lat="48.46722" lon="2.81309">
        <ele>78</ele>
        <time>2017-04-09T08:06:46Z</time>
      </trkpt>
      <trkpt lat="48.46727" lon="2.8131">
        <ele>77</ele>
        <time>2017-04-09T08:06:49Z</time>
      </trkpt>
      <trkpt lat="48.46733" lon="2.81309">
        <ele>77</ele>
        <time>2017-04-09T08:06:53Z</time>
      </trkpt>
      <trkpt lat="48.46741" lon="2.81315">
        <ele>77</ele>
        <time>2017-04-09T08:06:59Z</time>
      </trkpt>
      <trkpt lat="48.46757" lon="2.81326">
        <ele>76</ele>
        <time>2017-04-09T08:07:11Z</time>
      </trkpt>
      <trkpt lat="48.46764" lon="2.81339">
        <ele>77</ele>
        <time>2017-04-09T08:07:19Z</time>
      </trkpt>
      <trkpt lat="48.4677" lon="2.81354">
        <ele>77</ele>
        <time>2017-04-09T08:07:26Z</time>
      </trkpt>
      <trkpt lat="48.46774" lon="2.81374">
        <ele>77</ele>
        <time>2017-04-09T08:07:36Z</time>
      </trkpt>
      <trkpt lat="48.46784" lon="2.81391">
        <ele>77</ele>
        <time>2017-04-09T08:07:47Z</time>
      </trkpt>
      <trkpt lat="48.46788" lon="2.81395">
        <ele>78</ele>
        <time>2017-04-09T08:07:51Z</time>
      </trkpt>
      <trkpt lat="48.46796" lon="2.81414">
        <ele>78</ele>
        <time>2017-04-09T08:08:03Z</time>
      </trkpt>
      <trkpt lat="48.46804" lon="2.81425">
        <ele>79</ele>
        <time>2017-04-09T08:08:10Z</time>
      </trkpt>
      <trkpt lat="48.46806" lon="2.81432">
        <ele>80</ele>
        <time>2017-04-09T08:08:15Z</time>
      </trkpt>
      <trkpt lat="48.46812" lon="2.81443">
        <ele>81</ele>
        <time>2017-04-09T08:08:25Z</time>
      </trkpt>
      <trkpt lat="48.46823" lon="2.81441">
        <ele>82</ele>
        <time>2017-04-09T08:08:33Z</time>
      </trkpt>
      <trkpt lat="48.46829" lon="2.81443">
        <ele>82</ele>
        <time>2017-04-09T08:08:37Z</time>
      </trkpt>
      <trkpt lat="48.46855" lon="2.8144">
        <ele>85</ele>
        <time>2017-04-09T08:08:54Z</time>
      </trkpt>
      <trkpt lat="48.46874" lon="2.8143">
        <ele>87</ele>
        <time>2017-04-09T08:09:07Z</time>
      </trkpt>
      <trkpt lat="48.46883" lon="2.81431">
        <ele>88</ele>
        <time>2017-04-09T08:09:15Z</time>
      </trkpt>
      <trkpt lat="48.46891" lon="2.81426">
        <ele>89</ele>
        <time>2017-04-09T08:09:21Z</time>
      </trkpt>
      <trkpt lat="48.4693" lon="2.8142">
        <ele>93</ele>
        <time>2017-04-09T08:09:46Z</time>
      </trkpt>
      <trkpt lat="48.46951" lon="2.81405">
        <ele>95</ele>
        <time>2017-04-09T08:09:58Z</time>
      </trkpt>
      <trkpt lat="48.46961" lon="2.81407">
        <ele>96</ele>
        <time>2017-04-09T08:10:05Z</time>
      </trkpt>
      <trkpt lat="48.46999" lon="2.81392">
        <ele>99</ele>
        <time>2017-04-09T08:10:30Z</time>
      </trkpt>
      <trkpt lat="48.47003" lon="2.81391">
        <ele>99</ele>
        <time>2017-04-09T08:10:33Z</time>
      </trkpt>
      <trkpt lat="48.47027" lon="2.81379">
        <ele>96</ele>
        <time>2017-04-09T08:10:48Z</time>
      </trkpt>
      <trkpt lat="48.47036" lon="2.81375">
        <ele>95</ele>
        <time>2017-04-09T08:10:54Z</time>
      </trkpt>
      <trkpt lat="48.47062" lon="2.81364">
        <ele>96</ele>
        <time>2017-04-09T08:11:10Z</time>
      </trkpt>
      <trkpt lat="48.4711" lon="2.81351">
        <ele>98</ele>
        <time>2017-04-09T08:11:41Z</time>
      </trkpt>
      <trkpt lat="48.47115" lon="2.81351">
        <ele>98</ele>
        <time>2017-04-09T08:11:44Z</time>
      </trkpt>
      <trkpt lat="48.47123" lon="2.81358">
        <ele>99</ele>
        <time>2017-04-09T08:11:50Z</time>
      </trkpt>
      <trkpt lat="48.47129" lon="2.81372">
        <ele>99</ele>
        <time>2017-04-09T08:11:58Z</time>
      </trkpt>
      <trkpt lat="48.4713" lon="2.81378">
        <ele>99</ele>
        <time>2017-04-09T08:12:02Z</time>
      </trkpt>
      <trkpt lat="48.47157" lon="2.81428">
        <ele>100</ele>
        <time>2017-04-09T08:12:29Z</time>
      </trkpt>
      <trkpt lat="48.4716" lon="2.81432">
        <ele>100</ele>
        <time>2017-04-09T08:12:32Z</time>
      </trkpt>
      <trkpt lat="48.47186" lon="2.81484">
        <ele>101</ele>
        <time>2017-04-09T08:13:00Z</time>
      </trkpt>
      <trkpt lat="48.47191" lon="2.81488">
        <ele>101</ele>
        <time>2017-04-09T08:13:03Z</time>
      </trkpt>
      <trkpt lat="48.47225" lon="2.81551">
        <ele>103</ele>
        <time>2017-04-09T08:13:36Z</time>
      </trkpt>
      <trkpt lat="48.4723" lon="2.81564">
        <ele>103</ele>
        <time>2017-04-09T08:13:42Z</time>
      </trkpt>
      <trkpt lat="48.47237" lon="2.81574">
        <ele>103</ele>
        <time>2017-04-09T08:13:48Z</time>
      </trkpt>
      <trkpt lat="48.4724" lon="2.8158">
        <ele>104</ele>
        <time>2017-04-09T08:13:51Z</time>
      </trkpt>
      <trkpt lat="48.47245" lon="2.81584">
        <ele>104</ele>
        <time>2017-04-09T08:13:55Z</time>
      </trkpt>
      <trkpt lat="48.47275" lon="2.81645">
        <ele>104</ele>
        <time>2017-04-09T08:14:26Z</time>
      </trkpt>
      <trkpt lat="48.47279" lon="2.81649">
        <ele>105</ele>
        <time>2017-04-09T08:14:29Z</time>
      </trkpt>
      <trkpt lat="48.4729" lon="2.81667">
        <ele>105</ele>
        <time>2017-04-09T08:14:41Z</time>
      </trkpt>
      <trkpt lat="48.47293" lon="2.81675">
        <ele>105</ele>
        <time>2017-04-09T08:14:45Z</time>
      </trkpt>
      <trkpt lat="48.47302" lon="2.81683">
        <ele>105</ele>
        <time>2017-04-09T08:14:52Z</time>
      </trkpt>
      <trkpt lat="48.47312" lon="2.817">
        <ele>105</ele>
        <time>2017-04-09T08:15:01Z</time>
      </trkpt>
      <trkpt lat="48.47319" lon="2.81721">
        <ele>105</ele>
        <time>2017-04-09T08:15:10Z</time>
      </trkpt>
      <trkpt lat="48.47353" lon="2.81786">
        <ele>105</ele>
        <time>2017-04-09T08:15:42Z</time>
      </trkpt>
      <trkpt lat="48.47371" lon="2.81822">
        <ele>106</ele>
        <time>2017-04-09T08:16:00Z</time>
      </trkpt>
      <trkpt lat="48.47373" lon="2.81828">
        <ele>106</ele>
        <time>2017-04-09T08:16:03Z</time>
      </trkpt>
      <trkpt lat="48.47389" lon="2.81852">
        <ele>106</ele>
        <time>2017-04-09T08:16:16Z</time>
      </trkpt>
      <trkpt lat="48.47391" lon="2.81859">
        <ele>106</ele>
        <time>2017-04-09T08:16:19Z</time>
      </trkpt>
      <trkpt lat="48.47399" lon="2.81871">
        <ele>106</ele>
        <time>2017-04-09T08:16:26Z</time>
      </trkpt>
      <trkpt lat="48.47422" lon="2.8192">
        <ele>107</ele>
        <time>2017-04-09T08:16:50Z</time>
      </trkpt>
      <trkpt lat="48.47429" lon="2.8193">
        <ele>107</ele>
        <time>2017-04-09T08:16:56Z</time>
      </trkpt>
      <trkpt lat="48.47442" lon="2.81953">
        <ele>107</ele>
        <time>2017-04-09T08:17:09Z</time>
      </trkpt>
      <trkpt lat="48.47455" lon="2.81977">
        <ele>108</ele>
        <time>2017-04-09T08:17:21Z</time>
      </trkpt>
      <trkpt lat="48.47458" lon="2.81989">
        <ele>107</ele>
        <time>2017-04-09T08:17:27Z</time>
      </trkpt>
      <trkpt lat="48.47462" lon="2.81996">
        <ele>107</ele>
        <time>2017-04-09T08:17:31Z</time>
      </trkpt>
      <trkpt lat="48.47471" lon="2.82003">
        <ele>107</ele>
        <time>2017-04-09T08:17:38Z</time>
      </trkpt>
      <trkpt lat="48.47496" lon="2.8201">
        <ele>107</ele>
        <time>2017-04-09T08:17:55Z</time>
      </trkpt>
      <trkpt lat="48.47502" lon="2.82007">
        <ele>107</ele>
        <time>2017-04-09T08:17:58Z</time>
      </trkpt>
      <trkpt lat="48.47548" lon="2.81962">
        <ele>107</ele>
        <time>2017-04-09T08:18:29Z</time>
      </trkpt>
      <trkpt lat="48.47551" lon="2.81957">
        <ele>107</ele>
        <time>2017-04-09T08:18:32Z</time>
      </trkpt>
      <trkpt lat="48.47587" lon="2.81924">
        <ele>106</ele>
        <time>2017-04-09T08:18:59Z</time>
      </trkpt>
      <trkpt lat="48.47598" lon="2.81908">
        <ele>106</ele>
        <time>2017-04-09T08:19:07Z</time>
      </trkpt>
      <trkpt lat="48.47623" lon="2.81888">
        <ele>106</ele>
        <time>2017-04-09T08:19:26Z</time>
      </trkpt>
      <trkpt lat="48.47628" lon="2.81888">
        <ele>106</ele>
        <time>2017-04-09T08:19:29Z</time>
      </trkpt>
      <trkpt lat="48.47672" lon="2.81846">
        <ele>106</ele>
        <time>2017-04-09T08:19:59Z</time>
      </trkpt>
      <trkpt lat="48.4768" lon="2.81837">
        <ele>106</ele>
        <time>2017-04-09T08:20:05Z</time>
      </trkpt>
      <trkpt lat="48.47684" lon="2.81832">
        <ele>106</ele>
        <time>2017-04-09T08:20:10Z</time>
      </trkpt>
      <trkpt lat="48.47704" lon="2.81818">
        <ele>106</ele>
        <time>2017-04-09T08:20:21Z</time>
      </trkpt>
      <trkpt lat="48.47747" lon="2.81775">
        <ele>107</ele>
        <time>2017-04-09T08:20:53Z</time>
      </trkpt>
      <trkpt lat="48.47776" lon="2.81743">
        <ele>107</ele>
        <time>2017-04-09T08:21:14Z</time>
      </trkpt>
      <trkpt lat="48.47785" lon="2.81738">
        <ele>107</ele>
        <time>2017-04-09T08:21:20Z</time>
      </trkpt>
      <trkpt lat="48.47816" lon="2.81703">
        <ele>106</ele>
        <time>2017-04-09T08:21:41Z</time>
      </trkpt>
      <trkpt lat="48.47842" lon="2.81687">
        <ele>106</ele>
        <time>2017-04-09T08:21:58Z</time>
      </trkpt>
      <trkpt lat="48.47872" lon="2.81654">
        <ele>106</ele>
        <time>2017-04-09T08:22:19Z</time>
      </trkpt>
      <trkpt lat="48.47877" lon="2.81649">
        <ele>106</ele>
        <time>2017-04-09T08:22:22Z</time>
      </trkpt>
      <trkpt lat="48.47902" lon="2.81617">
        <ele>106</ele>
        <time>2017-04-09T08:22:49Z</time>
      </trkpt>
      <trkpt lat="48.47912" lon="2.8161">
        <ele>106</ele>
        <time>2017-04-09T08:22:57Z</time>
      </trkpt>
      <trkpt lat="48.47921" lon="2.816">
        <ele>106</ele>
        <time>2017-04-09T08:23:05Z</time>
      </trkpt>
      <trkpt lat="48.47932" lon="2.81582">
        <ele>106</ele>
        <time>2017-04-09T08:23:15Z</time>
      </trkpt>
      <trkpt lat="48.47943" lon="2.81576">
        <ele>106</ele>
        <time>2017-04-09T08:23:21Z</time>
      </trkpt>
      <trkpt lat="48.47949" lon="2.81575">
        <ele>106</ele>
        <time>2017-04-09T08:23:24Z</time>
      </trkpt>
      <trkpt lat="48.47996" lon="2.81532">
        <ele>106</ele>
        <time>2017-04-09T08:23:56Z</time>
      </trkpt>
      <trkpt lat="48.48009" lon="2.81519">
        <ele>106</ele>
        <time>2017-04-09T08:24:05Z</time>
      </trkpt>
      <trkpt lat="48.48018" lon="2.81513">
        <ele>106</ele>
        <time>2017-04-09T08:24:11Z</time>
      </trkpt>
      <trkpt lat="48.48058" lon="2.81471">
        <ele>107</ele>
        <time>2017-04-09T08:24:42Z</time>
      </trkpt>
      <trkpt lat="48.48089" lon="2.81445">
        <ele>107</ele>
        <time>2017-04-09T08:25:01Z</time>
      </trkpt>
      <trkpt lat="48.48112" lon="2.81414">
        <ele>106</ele>
        <time>2017-04-09T08:25:20Z</time>
      </trkpt>
      <trkpt lat="48.48116" lon="2.81411">
        <ele>106</ele>
        <time>2017-04-09T08:25:23Z</time>
      </trkpt>
      <trkpt lat="48.4812" lon="2.81407">
        <ele>106</ele>
        <time>2017-04-09T08:25:26Z</time>
      </trkpt>
      <trkpt lat="48.48123" lon="2.81401">
        <ele>106</ele>
        <time>2017-04-09T08:25:29Z</time>
      </trkpt>
      <trkpt lat="48.48126" lon="2.81349">
        <ele>105</ele>
        <time>2017-04-09T08:25:50Z</time>
      </trkpt>
      <trkpt lat="48.48122" lon="2.8132">
        <ele>105</ele>
        <time>2017-04-09T08:26:02Z</time>
      </trkpt>
      <trkpt lat="48.48111" lon="2.81271">
        <ele>104</ele>
        <time>2017-04-09T08:26:23Z</time>
      </trkpt>
      <trkpt lat="48.48107" lon="2.81242">
        <ele>104</ele>
        <time>2017-04-09T08:26:35Z</time>
      </trkpt>
      <trkpt lat="48.48096" lon="2.81164">
        <ele>102</ele>
        <time>2017-04-09T08:27:08Z</time>
      </trkpt>
      <trkpt lat="48.48091" lon="2.81119">
        <ele>102</ele>
        <time>2017-04-09T08:27:29Z</time>
      </trkpt>
      <trkpt lat="48.48086" lon="2.81096">
        <ele>101</ele>
        <time>2017-04-09T08:27:40Z</time>
      </trkpt>
      <trkpt lat="48.48079" lon="2.81022">
        <ele>100</ele>
        <time>2017-04-09T08:28:12Z</time>
      </trkpt>
      <trkpt lat="48.48073" lon="2.80956">
        <ele>98</ele>
        <time>2017-04-09T08:28:40Z</time>
      </trkpt>
      <trkpt lat="48.48069" lon="2.80934">
        <ele>98</ele>
        <time>2017-04-09T08:28:49Z</time>
      </trkpt>
      <trkpt lat="48.4806" lon="2.80863">
        <ele>98</ele>
        <time>2017-04-09T08:29:20Z</time>
      </trkpt>
      <trkpt lat="48.48054" lon="2.80811">
        <ele>98</ele>
        <time>2017-04-09T08:29:42Z</time>
      </trkpt>
      <trkpt lat="48.48049" lon="2.80789">
        <ele>98</ele>
        <time>2017-04-09T08:29:51Z</time>
      </trkpt>
      <trkpt lat="48.48045" lon="2.80767">
        <ele>98</ele>
        <time>2017-04-09T08:30:00Z</time>
      </trkpt>
      <trkpt lat="48.48042" lon="2.80752">
        <ele>98</ele>
        <time>2017-04-09T08:30:07Z</time>
      </trkpt>
      <trkpt lat="48.48043" lon="2.80743">
        <ele>98</ele>
        <time>2017-04-09T08:30:11Z</time>
      </trkpt>
      <trkpt lat="48.48032" lon="2.80671">
        <ele>98</ele>
        <time>2017-04-09T08:30:42Z</time>
      </trkpt>
      <trkpt lat="48.48023" lon="2.80596">
        <ele>98</ele>
        <time>2017-04-09T08:31:13Z</time>
      </trkpt>
      <trkpt lat="48.48019" lon="2.80568">
        <ele>98</ele>
        <time>2017-04-09T08:31:24Z</time>
      </trkpt>
      <trkpt lat="48.48014" lon="2.80488">
        <ele>98</ele>
        <time>2017-04-09T08:31:56Z</time>
      </trkpt>
      <trkpt lat="48.48013" lon="2.80472">
        <ele>98</ele>
        <time>2017-04-09T08:32:02Z</time>
      </trkpt>
      <trkpt lat="48.48011" lon="2.80465">
        <ele>98</ele>
        <time>2017-04-09T08:32:06Z</time>
      </trkpt>
      <trkpt lat="48.48005" lon="2.80399">
        <ele>99</ele>
        <time>2017-04-09T08:32:34Z</time>
      </trkpt>
      <trkpt lat="48.48005" lon="2.80392">
        <ele>99</ele>
        <time>2017-04-09T08:32:37Z</time>
      </trkpt>
      <trkpt lat="48.48005" lon="2.80385">
        <ele>99</ele>
        <time>2017-04-09T08:32:40Z</time>
      </trkpt>
      <trkpt lat="48.48007" lon="2.80369">
        <ele>99</ele>
        <time>2017-04-09T08:32:48Z</time>
      </trkpt>
      <trkpt lat="48.48012" lon="2.80365">
        <ele>99</ele>
        <time>2017-04-09T08:32:52Z</time>
      </trkpt>
      <trkpt lat="48.48032" lon="2.8036">
        <ele>98</ele>
        <time>2017-04-09T08:33:04Z</time>
      </trkpt>
      <trkpt lat="48.48041" lon="2.80357">
        <ele>98</ele>
        <time>2017-04-09T08:33:10Z</time>
      </trkpt>
      <trkpt lat="48.48044" lon="2.80351">
        <ele>98</ele>
        <time>2017-04-09T08:33:19Z</time>
      </trkpt>
      <trkpt lat="48.4807" lon="2.8034">
        <ele>97</ele>
        <time>2017-04-09T08:33:35Z</time>
      </trkpt>
      <trkpt lat="48.4808" lon="2.80339">
        <ele>97</ele>
        <time>2017-04-09T08:33:41Z</time>
      </trkpt>
      <trkpt lat="48.48119" lon="2.80323">
        <ele>97</ele>
        <time>2017-04-09T08:34:05Z</time>
      </trkpt>
      <trkpt lat="48.48124" lon="2.80324">
        <ele>96</ele>
        <time>2017-04-09T08:34:08Z</time>
      </trkpt>
      <trkpt lat="48.48149" lon="2.80318">
        <ele>96</ele>
        <time>2017-04-09T08:34:24Z</time>
      </trkpt>
      <trkpt lat="48.48153" lon="2.80318">
        <ele>96</ele>
        <time>2017-04-09T08:34:27Z</time>
      </trkpt>
      <trkpt lat="48.48159" lon="2.80316">
        <ele>96</ele>
        <time>2017-04-09T08:34:31Z</time>
      </trkpt>
      <trkpt lat="48.48163" lon="2.80311">
        <ele>96</ele>
        <time>2017-04-09T08:34:34Z</time>
      </trkpt>
      <trkpt lat="48.48172" lon="2.80305">
        <ele>95</ele>
        <time>2017-04-09T08:34:40Z</time>
      </trkpt>
      <trkpt lat="48.48218" lon="2.80291">
        <ele>95</ele>
        <time>2017-04-09T08:35:09Z</time>
      </trkpt>
      <trkpt lat="48.48227" lon="2.80285">
        <ele>95</ele>
        <time>2017-04-09T08:35:15Z</time>
      </trkpt>
      <trkpt lat="48.48248" lon="2.80278">
        <ele>95</ele>
        <time>2017-04-09T08:35:28Z</time>
      </trkpt>
      <trkpt lat="48.48252" lon="2.80276">
        <ele>95</ele>
        <time>2017-04-09T08:35:31Z</time>
      </trkpt>
      <trkpt lat="48.48263" lon="2.80274">
        <ele>95</ele>
        <time>2017-04-09T08:35:38Z</time>
      </trkpt>
      <trkpt lat="48.4827" lon="2.80271">
        <ele>95</ele>
        <time>2017-04-09T08:35:43Z</time>
      </trkpt>
      <trkpt lat="48.48314" lon="2.80293">
        <ele>94</ele>
        <time>2017-04-09T08:36:08Z</time>
      </trkpt>
      <trkpt lat="48.48324" lon="2.80307">
        <ele>94</ele>
        <time>2017-04-09T08:36:16Z</time>
      </trkpt>
      <trkpt lat="48.48348" lon="2.80323">
        <ele>95</ele>
        <time>2017-04-09T08:36:32Z</time>
      </trkpt>
      <trkpt lat="48.48365" lon="2.80338">
        <ele>95</ele>
        <time>2017-04-09T08:36:44Z</time>
      </trkpt>
      <trkpt lat="48.48384" lon="2.80346">
        <ele>95</ele>
        <time>2017-04-09T08:36:56Z</time>
      </trkpt>
      <trkpt lat="48.4843" lon="2.80355">
        <ele>95</ele>
        <time>2017-04-09T08:37:24Z</time>
      </trkpt>
      <trkpt lat="48.4844" lon="2.80354">
        <ele>95</ele>
        <time>2017-04-09T08:37:30Z</time>
      </trkpt>
      <trkpt lat="48.4845" lon="2.80357">
        <ele>95</ele>
        <time>2017-04-09T08:37:36Z</time>
      </trkpt>
      <trkpt lat="48.48455" lon="2.80356">
        <ele>95</ele>
        <time>2017-04-09T08:37:39Z</time>
      </trkpt>
      <trkpt lat="48.48502" lon="2.80367">
        <ele>95</ele>
        <time>2017-04-09T08:38:10Z</time>
      </trkpt>
      <trkpt lat="48.48522" lon="2.80377">
        <ele>95</ele>
        <time>2017-04-09T08:38:24Z</time>
      </trkpt>
      <trkpt lat="48.4855" lon="2.80378">
        <ele>95</ele>
        <time>2017-04-09T08:38:40Z</time>
      </trkpt>
      <trkpt lat="48.48566" lon="2.80385">
        <ele>96</ele>
        <time>2017-04-09T08:38:50Z</time>
      </trkpt>
      <trkpt lat="48.48614" lon="2.80391">
        <ele>95</ele>
        <time>2017-04-09T08:39:20Z</time>
      </trkpt>
      <trkpt lat="48.48619" lon="2.8039">
        <ele>95</ele>
        <time>2017-04-09T08:39:23Z</time>
      </trkpt>
      <trkpt lat="48.48629" lon="2.80391">
        <ele>95</ele>
        <time>2017-04-09T08:39:29Z</time>
      </trkpt>
      <trkpt lat="48.48644" lon="2.80394">
        <ele>95</ele>
        <time>2017-04-09T08:39:38Z</time>
      </trkpt>
      <trkpt lat="48.48649" lon="2.80393">
        <ele>95</ele>
        <time>2017-04-09T08:39:41Z</time>
      </trkpt>
      <trkpt lat="48.48659" lon="2.80397">
        <ele>95</ele>
        <time>2017-04-09T08:39:48Z</time>
      </trkpt>
      <trkpt lat="48.48686" lon="2.80418">
        <ele>94</ele>
        <time>2017-04-09T08:40:08Z</time>
      </trkpt>
      <trkpt lat="48.4869" lon="2.8042">
        <ele>94</ele>
        <time>2017-04-09T08:40:11Z</time>
      </trkpt>
      <trkpt lat="48.48695" lon="2.8042">
        <ele>94</ele>
        <time>2017-04-09T08:40:14Z</time>
      </trkpt>
      <trkpt lat="48.487" lon="2.80418">
        <ele>94</ele>
        <time>2017-04-09T08:40:17Z</time>
      </trkpt>
      <trkpt lat="48.48709" lon="2.80412">
        <ele>94</ele>
        <time>2017-04-09T08:40:23Z</time>
      </trkpt>
      <trkpt lat="48.48756" lon="2.80389">
        <ele>94</ele>
        <time>2017-04-09T08:40:53Z</time>
      </trkpt>
      <trkpt lat="48.48805" lon="2.8036">
        <ele>94</ele>
        <time>2017-04-09T08:41:26Z</time>
      </trkpt>
      <trkpt lat="48.4881" lon="2.80358">
        <ele>94</ele>
        <time>2017-04-09T08:41:29Z</time>
      </trkpt>
      <trkpt lat="48.48841" lon="2.8034">
        <ele>93</ele>
        <time>2017-04-09T08:41:49Z</time>
      </trkpt>
      <trkpt lat="48.48847" lon="2.80338">
        <ele>93</ele>
        <time>2017-04-09T08:41:53Z</time>
      </trkpt>
      <trkpt lat="48.48892" lon="2.80309">
        <ele>92</ele>
        <time>2017-04-09T08:42:24Z</time>
      </trkpt>
      <trkpt lat="48.4893" lon="2.80288">
        <ele>91</ele>
        <time>2017-04-09T08:42:49Z</time>
      </trkpt>
      <trkpt lat="48.48976" lon="2.80258">
        <ele>90</ele>
        <time>2017-04-09T08:43:20Z</time>
      </trkpt>
      <trkpt lat="48.48989" lon="2.80249">
        <ele>90</ele>
        <time>2017-04-09T08:43:29Z</time>
      </trkpt>
      <trkpt lat="48.49" lon="2.80235">
        <ele>89</ele>
        <time>2017-04-09T08:43:38Z</time>
      </trkpt>
      <trkpt lat="48.49021" lon="2.80176">
        <ele>89</ele>
        <time>2017-04-09T08:44:05Z</time>
      </trkpt>
      <trkpt lat="48.49025" lon="2.80169">
        <ele>89</ele>
        <time>2017-04-09T08:44:09Z</time>
      </trkpt>
      <trkpt lat="48.4903" lon="2.80168">
        <ele>89</ele>
        <time>2017-04-09T08:44:13Z</time>
      </trkpt>
      <trkpt lat="48.49061" lon="2.80175">
        <ele>89</ele>
        <time>2017-04-09T08:44:31Z</time>
      </trkpt>
      <trkpt lat="48.49074" lon="2.80189">
        <ele>89</ele>
        <time>2017-04-09T08:44:41Z</time>
      </trkpt>
      <trkpt lat="48.49078" lon="2.80192">
        <ele>89</ele>
        <time>2017-04-09T08:44:44Z</time>
      </trkpt>
      <trkpt lat="48.49089" lon="2.80192">
        <ele>89</ele>
        <time>2017-04-09T08:44:50Z</time>
      </trkpt>
      <trkpt lat="48.49142" lon="2.80187">
        <ele>89</ele>
        <time>2017-04-09T08:45:21Z</time>
      </trkpt>
      <trkpt lat="48.49192" lon="2.80188">
        <ele>89</ele>
        <time>2017-04-09T08:45:53Z</time>
      </trkpt>
      <trkpt lat="48.49239" lon="2.8019">
        <ele>90</ele>
        <time>2017-04-09T08:46:25Z</time>
      </trkpt>
      <trkpt lat="48.49244" lon="2.80191">
        <ele>91</ele>
        <time>2017-04-09T08:46:28Z</time>
      </trkpt>
      <trkpt lat="48.49294" lon="2.80191">
        <ele>93</ele>
        <time>2017-04-09T08:47:00Z</time>
      </trkpt>
      <trkpt lat="48.49308" lon="2.80184">
        <ele>93</ele>
        <time>2017-04-09T08:47:09Z</time>
      </trkpt>
      <trkpt lat="48.49312" lon="2.80181">
        <ele>93</ele>
        <time>2017-04-09T08:47:12Z</time>
      </trkpt>
      <trkpt lat="48.49323" lon="2.80168">
        <ele>93</ele>
        <time>2017-04-09T08:47:21Z</time>
      </trkpt>
      <trkpt lat="48.49346" lon="2.80135">
        <ele>93</ele>
        <time>2017-04-09T08:47:41Z</time>
      </trkpt>
      <trkpt lat="48.49351" lon="2.80122">
        <ele>93</ele>
        <time>2017-04-09T08:47:47Z</time>
      </trkpt>
      <trkpt lat="48.49363" lon="2.80051">
        <ele>93</ele>
        <time>2017-04-09T08:48:17Z</time>
      </trkpt>
      <trkpt lat="48.49368" lon="2.8003">
        <ele>93</ele>
        <time>2017-04-09T08:48:26Z</time>
      </trkpt>
      <trkpt lat="48.4939" lon="2.79972">
        <ele>94</ele>
        <time>2017-04-09T08:48:53Z</time>
      </trkpt>
      <trkpt lat="48.49407" lon="2.79896">
        <ele>94</ele>
        <time>2017-04-09T08:49:26Z</time>
      </trkpt>
      <trkpt lat="48.49408" lon="2.7989">
        <ele>94</ele>
        <time>2017-04-09T08:49:29Z</time>
      </trkpt>
      <trkpt lat="48.49413" lon="2.79874">
        <ele>93</ele>
        <time>2017-04-09T08:49:36Z</time>
      </trkpt>
      <trkpt lat="48.49425" lon="2.79857">
        <ele>93</ele>
        <time>2017-04-09T08:49:46Z</time>
      </trkpt>
      <trkpt lat="48.49447" lon="2.79843">
        <ele>94</ele>
        <time>2017-04-09T08:50:01Z</time>
      </trkpt>
      <trkpt lat="48.49485" lon="2.79833">
        <ele>95</ele>
        <time>2017-04-09T08:50:27Z</time>
      </trkpt>
      <trkpt lat="48.49497" lon="2.79818">
        <ele>95</ele>
        <time>2017-04-09T08:50:36Z</time>
      </trkpt>
      <trkpt lat="48.49536" lon="2.79762">
        <ele>96</ele>
        <time>2017-04-09T08:51:07Z</time>
      </trkpt>
      <trkpt lat="48.49564" lon="2.79731">
        <ele>96</ele>
        <time>2017-04-09T08:51:28Z</time>
      </trkpt>
      <trkpt lat="48.49586" lon="2.79711">
        <ele>97</ele>
        <time>2017-04-09T08:51:43Z</time>
      </trkpt>
      <trkpt lat="48.4961" lon="2.79685">
        <ele>97</ele>
        <time>2017-04-09T08:52:01Z</time>
      </trkpt>
      <trkpt lat="48.49652" lon="2.79646">
        <ele>97</ele>
        <time>2017-04-09T08:52:32Z</time>
      </trkpt>
      <trkpt lat="48.4966" lon="2.79638">
        <ele>97</ele>
        <time>2017-04-09T08:52:38Z</time>
      </trkpt>
      <trkpt lat="48.49662" lon="2.7963">
        <ele>97</ele>
        <time>2017-04-09T08:52:41Z</time>
      </trkpt>
      <trkpt lat="48.49662" lon="2.79622">
        <ele>97</ele>
        <time>2017-04-09T08:52:44Z</time>
      </trkpt>
      <trkpt lat="48.49676" lon="2.79547">
        <ele>96</ele>
        <time>2017-04-09T08:53:15Z</time>
      </trkpt>
      <trkpt lat="48.49678" lon="2.79539">
        <ele>96</ele>
        <time>2017-04-09T08:53:19Z</time>
      </trkpt>
      <trkpt lat="48.49681" lon="2.79501">
        <ele>96</ele>
        <time>2017-04-09T08:53:35Z</time>
      </trkpt>
      <trkpt lat="48.49693" lon="2.79467">
        <ele>96</ele>
        <time>2017-04-09T08:53:51Z</time>
      </trkpt>
      <trkpt lat="48.49695" lon="2.79449">
        <ele>95</ele>
        <time>2017-04-09T08:53:59Z</time>
      </trkpt>
      <trkpt lat="48.49707" lon="2.79424">
        <ele>96</ele>
        <time>2017-04-09T08:54:13Z</time>
      </trkpt>
      <trkpt lat="48.4971" lon="2.79416">
        <ele>95</ele>
        <time>2017-04-09T08:54:17Z</time>
      </trkpt>
      <trkpt lat="48.49711" lon="2.79407">
        <ele>96</ele>
        <time>2017-04-09T08:54:20Z</time>
      </trkpt>
      <trkpt lat="48.4971" lon="2.79399">
        <ele>96</ele>
        <time>2017-04-09T08:54:23Z</time>
      </trkpt>
      <trkpt lat="48.49711" lon="2.79392">
        <ele>96</ele>
        <time>2017-04-09T08:54:26Z</time>
      </trkpt>
      <trkpt lat="48.49724" lon="2.79364">
        <ele>95</ele>
        <time>2017-04-09T08:54:38Z</time>
      </trkpt>
      <trkpt lat="48.49746" lon="2.79296">
        <ele>93</ele>
        <time>2017-04-09T08:55:09Z</time>
      </trkpt>
      <trkpt lat="48.49761" lon="2.7925">
        <ele>92</ele>
        <time>2017-04-09T08:55:31Z</time>
      </trkpt>
      <trkpt lat="48.49765" lon="2.79245">
        <ele>92</ele>
        <time>2017-04-09T08:55:34Z</time>
      </trkpt>
      <trkpt lat="48.49776" lon="2.79243">
        <ele>92</ele>
        <time>2017-04-09T08:55:41Z</time>
      </trkpt>
      <trkpt lat="48.49812" lon="2.79249">
        <ele>91</ele>
        <time>2017-04-09T08:56:04Z</time>
      </trkpt>
      <trkpt lat="48.49838" lon="2.79269">
        <ele>90</ele>
        <time>2017-04-09T08:56:22Z</time>
      </trkpt>
      <trkpt lat="48.49853" lon="2.79278">
        <ele>90</ele>
        <time>2017-04-09T08:56:31Z</time>
      </trkpt>
      <trkpt lat="48.4989" lon="2.79311">
        <ele>90</ele>
        <time>2017-04-09T08:56:56Z</time>
      </trkpt>
      <trkpt lat="48.4993" lon="2.79336">
        <ele>90</ele>
        <time>2017-04-09T08:57:21Z</time>
      </trkpt>
      <trkpt lat="48.49935" lon="2.79339">
        <ele>90</ele>
        <time>2017-04-09T08:57:24Z</time>
      </trkpt>
      <trkpt lat="48.4994" lon="2.79342">
        <ele>91</ele>
        <time>2017-04-09T08:57:28Z</time>
      </trkpt>
      <trkpt lat="48.49948" lon="2.7935">
        <ele>91</ele>
        <time>2017-04-09T08:57:34Z</time>
      </trkpt>
      <trkpt lat="48.49971" lon="2.79365">
        <ele>91</ele>
        <time>2017-04-09T08:57:50Z</time>
      </trkpt>
      <trkpt lat="48.49978" lon="2.79373">
        <ele>92</ele>
        <time>2017-04-09T08:57:56Z</time>
      </trkpt>
      <trkpt lat="48.50002" lon="2.79384">
        <ele>92</ele>
        <time>2017-04-09T08:58:11Z</time>
      </trkpt>
      <trkpt lat="48.50019" lon="2.79399">
        <ele>92</ele>
        <time>2017-04-09T08:58:23Z</time>
      </trkpt>
      <trkpt lat="48.50034" lon="2.79404">
        <ele>92</ele>
        <time>2017-04-09T08:58:33Z</time>
      </trkpt>
      <trkpt lat="48.50065" lon="2.79427">
        <ele>92</ele>
        <time>2017-04-09T08:58:54Z</time>
      </trkpt>
      <trkpt lat="48.50081" lon="2.79431">
        <ele>92</ele>
        <time>2017-04-09T08:59:03Z</time>
      </trkpt>
      <trkpt lat="48.50091" lon="2.7943">
        <ele>92</ele>
        <time>2017-04-09T08:59:09Z</time>
      </trkpt>
      <trkpt lat="48.50116" lon="2.79431">
        <ele>92</ele>
        <time>2017-04-09T08:59:24Z</time>
      </trkpt>
      <trkpt lat="48.50153" lon="2.79426">
        <ele>90</ele>
        <time>2017-04-09T08:59:45Z</time>
      </trkpt>
      <trkpt lat="48.502" lon="2.7944">
        <ele>87</ele>
        <time>2017-04-09T09:00:13Z</time>
      </trkpt>
      <trkpt lat="48.50204" lon="2.79442">
        <ele>86</ele>
        <time>2017-04-09T09:00:16Z</time>
      </trkpt>
      <trkpt lat="48.50253" lon="2.79458">
        <ele>86</ele>
        <time>2017-04-09T09:00:46Z</time>
      </trkpt>
      <trkpt lat="48.50258" lon="2.79459">
        <ele>86</ele>
        <time>2017-04-09T09:00:50Z</time>
      </trkpt>
      <trkpt lat="48.50263" lon="2.79464">
        <ele>86</ele>
        <time>2017-04-09T09:01:03Z</time>
      </trkpt>
      <trkpt lat="48.50268" lon="2.79464">
        <ele>86</ele>
        <time>2017-04-09T09:01:07Z</time>
      </trkpt>
      <trkpt lat="48.50272" lon="2.7946">
        <ele>86</ele>
        <time>2017-04-09T09:01:11Z</time>
      </trkpt>
      <trkpt lat="48.50277" lon="2.79464">
        <ele>86</ele>
        <time>2017-04-09T09:01:16Z</time>
      </trkpt>
      <trkpt lat="48.50279" lon="2.79478">
        <ele>85</ele>
        <time>2017-04-09T09:01:26Z</time>
      </trkpt>
      <trkpt lat="48.50285" lon="2.7949">
        <ele>85</ele>
        <time>2017-04-09T09:01:34Z</time>
      </trkpt>
      <trkpt lat="48.50287" lon="2.79498">
        <ele>85</ele>
        <time>2017-04-09T09:01:38Z</time>
      </trkpt>
      <trkpt lat="48.50292" lon="2.79503">
        <ele>85</ele>
        <time>2017-04-09T09:01:41Z</time>
      </trkpt>
      <trkpt lat="48.50304" lon="2.79506">
        <ele>85</ele>
        <time>2017-04-09T09:01:48Z</time>
      </trkpt>
      <trkpt lat="48.50323" lon="2.79536">
        <ele>85</ele>
        <time>2017-04-09T09:02:06Z</time>
      </trkpt>
      <trkpt lat="48.50326" lon="2.79543">
        <ele>85</ele>
        <time>2017-04-09T09:02:10Z</time>
      </trkpt>
      <trkpt lat="48.50326" lon="2.79552">
        <ele>85</ele>
        <time>2017-04-09T09:02:14Z</time>
      </trkpt>
      <trkpt lat="48.50328" lon="2.79559">
        <ele>85</ele>
        <time>2017-04-09T09:02:17Z</time>
      </trkpt>
      <trkpt lat="48.50332" lon="2.79565">
        <ele>85</ele>
        <time>2017-04-09T09:02:20Z</time>
      </trkpt>
      <trkpt lat="48.50343" lon="2.79577">
        <ele>85</ele>
        <time>2017-04-09T09:02:27Z</time>
      </trkpt>
      <trkpt lat="48.50349" lon="2.79599">
        <ele>85</ele>
        <time>2017-04-09T09:02:37Z</time>
      </trkpt>
      <trkpt lat="48.50351" lon="2.79619">
        <ele>85</ele>
        <time>2017-04-09T09:02:46Z</time>
      </trkpt>
      <trkpt lat="48.50355" lon="2.79624">
        <ele>85</ele>
        <time>2017-04-09T09:02:50Z</time>
      </trkpt>
      <trkpt lat="48.50365" lon="2.79651">
        <ele>85</ele>
        <time>2017-04-09T09:03:02Z</time>
      </trkpt>
      <trkpt lat="48.50369" lon="2.79673">
        <ele>85</ele>
        <time>2017-04-09T09:03:11Z</time>
      </trkpt>
      <trkpt lat="48.5037" lon="2.79681">
        <ele>85</ele>
        <time>2017-04-09T09:03:14Z</time>
      </trkpt>
      <trkpt lat="48.50368" lon="2.79689">
        <ele>85</ele>
        <time>2017-04-09T09:03:18Z</time>
      </trkpt>
      <trkpt lat="48.50368" lon="2.79709">
        <ele>85</ele>
        <time>2017-04-09T09:03:27Z</time>
      </trkpt>
      <trkpt lat="48.50364" lon="2.79732">
        <ele>85</ele>
        <time>2017-04-09T09:03:36Z</time>
      </trkpt>
      <trkpt lat="48.5036" lon="2.79747">
        <ele>85</ele>
        <time>2017-04-09T09:03:43Z</time>
      </trkpt>
      <trkpt lat="48.50358" lon="2.79779">
        <ele>85</ele>
        <time>2017-04-09T09:03:56Z</time>
      </trkpt>
      <trkpt lat="48.50356" lon="2.79786">
        <ele>85</ele>
        <time>2017-04-09T09:03:59Z</time>
      </trkpt>
      <trkpt lat="48.50343" lon="2.79811">
        <ele>85</ele>
        <time>2017-04-09T09:04:15Z</time>
      </trkpt>
      <trkpt lat="48.50324" lon="2.79857">
        <ele>84</ele>
        <time>2017-04-09T09:04:38Z</time>
      </trkpt>
      <trkpt lat="48.50322" lon="2.79879">
        <ele>83</ele>
        <time>2017-04-09T09:04:47Z</time>
      </trkpt>
      <trkpt lat="48.50325" lon="2.799">
        <ele>83</ele>
        <time>2017-04-09T09:05:01Z</time>
      </trkpt>
      <trkpt lat="48.50328" lon="2.79912">
        <ele>83</ele>
        <time>2017-04-09T09:07:20Z</time>
      </trkpt>
      <trkpt lat="48.50342" lon="2.79928">
        <ele>82</ele>
        <time>2017-04-09T09:07:30Z</time>
      </trkpt>
      <trkpt lat="48.50356" lon="2.79935">
        <ele>82</ele>
        <time>2017-04-09T09:07:40Z</time>
      </trkpt>
      <trkpt lat="48.50375" lon="2.79928">
        <ele>83</ele>
        <time>2017-04-09T09:07:52Z</time>
      </trkpt>
      <trkpt lat="48.50379" lon="2.79924">
        <ele>83</ele>
        <time>2017-04-09T09:07:55Z</time>
      </trkpt>
      <trkpt lat="48.5039" lon="2.79922">
        <ele>83</ele>
        <time>2017-04-09T09:08:01Z</time>
      </trkpt>
      <trkpt lat="48.504" lon="2.79924">
        <ele>83</ele>
        <time>2017-04-09T09:08:07Z</time>
      </trkpt>
      <trkpt lat="48.50404" lon="2.79927">
        <ele>83</ele>
        <time>2017-04-09T09:08:10Z</time>
      </trkpt>
      <trkpt lat="48.5042" lon="2.79931">
        <ele>84</ele>
        <time>2017-04-09T09:08:20Z</time>
      </trkpt>
      <trkpt lat="48.50442" lon="2.79951">
        <ele>85</ele>
        <time>2017-04-09T09:08:37Z</time>
      </trkpt>
      <trkpt lat="48.50453" lon="2.79947">
        <ele>85</ele>
        <time>2017-04-09T09:08:44Z</time>
      </trkpt>
      <trkpt lat="48.50458" lon="2.79943">
        <ele>85</ele>
        <time>2017-04-09T09:08:48Z</time>
      </trkpt>
      <trkpt lat="48.50468" lon="2.79941">
        <ele>85</ele>
        <time>2017-04-09T09:08:55Z</time>
      </trkpt>
      <trkpt lat="48.50473" lon="2.79943">
        <ele>85</ele>
        <time>2017-04-09T09:09:00Z</time>
      </trkpt>
      <trkpt lat="48.50481" lon="2.79933">
        <ele>85</ele>
        <time>2017-04-09T09:09:07Z</time>
      </trkpt>
      <trkpt lat="48.50486" lon="2.79933">
        <ele>85</ele>
        <time>2017-04-09T09:09:11Z</time>
      </trkpt>
      <trkpt lat="48.50497" lon="2.79935">
        <ele>86</ele>
        <time>2017-04-09T09:09:19Z</time>
      </trkpt>
      <trkpt lat="48.50507" lon="2.79935">
        <ele>87</ele>
        <time>2017-04-09T09:09:26Z</time>
      </trkpt>
      <trkpt lat="48.50521" lon="2.79945">
        <ele>87</ele>
        <time>2017-04-09T09:09:37Z</time>
      </trkpt>
      <trkpt lat="48.50525" lon="2.79951">
        <ele>87</ele>
        <time>2017-04-09T09:09:41Z</time>
      </trkpt>
      <trkpt lat="48.5053" lon="2.79955">
        <ele>87</ele>
        <time>2017-04-09T09:09:45Z</time>
      </trkpt>
      <trkpt lat="48.50562" lon="2.79965">
        <ele>88</ele>
        <time>2017-04-09T09:10:08Z</time>
      </trkpt>
      <trkpt lat="48.50567" lon="2.79969">
        <ele>89</ele>
        <time>2017-04-09T09:10:12Z</time>
      </trkpt>
      <trkpt lat="48.50573" lon="2.79981">
        <ele>89</ele>
        <time>2017-04-09T09:10:19Z</time>
      </trkpt>
      <trkpt lat="48.50575" lon="2.79989">
        <ele>89</ele>
        <time>2017-04-09T09:10:23Z</time>
      </trkpt>
      <trkpt lat="48.50577" lon="2.80005">
        <ele>90</ele>
        <time>2017-04-09T09:10:31Z</time>
      </trkpt>
      <trkpt lat="48.50587" lon="2.8003">
        <ele>91</ele>
        <time>2017-04-09T09:10:43Z</time>
      </trkpt>
      <trkpt lat="48.50595" lon="2.80038">
        <ele>91</ele>
        <time>2017-04-09T09:10:49Z</time>
      </trkpt>
      <trkpt lat="48.506" lon="2.80042">
        <ele>91</ele>
        <time>2017-04-09T09:10:52Z</time>
      </trkpt>
      <trkpt lat="48.5061" lon="2.80042">
        <ele>91</ele>
        <time>2017-04-09T09:10:59Z</time>
      </trkpt>
      <trkpt lat="48.5063" lon="2.80032">
        <ele>92</ele>
        <time>2017-04-09T09:11:13Z</time>
      </trkpt>
      <trkpt lat="48.50652" lon="2.80036">
        <ele>93</ele>
        <time>2017-04-09T09:11:27Z</time>
      </trkpt>
      <trkpt lat="48.5069" lon="2.80017">
        <ele>94</ele>
        <time>2017-04-09T09:11:51Z</time>
      </trkpt>
      <trkpt lat="48.50702" lon="2.80005">
        <ele>94</ele>
        <time>2017-04-09T09:12:00Z</time>
      </trkpt>
      <trkpt lat="48.50705" lon="2.8">
        <ele>94</ele>
        <time>2017-04-09T09:12:03Z</time>
      </trkpt>
      <trkpt lat="48.50738" lon="2.79981">
        <ele>94</ele>
        <time>2017-04-09T09:12:27Z</time>
      </trkpt>
      <trkpt lat="48.50743" lon="2.7998">
        <ele>94</ele>
        <time>2017-04-09T09:12:31Z</time>
      </trkpt>
      <trkpt lat="48.50748" lon="2.79977">
        <ele>94</ele>
        <time>2017-04-09T09:12:35Z</time>
      </trkpt>
      <trkpt lat="48.50759" lon="2.79978">
        <ele>94</ele>
        <time>2017-04-09T09:12:43Z</time>
      </trkpt>
      <trkpt lat="48.50798" lon="2.79961">
        <ele>95</ele>
        <time>2017-04-09T09:13:08Z</time>
      </trkpt>
      <trkpt lat="48.50807" lon="2.79952">
        <ele>95</ele>
        <time>2017-04-09T09:13:15Z</time>
      </trkpt>
      <trkpt lat="48.50848" lon="2.79902">
        <ele>94</ele>
        <time>2017-04-09T09:13:46Z</time>
      </trkpt>
      <trkpt lat="48.50887" lon="2.7986">
        <ele>94</ele>
        <time>2017-04-09T09:14:16Z</time>
      </trkpt>
      <trkpt lat="48.50894" lon="2.79848">
        <ele>94</ele>
        <time>2017-04-09T09:14:22Z</time>
      </trkpt>
      <trkpt lat="48.50915" lon="2.79815">
        <ele>95</ele>
        <time>2017-04-09T09:14:42Z</time>
      </trkpt>
      <trkpt lat="48.50943" lon="2.79751">
        <ele>96</ele>
        <time>2017-04-09T09:15:16Z</time>
      </trkpt>
      <trkpt lat="48.50952" lon="2.79734">
        <ele>96</ele>
        <time>2017-04-09T09:15:25Z</time>
      </trkpt>
      <trkpt lat="48.50957" lon="2.79731">
        <ele>96</ele>
        <time>2017-04-09T09:15:28Z</time>
      </trkpt>
      <trkpt lat="48.50961" lon="2.79731">
        <ele>96</ele>
        <time>2017-04-09T09:15:31Z</time>
      </trkpt>
      <trkpt lat="48.50976" lon="2.79734">
        <ele>96</ele>
        <time>2017-04-09T09:15:41Z</time>
      </trkpt>
      <trkpt lat="48.50986" lon="2.79739">
        <ele>96</ele>
        <time>2017-04-09T09:15:49Z</time>
      </trkpt>
      <trkpt lat="48.5103" lon="2.79752">
        <ele>97</ele>
        <time>2017-04-09T09:16:19Z</time>
      </trkpt>
      <trkpt lat="48.5108" lon="2.79764">
        <ele>97</ele>
        <time>2017-04-09T09:16:52Z</time>
      </trkpt>
      <trkpt lat="48.51126" lon="2.79772">
        <ele>97</ele>
        <time>2017-04-09T09:17:22Z</time>
      </trkpt>
      <trkpt lat="48.51178" lon="2.79788">
        <ele>97</ele>
        <time>2017-04-09T09:17:55Z</time>
      </trkpt>
      <trkpt lat="48.51224" lon="2.79799">
        <ele>98</ele>
        <time>2017-04-09T09:18:26Z</time>
      </trkpt>
      <trkpt lat="48.51272" lon="2.79807">
        <ele>98</ele>
        <time>2017-04-09T09:18:59Z</time>
      </trkpt>
      <trkpt lat="48.51321" lon="2.79813">
        <ele>98</ele>
        <time>2017-04-09T09:19:32Z</time>
      </trkpt>
      <trkpt lat="48.5137" lon="2.79811">
        <ele>98</ele>
        <time>2017-04-09T09:20:03Z</time>
      </trkpt>
      <trkpt lat="48.51406" lon="2.79823">
        <ele>98</ele>
        <time>2017-04-09T09:20:27Z</time>
      </trkpt>
      <trkpt lat="48.51443" lon="2.7985">
        <ele>99</ele>
        <time>2017-04-09T09:20:53Z</time>
      </trkpt>
      <trkpt lat="48.51482" lon="2.79895">
        <ele>100</ele>
        <time>2017-04-09T09:21:24Z</time>
      </trkpt>
      <trkpt lat="48.51516" lon="2.7994">
        <ele>100</ele>
        <time>2017-04-09T09:21:52Z</time>
      </trkpt>
      <trkpt lat="48.5152" lon="2.79944">
        <ele>101</ele>
        <time>2017-04-09T09:21:55Z</time>
      </trkpt>
      <trkpt lat="48.51529" lon="2.79952">
        <ele>101</ele>
        <time>2017-04-09T09:22:02Z</time>
      </trkpt>
      <trkpt lat="48.51552" lon="2.79977">
        <ele>101</ele>
        <time>2017-04-09T09:22:20Z</time>
      </trkpt>
      <trkpt lat="48.51568" lon="2.79996">
        <ele>100</ele>
        <time>2017-04-09T09:22:33Z</time>
      </trkpt>
      <trkpt lat="48.51604" lon="2.80032">
        <ele>100</ele>
        <time>2017-04-09T09:22:59Z</time>
      </trkpt>
      <trkpt lat="48.51625" lon="2.80055">
        <ele>101</ele>
        <time>2017-04-09T09:23:15Z</time>
      </trkpt>
      <trkpt lat="48.51669" lon="2.80095">
        <ele>102</ele>
        <time>2017-04-09T09:23:46Z</time>
      </trkpt>
      <trkpt lat="48.51712" lon="2.80142">
        <ele>102</ele>
        <time>2017-04-09T09:24:19Z</time>
      </trkpt>
      <trkpt lat="48.5174" lon="2.8017">
        <ele>102</ele>
        <time>2017-04-09T09:24:40Z</time>
      </trkpt>
      <trkpt lat="48.51744" lon="2.80173">
        <ele>102</ele>
        <time>2017-04-09T09:24:43Z</time>
      </trkpt>
      <trkpt lat="48.51749" lon="2.80172">
        <ele>102</ele>
        <time>2017-04-09T09:24:46Z</time>
      </trkpt>
      <trkpt lat="48.51796" lon="2.80151">
        <ele>101</ele>
        <time>2017-04-09T09:25:16Z</time>
      </trkpt>
      <trkpt lat="48.51801" lon="2.8015">
        <ele>101</ele>
        <time>2017-04-09T09:25:19Z</time>
      </trkpt>
      <trkpt lat="48.51805" lon="2.80151">
        <ele>101</ele>
        <time>2017-04-09T09:25:22Z</time>
      </trkpt>
      <trkpt lat="48.51819" lon="2.80145">
        <ele>101</ele>
        <time>2017-04-09T09:25:31Z</time>
      </trkpt>
      <trkpt lat="48.51829" lon="2.80144">
        <ele>101</ele>
        <time>2017-04-09T09:25:37Z</time>
      </trkpt>
      <trkpt lat="48.51857" lon="2.80136">
        <ele>101</ele>
        <time>2017-04-09T09:25:55Z</time>
      </trkpt>
      <trkpt lat="48.51883" lon="2.80132">
        <ele>101</ele>
        <time>2017-04-09T09:26:12Z</time>
      </trkpt>
      <trkpt lat="48.51932" lon="2.80117">
        <ele>100</ele>
        <time>2017-04-09T09:26:42Z</time>
      </trkpt>
      <trkpt lat="48.51983" lon="2.80091">
        <ele>100</ele>
        <time>2017-04-09T09:27:15Z</time>
      </trkpt>
      <trkpt lat="48.52027" lon="2.80065">
        <ele>99</ele>
        <time>2017-04-09T09:27:45Z</time>
      </trkpt>
      <trkpt lat="48.52072" lon="2.80041">
        <ele>99</ele>
        <time>2017-04-09T09:28:16Z</time>
      </trkpt>
      <trkpt lat="48.52087" lon="2.80037">
        <ele>99</ele>
        <time>2017-04-09T09:28:26Z</time>
      </trkpt>
      <trkpt lat="48.52138" lon="2.80036">
        <ele>99</ele>
        <time>2017-04-09T09:28:59Z</time>
      </trkpt>
      <trkpt lat="48.52186" lon="2.80042">
        <ele>100</ele>
        <time>2017-04-09T09:29:29Z</time>
      </trkpt>
      <trkpt lat="48.52235" lon="2.8005">
        <ele>100</ele>
        <time>2017-04-09T09:30:00Z</time>
      </trkpt>
      <trkpt lat="48.52283" lon="2.80064">
        <ele>100</ele>
        <time>2017-04-09T09:30:32Z</time>
      </trkpt>
      <trkpt lat="48.52297" lon="2.80069">
        <ele>100</ele>
        <time>2017-04-09T09:30:42Z</time>
      </trkpt>
      <trkpt lat="48.52302" lon="2.80067">
        <ele>100</ele>
        <time>2017-04-09T09:30:45Z</time>
      </trkpt>
      <trkpt lat="48.52305" lon="2.8006">
        <ele>100</ele>
        <time>2017-04-09T09:30:48Z</time>
      </trkpt>
      <trkpt lat="48.52327" lon="2.79982">
        <ele>100</ele>
        <time>2017-04-09T09:31:20Z</time>
      </trkpt>
      <trkpt lat="48.52333" lon="2.79963">
        <ele>100</ele>
        <time>2017-04-09T09:31:29Z</time>
      </trkpt>
      <trkpt lat="48.52363" lon="2.79906">
        <ele>100</ele>
        <time>2017-04-09T09:32:02Z</time>
      </trkpt>
      <trkpt lat="48.524" lon="2.79847">
        <ele>99</ele>
        <time>2017-04-09T09:32:35Z</time>
      </trkpt>
      <trkpt lat="48.52433" lon="2.79789">
        <ele>98</ele>
        <time>2017-04-09T09:33:07Z</time>
      </trkpt>
      <trkpt lat="48.52463" lon="2.79733">
        <ele>97</ele>
        <time>2017-04-09T09:33:37Z</time>
      </trkpt>
      <trkpt lat="48.52487" lon="2.79682">
        <ele>96</ele>
        <time>2017-04-09T09:34:04Z</time>
      </trkpt>
      <trkpt lat="48.52505" lon="2.79633">
        <ele>96</ele>
        <time>2017-04-09T09:34:29Z</time>
      </trkpt>
      <trkpt lat="48.52507" lon="2.79626">
        <ele>96</ele>
        <time>2017-04-09T09:34:32Z</time>
      </trkpt>
      <trkpt lat="48.5252" lon="2.79587">
        <ele>95</ele>
        <time>2017-04-09T09:34:51Z</time>
      </trkpt>
      <trkpt lat="48.52525" lon="2.79576">
        <ele>95</ele>
        <time>2017-04-09T09:34:57Z</time>
      </trkpt>
      <trkpt lat="48.52527" lon="2.79568">
        <ele>95</ele>
        <time>2017-04-09T09:35:00Z</time>
      </trkpt>
      <trkpt lat="48.52555" lon="2.79511">
        <ele>95</ele>
        <time>2017-04-09T09:35:28Z</time>
      </trkpt>
      <trkpt lat="48.52557" lon="2.79503">
        <ele>95</ele>
        <time>2017-04-09T09:35:31Z</time>
      </trkpt>
      <trkpt lat="48.52581" lon="2.79433">
        <ele>96</ele>
        <time>2017-04-09T09:36:04Z</time>
      </trkpt>
      <trkpt lat="48.52585" lon="2.79419">
        <ele>96</ele>
        <time>2017-04-09T09:36:10Z</time>
      </trkpt>
      <trkpt lat="48.526" lon="2.79348">
        <ele>97</ele>
        <time>2017-04-09T09:36:42Z</time>
      </trkpt>
      <trkpt lat="48.52612" lon="2.79274">
        <ele>97</ele>
        <time>2017-04-09T09:37:15Z</time>
      </trkpt>
      <trkpt lat="48.52617" lon="2.79215">
        <ele>98</ele>
        <time>2017-04-09T09:37:40Z</time>
      </trkpt>
      <trkpt lat="48.5261" lon="2.79149">
        <ele>98</ele>
        <time>2017-04-09T09:38:07Z</time>
      </trkpt>
      <trkpt lat="48.52607" lon="2.79133">
        <ele>98</ele>
        <time>2017-04-09T09:38:14Z</time>
      </trkpt>
      <trkpt lat="48.52599" lon="2.79059">
        <ele>99</ele>
        <time>2017-04-09T09:38:47Z</time>
      </trkpt>
      <trkpt lat="48.52593" lon="2.79033">
        <ele>100</ele>
        <time>2017-04-09T09:38:58Z</time>
      </trkpt>
      <trkpt lat="48.52586" lon="2.78963">
        <ele>101</ele>
        <time>2017-04-09T09:39:30Z</time>
      </trkpt>
      <trkpt lat="48.52585" lon="2.78956">
        <ele>101</ele>
        <time>2017-04-09T09:39:33Z</time>
      </trkpt>
      <trkpt lat="48.52588" lon="2.78939">
        <ele>101</ele>
        <time>2017-04-09T09:39:41Z</time>
      </trkpt>
      <trkpt lat="48.52585" lon="2.78931">
        <ele>101</ele>
        <time>2017-04-09T09:39:44Z</time>
      </trkpt>
      <trkpt lat="48.52579" lon="2.78901">
        <ele>101</ele>
        <time>2017-04-09T09:39:58Z</time>
      </trkpt>
      <trkpt lat="48.52567" lon="2.78855">
        <ele>101</ele>
        <time>2017-04-09T09:40:19Z</time>
      </trkpt>
      <trkpt lat="48.52566" lon="2.78834">
        <ele>101</ele>
        <time>2017-04-09T09:40:28Z</time>
      </trkpt>
      <trkpt lat="48.52563" lon="2.78818">
        <ele>101</ele>
        <time>2017-04-09T09:40:36Z</time>
      </trkpt>
      <trkpt lat="48.52566" lon="2.78796">
        <ele>101</ele>
        <time>2017-04-09T09:40:45Z</time>
      </trkpt>
      <trkpt lat="48.52572" lon="2.78772">
        <ele>101</ele>
        <time>2017-04-09T09:40:56Z</time>
      </trkpt>
      <trkpt lat="48.52572" lon="2.78756">
        <ele>101</ele>
        <time>2017-04-09T09:41:04Z</time>
      </trkpt>
      <trkpt lat="48.5258" lon="2.78727">
        <ele>101</ele>
        <time>2017-04-09T09:41:17Z</time>
      </trkpt>
      <trkpt lat="48.52581" lon="2.78719">
        <ele>101</ele>
        <time>2017-04-09T09:41:20Z</time>
      </trkpt>
      <trkpt lat="48.52584" lon="2.7871">
        <ele>101</ele>
        <time>2017-04-09T09:41:25Z</time>
      </trkpt>
      <trkpt lat="48.52584" lon="2.78693">
        <ele>101</ele>
        <time>2017-04-09T09:41:33Z</time>
      </trkpt>
      <trkpt lat="48.52574" lon="2.7864">
        <ele>100</ele>
        <time>2017-04-09T09:41:57Z</time>
      </trkpt>
      <trkpt lat="48.52574" lon="2.78632">
        <ele>100</ele>
        <time>2017-04-09T09:42:01Z</time>
      </trkpt>
      <trkpt lat="48.52568" lon="2.78599">
        <ele>100</ele>
        <time>2017-04-09T09:42:11Z</time>
      </trkpt>
      <trkpt lat="48.5256" lon="2.78582">
        <ele>100</ele>
        <time>2017-04-09T09:42:17Z</time>
      </trkpt>
      <trkpt lat="48.52561" lon="2.78573">
        <ele>100</ele>
        <time>2017-04-09T09:42:20Z</time>
      </trkpt>
      <trkpt lat="48.52564" lon="2.78559">
        <ele>100</ele>
        <time>2017-04-09T09:42:26Z</time>
      </trkpt>
      <trkpt lat="48.52572" lon="2.78549">
        <ele>100</ele>
        <time>2017-04-09T09:42:32Z</time>
      </trkpt>
      <trkpt lat="48.52579" lon="2.78536">
        <ele>100</ele>
        <time>2017-04-09T09:42:40Z</time>
      </trkpt>
      <trkpt lat="48.52588" lon="2.78527">
        <ele>100</ele>
        <time>2017-04-09T09:42:46Z</time>
      </trkpt>
      <trkpt lat="48.52593" lon="2.78515">
        <ele>101</ele>
        <time>2017-04-09T09:42:52Z</time>
      </trkpt>
      <trkpt lat="48.52595" lon="2.78493">
        <ele>101</ele>
        <time>2017-04-09T09:43:04Z</time>
      </trkpt>
      <trkpt lat="48.52602" lon="2.78479">
        <ele>101</ele>
        <time>2017-04-09T09:43:10Z</time>
      </trkpt>
      <trkpt lat="48.52606" lon="2.78475">
        <ele>101</ele>
        <time>2017-04-09T09:43:13Z</time>
      </trkpt>
      <trkpt lat="48.52618" lon="2.78453">
        <ele>101</ele>
        <time>2017-04-09T09:43:29Z</time>
      </trkpt>
      <trkpt lat="48.52634" lon="2.78436">
        <ele>101</ele>
        <time>2017-04-09T09:43:38Z</time>
      </trkpt>
      <trkpt lat="48.5264" lon="2.78415">
        <ele>100</ele>
        <time>2017-04-09T09:43:47Z</time>
      </trkpt>
      <trkpt lat="48.52642" lon="2.78393">
        <ele>100</ele>
        <time>2017-04-09T09:43:56Z</time>
      </trkpt>
      <trkpt lat="48.52644" lon="2.78386">
        <ele>100</ele>
        <time>2017-04-09T09:43:59Z</time>
      </trkpt>
      <trkpt lat="48.5265" lon="2.78354">
        <ele>99</ele>
        <time>2017-04-09T09:44:12Z</time>
      </trkpt>
      <trkpt lat="48.52648" lon="2.78337">
        <ele>99</ele>
        <time>2017-04-09T09:44:18Z</time>
      </trkpt>
      <trkpt lat="48.52649" lon="2.7833">
        <ele>99</ele>
        <time>2017-04-09T09:44:21Z</time>
      </trkpt>
      <trkpt lat="48.52649" lon="2.78323">
        <ele>99</ele>
        <time>2017-04-09T09:44:24Z</time>
      </trkpt>
      <trkpt lat="48.52648" lon="2.78315">
        <ele>99</ele>
        <time>2017-04-09T09:44:28Z</time>
      </trkpt>
      <trkpt lat="48.5265" lon="2.78299">
        <ele>98</ele>
        <time>2017-04-09T09:44:34Z</time>
      </trkpt>
      <trkpt lat="48.52648" lon="2.78292">
        <ele>98</ele>
        <time>2017-04-09T09:44:36Z</time>
      </trkpt>
      <trkpt lat="48.52634" lon="2.78253">
        <ele>98</ele>
        <time>2017-04-09T09:44:51Z</time>
      </trkpt>
      <trkpt lat="48.52632" lon="2.78238">
        <ele>98</ele>
        <time>2017-04-09T09:44:57Z</time>
      </trkpt>
      <trkpt lat="48.52634" lon="2.78231">
        <ele>98</ele>
        <time>2017-04-09T09:45:00Z</time>
      </trkpt>
      <trkpt lat="48.52634" lon="2.78224">
        <ele>98</ele>
        <time>2017-04-09T09:45:03Z</time>
      </trkpt>
      <trkpt lat="48.5263" lon="2.78202">
        <ele>98</ele>
        <time>2017-04-09T09:45:13Z</time>
      </trkpt>
      <trkpt lat="48.52631" lon="2.78186">
        <ele>98</ele>
        <time>2017-04-09T09:45:21Z</time>
      </trkpt>
      <trkpt lat="48.52631" lon="2.78179">
        <ele>98</ele>
        <time>2017-04-09T09:45:24Z</time>
      </trkpt>
      <trkpt lat="48.52633" lon="2.78164">
        <ele>97</ele>
        <time>2017-04-09T09:45:30Z</time>
      </trkpt>
      <trkpt lat="48.52631" lon="2.78148">
        <ele>97</ele>
        <time>2017-04-09T09:45:37Z</time>
      </trkpt>
      <trkpt lat="48.52634" lon="2.78139">
        <ele>97</ele>
        <time>2017-04-09T09:45:42Z</time>
      </trkpt>
      <trkpt lat="48.52634" lon="2.78124">
        <ele>97</ele>
        <time>2017-04-09T09:45:49Z</time>
      </trkpt>
      <trkpt lat="48.52637" lon="2.78117">
        <ele>97</ele>
        <time>2017-04-09T09:45:52Z</time>
      </trkpt>
      <trkpt lat="48.52637" lon="2.78109">
        <ele>97</ele>
        <time>2017-04-09T09:45:55Z</time>
      </trkpt>
      <trkpt lat="48.52635" lon="2.78102">
        <ele>97</ele>
        <time>2017-04-09T09:45:58Z</time>
      </trkpt>
      <trkpt lat="48.52632" lon="2.78094">
        <ele>97</ele>
        <time>2017-04-09T09:46:01Z</time>
      </trkpt>
      <trkpt lat="48.52632" lon="2.78085">
        <ele>97</ele>
        <time>2017-04-09T09:46:04Z</time>
      </trkpt>
      <trkpt lat="48.52635" lon="2.78069">
        <ele>97</ele>
        <time>2017-04-09T09:46:10Z</time>
      </trkpt>
      <trkpt lat="48.52634" lon="2.7806">
        <ele>97</ele>
        <time>2017-04-09T09:46:13Z</time>
      </trkpt>
      <trkpt lat="48.52626" lon="2.77997">
        <ele>98</ele>
        <time>2017-04-09T09:46:37Z</time>
      </trkpt>
      <trkpt lat="48.52626" lon="2.7799">
        <ele>98</ele>
        <time>2017-04-09T09:46:40Z</time>
      </trkpt>
      <trkpt lat="48.52626" lon="2.77968">
        <ele>98</ele>
        <time>2017-04-09T09:46:49Z</time>
      </trkpt>
      <trkpt lat="48.52624" lon="2.7794">
        <ele>99</ele>
        <time>2017-04-09T09:47:01Z</time>
      </trkpt>
      <trkpt lat="48.52634" lon="2.77869">
        <ele>98</ele>
        <time>2017-04-09T09:47:31Z</time>
      </trkpt>
      <trkpt lat="48.52636" lon="2.77839">
        <ele>98</ele>
        <time>2017-04-09T09:47:43Z</time>
      </trkpt>
      <trkpt lat="48.52634" lon="2.77823">
        <ele>98</ele>
        <time>2017-04-09T09:47:49Z</time>
      </trkpt>
      <trkpt lat="48.52634" lon="2.77815">
        <ele>98</ele>
        <time>2017-04-09T09:47:52Z</time>
      </trkpt>
      <trkpt lat="48.52637" lon="2.77809">
        <ele>98</ele>
        <time>2017-04-09T09:47:55Z</time>
      </trkpt>
      <trkpt lat="48.52639" lon="2.77794">
        <ele>97</ele>
        <time>2017-04-09T09:48:01Z</time>
      </trkpt>
      <trkpt lat="48.52639" lon="2.7778">
        <ele>97</ele>
        <time>2017-04-09T09:48:07Z</time>
      </trkpt>
      <trkpt lat="48.52652" lon="2.77703">
        <ele>96</ele>
        <time>2017-04-09T09:48:40Z</time>
      </trkpt>
      <trkpt lat="48.52666" lon="2.77632">
        <ele>95</ele>
        <time>2017-04-09T09:49:11Z</time>
      </trkpt>
      <trkpt lat="48.52671" lon="2.7761">
        <ele>95</ele>
        <time>2017-04-09T09:49:21Z</time>
      </trkpt>
      <trkpt lat="48.52674" lon="2.77539">
        <ele>94</ele>
        <time>2017-04-09T09:49:51Z</time>
      </trkpt>
      <trkpt lat="48.52672" lon="2.77477">
        <ele>93</ele>
        <time>2017-04-09T09:50:16Z</time>
      </trkpt>
      <trkpt lat="48.52664" lon="2.77402">
        <ele>92</ele>
        <time>2017-04-09T09:50:47Z</time>
      </trkpt>
      <trkpt lat="48.52653" lon="2.77332">
        <ele>91</ele>
        <time>2017-04-09T09:51:18Z</time>
      </trkpt>
      <trkpt lat="48.52635" lon="2.7726">
        <ele>90</ele>
        <time>2017-04-09T09:51:49Z</time>
      </trkpt>
      <trkpt lat="48.52614" lon="2.77196">
        <ele>90</ele>
        <time>2017-04-09T09:52:19Z</time>
      </trkpt>
      <trkpt lat="48.52607" lon="2.77178">
        <ele>91</ele>
        <time>2017-04-09T09:52:28Z</time>
      </trkpt>
      <trkpt lat="48.52593" lon="2.77115">
        <ele>91</ele>
        <time>2017-04-09T09:52:55Z</time>
      </trkpt>
      <trkpt lat="48.52593" lon="2.77085">
        <ele>90</ele>
        <time>2017-04-09T09:53:08Z</time>
      </trkpt>
      <trkpt lat="48.52601" lon="2.77013">
        <ele>90</ele>
        <time>2017-04-09T09:53:39Z</time>
      </trkpt>
      <trkpt lat="48.52609" lon="2.7694">
        <ele>89</ele>
        <time>2017-04-09T09:54:10Z</time>
      </trkpt>
      <trkpt lat="48.52618" lon="2.76893">
        <ele>88</ele>
        <time>2017-04-09T09:54:31Z</time>
      </trkpt>
      <trkpt lat="48.52624" lon="2.76881">
        <ele>88</ele>
        <time>2017-04-09T09:54:37Z</time>
      </trkpt>
      <trkpt lat="48.52658" lon="2.76832">
        <ele>88</ele>
        <time>2017-04-09T09:55:08Z</time>
      </trkpt>
      <trkpt lat="48.52668" lon="2.76799">
        <ele>88</ele>
        <time>2017-04-09T09:55:23Z</time>
      </trkpt>
      <trkpt lat="48.52678" lon="2.76742">
        <ele>87</ele>
        <time>2017-04-09T09:55:48Z</time>
      </trkpt>
      <trkpt lat="48.52678" lon="2.76735">
        <ele>87</ele>
        <time>2017-04-09T09:55:51Z</time>
      </trkpt>
      <trkpt lat="48.52679" lon="2.76726">
        <ele>87</ele>
        <time>2017-04-09T09:55:55Z</time>
      </trkpt>
      <trkpt lat="48.52694" lon="2.76658">
        <ele>87</ele>
        <time>2017-04-09T09:56:27Z</time>
      </trkpt>
      <trkpt lat="48.52703" lon="2.76609">
        <ele>87</ele>
        <time>2017-04-09T09:56:48Z</time>
      </trkpt>
      <trkpt lat="48.52705" lon="2.76596">
        <ele>87</ele>
        <time>2017-04-09T09:56:54Z</time>
      </trkpt>
      <trkpt lat="48.52709" lon="2.76575">
        <ele>87</ele>
        <time>2017-04-09T09:57:03Z</time>
      </trkpt>
      <trkpt lat="48.52719" lon="2.7652">
        <ele>87</ele>
        <time>2017-04-09T09:57:27Z</time>
      </trkpt>
      <trkpt lat="48.52729" lon="2.76484">
        <ele>88</ele>
        <time>2017-04-09T09:57:43Z</time>
      </trkpt>
      <trkpt lat="48.52733" lon="2.76463">
        <ele>87</ele>
        <time>2017-04-09T09:57:52Z</time>
      </trkpt>
      <trkpt lat="48.52736" lon="2.7645">
        <ele>87</ele>
        <time>2017-04-09T09:57:58Z</time>
      </trkpt>
      <trkpt lat="48.52738" lon="2.76444">
        <ele>87</ele>
        <time>2017-04-09T09:58:01Z</time>
      </trkpt>
      <trkpt lat="48.52752" lon="2.76375">
        <ele>86</ele>
        <time>2017-04-09T09:58:31Z</time>
      </trkpt>
      <trkpt lat="48.52766" lon="2.76305">
        <ele>86</ele>
        <time>2017-04-09T09:59:02Z</time>
      </trkpt>
      <trkpt lat="48.5278" lon="2.76235">
        <ele>86</ele>
        <time>2017-04-09T09:59:33Z</time>
      </trkpt>
      <trkpt lat="48.52793" lon="2.76164">
        <ele>86</ele>
        <time>2017-04-09T10:00:04Z</time>
      </trkpt>
      <trkpt lat="48.52801" lon="2.7611">
        <ele>86</ele>
        <time>2017-04-09T10:00:28Z</time>
      </trkpt>
      <trkpt lat="48.52801" lon="2.76103">
        <ele>86</ele>
        <time>2017-04-09T10:00:31Z</time>
      </trkpt>
      <trkpt lat="48.52806" lon="2.76062">
        <ele>86</ele>
        <time>2017-04-09T10:00:49Z</time>
      </trkpt>
      <trkpt lat="48.52813" lon="2.76043">
        <ele>86</ele>
        <time>2017-04-09T10:00:58Z</time>
      </trkpt>
      <trkpt lat="48.52819" lon="2.75989">
        <ele>87</ele>
        <time>2017-04-09T10:01:22Z</time>
      </trkpt>
      <trkpt lat="48.52822" lon="2.75975">
        <ele>88</ele>
        <time>2017-04-09T10:01:28Z</time>
      </trkpt>
      <trkpt lat="48.52827" lon="2.75896">
        <ele>89</ele>
        <time>2017-04-09T10:02:00Z</time>
      </trkpt>
      <trkpt lat="48.52828" lon="2.75888">
        <ele>89</ele>
        <time>2017-04-09T10:02:03Z</time>
      </trkpt>
      <trkpt lat="48.52829" lon="2.75874">
        <ele>89</ele>
        <time>2017-04-09T10:02:09Z</time>
      </trkpt>
      <trkpt lat="48.52832" lon="2.75838">
        <ele>89</ele>
        <time>2017-04-09T10:02:24Z</time>
      </trkpt>
      <trkpt lat="48.52831" lon="2.75766">
        <ele>90</ele>
        <time>2017-04-09T10:02:55Z</time>
      </trkpt>
      <trkpt lat="48.52829" lon="2.7572">
        <ele>90</ele>
        <time>2017-04-09T10:03:15Z</time>
      </trkpt>
      <trkpt lat="48.52831" lon="2.75705">
        <ele>90</ele>
        <time>2017-04-09T10:03:25Z</time>
      </trkpt>
      <trkpt lat="48.52834" lon="2.75699">
        <ele>90</ele>
        <time>2017-04-09T10:03:30Z</time>
      </trkpt>
      <trkpt lat="48.52842" lon="2.75692">
        <ele>90</ele>
        <time>2017-04-09T10:03:41Z</time>
      </trkpt>
      <trkpt lat="48.52844" lon="2.75685">
        <ele>90</ele>
        <time>2017-04-09T10:03:48Z</time>
      </trkpt>
      <trkpt lat="48.52849" lon="2.7568">
        <ele>90</ele>
        <time>2017-04-09T10:06:36Z</time>
      </trkpt>
      <trkpt lat="48.52851" lon="2.7568">
        <ele>92</ele>
        <time>2017-04-09T10:28:27Z</time>
      </trkpt>
      <trkpt lat="48.52857" lon="2.7568">
        <ele>92</ele>
        <time>2017-04-09T10:28:33Z</time>
      </trkpt>
      <trkpt lat="48.5286" lon="2.75676">
        <ele>92</ele>
        <time>2017-04-09T10:28:56Z</time>
      </trkpt>
      <trkpt lat="48.52865" lon="2.75674">
        <ele>92</ele>
        <time>2017-04-09T10:29:00Z</time>
      </trkpt>
      <trkpt lat="48.52869" lon="2.7567">
        <ele>92</ele>
        <time>2017-04-09T10:29:04Z</time>
      </trkpt>
      <trkpt lat="48.52873" lon="2.75657">
        <ele>92</ele>
        <time>2017-04-09T10:29:12Z</time>
      </trkpt>
      <trkpt lat="48.52873" lon="2.75595">
        <ele>91</ele>
        <time>2017-04-09T10:29:45Z</time>
      </trkpt>
      <trkpt lat="48.52873" lon="2.75587">
        <ele>91</ele>
        <time>2017-04-09T10:29:49Z</time>
      </trkpt>
      <trkpt lat="48.52877" lon="2.75572">
        <ele>90</ele>
        <time>2017-04-09T10:29:57Z</time>
      </trkpt>
      <trkpt lat="48.5288" lon="2.75568">
        <ele>90</ele>
        <time>2017-04-09T10:30:01Z</time>
      </trkpt>
      <trkpt lat="48.52889" lon="2.7556">
        <ele>90</ele>
        <time>2017-04-09T10:30:09Z</time>
      </trkpt>
      <trkpt lat="48.52909" lon="2.75535">
        <ele>91</ele>
        <time>2017-04-09T10:30:27Z</time>
      </trkpt>
      <trkpt lat="48.52925" lon="2.75503">
        <ele>91</ele>
        <time>2017-04-09T10:30:47Z</time>
      </trkpt>
      <trkpt lat="48.5293" lon="2.75499">
        <ele>91</ele>
        <time>2017-04-09T10:30:51Z</time>
      </trkpt>
      <trkpt lat="48.52933" lon="2.75494">
        <ele>91</ele>
        <time>2017-04-09T10:30:54Z</time>
      </trkpt>
      <trkpt lat="48.52937" lon="2.7549">
        <ele>91</ele>
        <time>2017-04-09T10:30:57Z</time>
      </trkpt>
      <trkpt lat="48.52974" lon="2.75476">
        <ele>91</ele>
        <time>2017-04-09T10:31:20Z</time>
      </trkpt>
      <trkpt lat="48.52979" lon="2.75478">
        <ele>91</ele>
        <time>2017-04-09T10:31:24Z</time>
      </trkpt>
      <trkpt lat="48.53005" lon="2.75474">
        <ele>92</ele>
        <time>2017-04-09T10:31:44Z</time>
      </trkpt>
      <trkpt lat="48.5302" lon="2.75456">
        <ele>92</ele>
        <time>2017-04-09T10:31:53Z</time>
      </trkpt>
      <trkpt lat="48.53038" lon="2.75415">
        <ele>93</ele>
        <time>2017-04-09T10:32:15Z</time>
      </trkpt>
      <trkpt lat="48.53046" lon="2.75408">
        <ele>93</ele>
        <time>2017-04-09T10:32:21Z</time>
      </trkpt>
      <trkpt lat="48.53079" lon="2.75395">
        <ele>94</ele>
        <time>2017-04-09T10:32:44Z</time>
      </trkpt>
      <trkpt lat="48.53118" lon="2.75349">
        <ele>93</ele>
        <time>2017-04-09T10:33:15Z</time>
      </trkpt>
      <trkpt lat="48.5314" lon="2.7533">
        <ele>92</ele>
        <time>2017-04-09T10:33:33Z</time>
      </trkpt>
      <trkpt lat="48.53155" lon="2.75322">
        <ele>92</ele>
        <time>2017-04-09T10:33:44Z</time>
      </trkpt>
      <trkpt lat="48.5317" lon="2.7531">
        <ele>92</ele>
        <time>2017-04-09T10:33:55Z</time>
      </trkpt>
      <trkpt lat="48.53174" lon="2.75304">
        <ele>91</ele>
        <time>2017-04-09T10:33:58Z</time>
      </trkpt>
      <trkpt lat="48.53178" lon="2.75299">
        <ele>92</ele>
        <time>2017-04-09T10:34:01Z</time>
      </trkpt>
      <trkpt lat="48.53187" lon="2.75292">
        <ele>92</ele>
        <time>2017-04-09T10:34:06Z</time>
      </trkpt>
      <trkpt lat="48.53193" lon="2.75288">
        <ele>92</ele>
        <time>2017-04-09T10:34:09Z</time>
      </trkpt>
      <trkpt lat="48.53204" lon="2.7527">
        <ele>91</ele>
        <time>2017-04-09T10:34:18Z</time>
      </trkpt>
      <trkpt lat="48.53209" lon="2.75258">
        <ele>91</ele>
        <time>2017-04-09T10:34:24Z</time>
      </trkpt>
      <trkpt lat="48.53217" lon="2.75248">
        <ele>91</ele>
        <time>2017-04-09T10:34:30Z</time>
      </trkpt>
      <trkpt lat="48.53242" lon="2.75205">
        <ele>90</ele>
        <time>2017-04-09T10:34:55Z</time>
      </trkpt>
      <trkpt lat="48.53258" lon="2.75192">
        <ele>89</ele>
        <time>2017-04-09T10:35:06Z</time>
      </trkpt>
      <trkpt lat="48.53303" lon="2.75162">
        <ele>87</ele>
        <time>2017-04-09T10:35:37Z</time>
      </trkpt>
      <trkpt lat="48.53352" lon="2.75131">
        <ele>86</ele>
        <time>2017-04-09T10:36:10Z</time>
      </trkpt>
      <trkpt lat="48.53375" lon="2.75115">
        <ele>86</ele>
        <time>2017-04-09T10:36:25Z</time>
      </trkpt>
      <trkpt lat="48.53383" lon="2.75107">
        <ele>86</ele>
        <time>2017-04-09T10:36:32Z</time>
      </trkpt>
      <trkpt lat="48.53387" lon="2.75105">
        <ele>86</ele>
        <time>2017-04-09T10:36:35Z</time>
      </trkpt>
      <trkpt lat="48.53396" lon="2.75097">
        <ele>86</ele>
        <time>2017-04-09T10:36:42Z</time>
      </trkpt>
      <trkpt lat="48.53446" lon="2.75074">
        <ele>85</ele>
        <time>2017-04-09T10:37:14Z</time>
      </trkpt>
      <trkpt lat="48.53494" lon="2.75056">
        <ele>84</ele>
        <time>2017-04-09T10:37:45Z</time>
      </trkpt>
      <trkpt lat="48.53544" lon="2.75042">
        <ele>83</ele>
        <time>2017-04-09T10:38:16Z</time>
      </trkpt>
      <trkpt lat="48.53568" lon="2.75036">
        <ele>82</ele>
        <time>2017-04-09T10:38:31Z</time>
      </trkpt>
      <trkpt lat="48.53573" lon="2.75035">
        <ele>83</ele>
        <time>2017-04-09T10:38:34Z</time>
      </trkpt>
      <trkpt lat="48.53627" lon="2.75018">
        <ele>83</ele>
        <time>2017-04-09T10:39:07Z</time>
      </trkpt>
      <trkpt lat="48.53646" lon="2.75011">
        <ele>83</ele>
        <time>2017-04-09T10:39:20Z</time>
      </trkpt>
      <trkpt lat="48.5365" lon="2.75007">
        <ele>83</ele>
        <time>2017-04-09T10:39:23Z</time>
      </trkpt>
      <trkpt lat="48.53653" lon="2.75001">
        <ele>83</ele>
        <time>2017-04-09T10:39:26Z</time>
      </trkpt>
      <trkpt lat="48.53664" lon="2.74923">
        <ele>81</ele>
        <time>2017-04-09T10:39:59Z</time>
      </trkpt>
      <trkpt lat="48.53679" lon="2.74853">
        <ele>81</ele>
        <time>2017-04-09T10:40:29Z</time>
      </trkpt>
      <trkpt lat="48.537" lon="2.74788">
        <ele>80</ele>
        <time>2017-04-09T10:40:59Z</time>
      </trkpt>
      <trkpt lat="48.53721" lon="2.74718">
        <ele>80</ele>
        <time>2017-04-09T10:41:32Z</time>
      </trkpt>
      <trkpt lat="48.53723" lon="2.74712">
        <ele>80</ele>
        <time>2017-04-09T10:41:35Z</time>
      </trkpt>
      <trkpt lat="48.53743" lon="2.74639">
        <ele>81</ele>
        <time>2017-04-09T10:42:07Z</time>
      </trkpt>
      <trkpt lat="48.53763" lon="2.74575">
        <ele>81</ele>
        <time>2017-04-09T10:42:37Z</time>
      </trkpt>
      <trkpt lat="48.53793" lon="2.74512">
        <ele>82</ele>
        <time>2017-04-09T10:43:10Z</time>
      </trkpt>
      <trkpt lat="48.53826" lon="2.74458">
        <ele>82</ele>
        <time>2017-04-09T10:43:41Z</time>
      </trkpt>
      <trkpt lat="48.53862" lon="2.7441">
        <ele>83</ele>
        <time>2017-04-09T10:44:11Z</time>
      </trkpt>
      <trkpt lat="48.53869" lon="2.744">
        <ele>82</ele>
        <time>2017-04-09T10:44:17Z</time>
      </trkpt>
      <trkpt lat="48.53904" lon="2.74351">
        <ele>83</ele>
        <time>2017-04-09T10:44:47Z</time>
      </trkpt>
      <trkpt lat="48.5394" lon="2.743">
        <ele>83</ele>
        <time>2017-04-09T10:45:18Z</time>
      </trkpt>
      <trkpt lat="48.53972" lon="2.74247">
        <ele>83</ele>
        <time>2017-04-09T10:45:48Z</time>
      </trkpt>
      <trkpt lat="48.53993" lon="2.74207">
        <ele>84</ele>
        <time>2017-04-09T10:46:09Z</time>
      </trkpt>
      <trkpt lat="48.54011" lon="2.74156">
        <ele>84</ele>
        <time>2017-04-09T10:46:33Z</time>
      </trkpt>
      <trkpt lat="48.54021" lon="2.74082">
        <ele>83</ele>
        <time>2017-04-09T10:47:04Z</time>
      </trkpt>
      <trkpt lat="48.54027" lon="2.74002">
        <ele>83</ele>
        <time>2017-04-09T10:47:37Z</time>
      </trkpt>
      <trkpt lat="48.54031" lon="2.73981">
        <ele>84</ele>
        <time>2017-04-09T10:47:46Z</time>
      </trkpt>
      <trkpt lat="48.54057" lon="2.73919">
        <ele>84</ele>
        <time>2017-04-09T10:48:16Z</time>
      </trkpt>
      <trkpt lat="48.54084" lon="2.73849">
        <ele>85</ele>
        <time>2017-04-09T10:48:49Z</time>
      </trkpt>
      <trkpt lat="48.54105" lon="2.73782">
        <ele>86</ele>
        <time>2017-04-09T10:49:20Z</time>
      </trkpt>
      <trkpt lat="48.54118" lon="2.73742">
        <ele>86</ele>
        <time>2017-04-09T10:49:38Z</time>
      </trkpt>
      <trkpt lat="48.54128" lon="2.73671">
        <ele>86</ele>
        <time>2017-04-09T10:50:08Z</time>
      </trkpt>
      <trkpt lat="48.54137" lon="2.73598">
        <ele>86</ele>
        <time>2017-04-09T10:50:39Z</time>
      </trkpt>
      <trkpt lat="48.5415" lon="2.73528">
        <ele>85</ele>
        <time>2017-04-09T10:51:09Z</time>
      </trkpt>
      <trkpt lat="48.54158" lon="2.7351">
        <ele>85</ele>
        <time>2017-04-09T10:51:18Z</time>
      </trkpt>
      <trkpt lat="48.54162" lon="2.73504">
        <ele>85</ele>
        <time>2017-04-09T10:51:21Z</time>
      </trkpt>
      <trkpt lat="48.54178" lon="2.73488">
        <ele>85</ele>
        <time>2017-04-09T10:51:33Z</time>
      </trkpt>
      <trkpt lat="48.54183" lon="2.73486">
        <ele>85</ele>
        <time>2017-04-09T10:51:36Z</time>
      </trkpt>
      <trkpt lat="48.542" lon="2.73483">
        <ele>85</ele>
        <time>2017-04-09T10:51:48Z</time>
      </trkpt>
      <trkpt lat="48.54252" lon="2.73489">
        <ele>85</ele>
        <time>2017-04-09T10:52:21Z</time>
      </trkpt>
      <trkpt lat="48.54267" lon="2.7349">
        <ele>86</ele>
        <time>2017-04-09T10:52:30Z</time>
      </trkpt>
      <trkpt lat="48.54286" lon="2.73492">
        <ele>85</ele>
        <time>2017-04-09T10:52:42Z</time>
      </trkpt>
      <trkpt lat="48.54334" lon="2.73506">
        <ele>85</ele>
        <time>2017-04-09T10:53:12Z</time>
      </trkpt>
      <trkpt lat="48.5438" lon="2.73528">
        <ele>85</ele>
        <time>2017-04-09T10:53:42Z</time>
      </trkpt>
      <trkpt lat="48.54395" lon="2.73535">
        <ele>85</ele>
        <time>2017-04-09T10:53:52Z</time>
      </trkpt>
      <trkpt lat="48.54408" lon="2.73546">
        <ele>84</ele>
        <time>2017-04-09T10:54:04Z</time>
      </trkpt>
      <trkpt lat="48.54452" lon="2.73565">
        <ele>84</ele>
        <time>2017-04-09T10:54:35Z</time>
      </trkpt>
      <trkpt lat="48.54497" lon="2.7359">
        <ele>84</ele>
        <time>2017-04-09T10:55:05Z</time>
      </trkpt>
      <trkpt lat="48.54538" lon="2.7361">
        <ele>84</ele>
        <time>2017-04-09T10:55:32Z</time>
      </trkpt>
      <trkpt lat="48.54553" lon="2.73611">
        <ele>84</ele>
        <time>2017-04-09T10:55:42Z</time>
      </trkpt>
      <trkpt lat="48.54562" lon="2.73607">
        <ele>84</ele>
        <time>2017-04-09T10:55:48Z</time>
      </trkpt>
      <trkpt lat="48.54576" lon="2.73594">
        <ele>83</ele>
        <time>2017-04-09T10:55:57Z</time>
      </trkpt>
      <trkpt lat="48.54583" lon="2.73585">
        <ele>83</ele>
        <time>2017-04-09T10:56:03Z</time>
      </trkpt>
      <trkpt lat="48.54626" lon="2.73541">
        <ele>83</ele>
        <time>2017-04-09T10:56:34Z</time>
      </trkpt>
      <trkpt lat="48.54634" lon="2.73533">
        <ele>83</ele>
        <time>2017-04-09T10:56:40Z</time>
      </trkpt>
      <trkpt lat="48.54637" lon="2.73528">
        <ele>83</ele>
        <time>2017-04-09T10:56:43Z</time>
      </trkpt>
      <trkpt lat="48.54641" lon="2.73524">
        <ele>83</ele>
        <time>2017-04-09T10:56:46Z</time>
      </trkpt>
      <trkpt lat="48.54663" lon="2.73505">
        <ele>82</ele>
        <time>2017-04-09T10:57:01Z</time>
      </trkpt>
      <trkpt lat="48.54703" lon="2.7346">
        <ele>82</ele>
        <time>2017-04-09T10:57:32Z</time>
      </trkpt>
      <trkpt lat="48.54728" lon="2.73433">
        <ele>82</ele>
        <time>2017-04-09T10:57:48Z</time>
      </trkpt>
      <trkpt lat="48.5473" lon="2.73427">
        <ele>82</ele>
        <time>2017-04-09T10:57:51Z</time>
      </trkpt>
      <trkpt lat="48.54731" lon="2.73418">
        <ele>82</ele>
        <time>2017-04-09T10:57:55Z</time>
      </trkpt>
      <trkpt lat="48.54724" lon="2.73345">
        <ele>82</ele>
        <time>2017-04-09T10:58:25Z</time>
      </trkpt>
      <trkpt lat="48.54723" lon="2.73326">
        <ele>82</ele>
        <time>2017-04-09T10:58:33Z</time>
      </trkpt>
      <trkpt lat="48.54722" lon="2.73318">
        <ele>82</ele>
        <time>2017-04-09T10:58:36Z</time>
      </trkpt>
      <trkpt lat="48.54715" lon="2.73235">
        <ele>82</ele>
        <time>2017-04-09T10:59:09Z</time>
      </trkpt>
      <trkpt lat="48.54707" lon="2.73162">
        <ele>82</ele>
        <time>2017-04-09T10:59:40Z</time>
      </trkpt>
      <trkpt lat="48.54706" lon="2.7314">
        <ele>82</ele>
        <time>2017-04-09T10:59:49Z</time>
      </trkpt>
      <trkpt lat="48.54704" lon="2.73132">
        <ele>82</ele>
        <time>2017-04-09T10:59:52Z</time>
      </trkpt>
      <trkpt lat="48.54698" lon="2.73062">
        <ele>82</ele>
        <time>2017-04-09T11:00:22Z</time>
      </trkpt>
      <trkpt lat="48.54691" lon="2.72986">
        <ele>82</ele>
        <time>2017-04-09T11:00:55Z</time>
      </trkpt>
      <trkpt lat="48.54685" lon="2.72929">
        <ele>82</ele>
        <time>2017-04-09T11:01:19Z</time>
      </trkpt>
      <trkpt lat="48.54686" lon="2.72922">
        <ele>82</ele>
        <time>2017-04-09T11:01:22Z</time>
      </trkpt>
      <trkpt lat="48.54685" lon="2.72906">
        <ele>82</ele>
        <time>2017-04-09T11:01:28Z</time>
      </trkpt>
      <trkpt lat="48.54676" lon="2.72836">
        <ele>82</ele>
        <time>2017-04-09T11:01:56Z</time>
      </trkpt>
      <trkpt lat="48.54668" lon="2.72807">
        <ele>82</ele>
        <time>2017-04-09T11:02:08Z</time>
      </trkpt>
      <trkpt lat="48.54666" lon="2.72801">
        <ele>82</ele>
        <time>2017-04-09T11:02:11Z</time>
      </trkpt>
      <trkpt lat="48.54659" lon="2.72759">
        <ele>82</ele>
        <time>2017-04-09T11:02:28Z</time>
      </trkpt>
      <trkpt lat="48.54656" lon="2.72753">
        <ele>82</ele>
        <time>2017-04-09T11:02:30Z</time>
      </trkpt>
      <trkpt lat="48.54646" lon="2.72679">
        <ele>82</ele>
        <time>2017-04-09T11:03:02Z</time>
      </trkpt>
      <trkpt lat="48.54631" lon="2.72605">
        <ele>82</ele>
        <time>2017-04-09T11:03:33Z</time>
      </trkpt>
      <trkpt lat="48.54617" lon="2.72527">
        <ele>82</ele>
        <time>2017-04-09T11:04:05Z</time>
      </trkpt>
      <trkpt lat="48.54614" lon="2.72512">
        <ele>82</ele>
        <time>2017-04-09T11:04:11Z</time>
      </trkpt>
      <trkpt lat="48.546" lon="2.7244">
        <ele>82</ele>
        <time>2017-04-09T11:04:41Z</time>
      </trkpt>
      <trkpt lat="48.54587" lon="2.72366">
        <ele>83</ele>
        <time>2017-04-09T11:05:12Z</time>
      </trkpt>
      <trkpt lat="48.54572" lon="2.72294">
        <ele>83</ele>
        <time>2017-04-09T11:05:42Z</time>
      </trkpt>
      <trkpt lat="48.54561" lon="2.72223">
        <ele>83</ele>
        <time>2017-04-09T11:06:12Z</time>
      </trkpt>
      <trkpt lat="48.54544" lon="2.72144">
        <ele>83</ele>
        <time>2017-04-09T11:06:45Z</time>
      </trkpt>
      <trkpt lat="48.5454" lon="2.7213">
        <ele>83</ele>
        <time>2017-04-09T11:06:51Z</time>
      </trkpt>
      <trkpt lat="48.54525" lon="2.72052">
        <ele>83</ele>
        <time>2017-04-09T11:07:24Z</time>
      </trkpt>
      <trkpt lat="48.54512" lon="2.71973">
        <ele>83</ele>
        <time>2017-04-09T11:07:57Z</time>
      </trkpt>
      <trkpt lat="48.54511" lon="2.71966">
        <ele>83</ele>
        <time>2017-04-09T11:08:00Z</time>
      </trkpt>
      <trkpt lat="48.54495" lon="2.71892">
        <ele>84</ele>
        <time>2017-04-09T11:08:31Z</time>
      </trkpt>
      <trkpt lat="48.54482" lon="2.71815">
        <ele>84</ele>
        <time>2017-04-09T11:09:04Z</time>
      </trkpt>
      <trkpt lat="48.54469" lon="2.71744">
        <ele>85</ele>
        <time>2017-04-09T11:09:34Z</time>
      </trkpt>
      <trkpt lat="48.54457" lon="2.71675">
        <ele>87</ele>
        <time>2017-04-09T11:10:04Z</time>
      </trkpt>
      <trkpt lat="48.54446" lon="2.71637">
        <ele>87</ele>
        <time>2017-04-09T11:10:21Z</time>
      </trkpt>
      <trkpt lat="48.54442" lon="2.71608">
        <ele>88</ele>
        <time>2017-04-09T11:10:33Z</time>
      </trkpt>
      <trkpt lat="48.54442" lon="2.71601">
        <ele>89</ele>
        <time>2017-04-09T11:10:36Z</time>
      </trkpt>
      <trkpt lat="48.54428" lon="2.71525">
        <ele>91</ele>
        <time>2017-04-09T11:11:10Z</time>
      </trkpt>
      <trkpt lat="48.54415" lon="2.71451">
        <ele>94</ele>
        <time>2017-04-09T11:11:43Z</time>
      </trkpt>
      <trkpt lat="48.54414" lon="2.71444">
        <ele>94</ele>
        <time>2017-04-09T11:11:46Z</time>
      </trkpt>
      <trkpt lat="48.54412" lon="2.71423">
        <ele>94</ele>
        <time>2017-04-09T11:11:55Z</time>
      </trkpt>
      <trkpt lat="48.54409" lon="2.71409">
        <ele>94</ele>
        <time>2017-04-09T11:12:01Z</time>
      </trkpt>
      <trkpt lat="48.54407" lon="2.71379">
        <ele>94</ele>
        <time>2017-04-09T11:12:13Z</time>
      </trkpt>
      <trkpt lat="48.54401" lon="2.71341">
        <ele>94</ele>
        <time>2017-04-09T11:12:29Z</time>
      </trkpt>
      <trkpt lat="48.544" lon="2.71327">
        <ele>94</ele>
        <time>2017-04-09T11:12:35Z</time>
      </trkpt>
      <trkpt lat="48.54396" lon="2.71305">
        <ele>94</ele>
        <time>2017-04-09T11:12:45Z</time>
      </trkpt>
      <trkpt lat="48.5439" lon="2.71245">
        <ele>94</ele>
        <time>2017-04-09T11:13:10Z</time>
      </trkpt>
      <trkpt lat="48.54375" lon="2.71169">
        <ele>94</ele>
        <time>2017-04-09T11:13:43Z</time>
      </trkpt>
      <trkpt lat="48.54357" lon="2.71097">
        <ele>94</ele>
        <time>2017-04-09T11:14:13Z</time>
      </trkpt>
      <trkpt lat="48.54343" lon="2.71028">
        <ele>94</ele>
        <time>2017-04-09T11:14:44Z</time>
      </trkpt>
      <trkpt lat="48.5434" lon="2.71011">
        <ele>93</ele>
        <time>2017-04-09T11:14:52Z</time>
      </trkpt>
      <trkpt lat="48.54334" lon="2.70991">
        <ele>93</ele>
        <time>2017-04-09T11:15:01Z</time>
      </trkpt>
      <trkpt lat="48.54332" lon="2.70983">
        <ele>93</ele>
        <time>2017-04-09T11:15:04Z</time>
      </trkpt>
      <trkpt lat="48.54315" lon="2.70913">
        <ele>91</ele>
        <time>2017-04-09T11:15:36Z</time>
      </trkpt>
      <trkpt lat="48.54318" lon="2.70907">
        <ele>91</ele>
        <time>2017-04-09T11:15:41Z</time>
      </trkpt>
      <trkpt lat="48.54323" lon="2.70903">
        <ele>91</ele>
        <time>2017-04-09T11:15:46Z</time>
      </trkpt>
      <trkpt lat="48.54327" lon="2.70896">
        <ele>91</ele>
        <time>2017-04-09T11:15:50Z</time>
      </trkpt>
      <trkpt lat="48.54332" lon="2.70883">
        <ele>90</ele>
        <time>2017-04-09T11:15:58Z</time>
      </trkpt>
      <trkpt lat="48.54347" lon="2.70876">
        <ele>91</ele>
        <time>2017-04-09T11:16:11Z</time>
      </trkpt>
      <trkpt lat="48.54385" lon="2.7085">
        <ele>93</ele>
        <time>2017-04-09T11:16:42Z</time>
      </trkpt>
      <trkpt lat="48.54433" lon="2.70822">
        <ele>93</ele>
        <time>2017-04-09T11:17:14Z</time>
      </trkpt>
      <trkpt lat="48.54446" lon="2.70812">
        <ele>93</ele>
        <time>2017-04-09T11:17:24Z</time>
      </trkpt>
      <trkpt lat="48.54487" lon="2.70783">
        <ele>92</ele>
        <time>2017-04-09T11:17:56Z</time>
      </trkpt>
      <trkpt lat="48.5453" lon="2.70744">
        <ele>92</ele>
        <time>2017-04-09T11:18:28Z</time>
      </trkpt>
      <trkpt lat="48.5454" lon="2.70734">
        <ele>91</ele>
        <time>2017-04-09T11:18:44Z</time>
      </trkpt>
      <trkpt lat="48.54542" lon="2.70728">
        <ele>91</ele>
        <time>2017-04-09T11:18:48Z</time>
      </trkpt>
      <trkpt lat="48.54546" lon="2.70723">
        <ele>91</ele>
        <time>2017-04-09T11:18:53Z</time>
      </trkpt>
      <trkpt lat="48.54549" lon="2.70717">
        <ele>91</ele>
        <time>2017-04-09T11:18:59Z</time>
      </trkpt>
      <trkpt lat="48.54554" lon="2.70714">
        <ele>93</ele>
        <time>2017-04-09T11:25:26Z</time>
      </trkpt>
      <trkpt lat="48.54562" lon="2.7071">
        <ele>93</ele>
        <time>2017-04-09T11:25:34Z</time>
      </trkpt>
      <trkpt lat="48.54565" lon="2.70706">
        <ele>93</ele>
        <time>2017-04-09T11:25:38Z</time>
      </trkpt>
      <trkpt lat="48.54569" lon="2.707">
        <ele>93</ele>
        <time>2017-04-09T11:25:42Z</time>
      </trkpt>
      <trkpt lat="48.54595" lon="2.70675">
        <ele>92</ele>
        <time>2017-04-09T11:26:05Z</time>
      </trkpt>
      <trkpt lat="48.54612" lon="2.70655">
        <ele>91</ele>
        <time>2017-04-09T11:26:20Z</time>
      </trkpt>
      <trkpt lat="48.5462" lon="2.70649">
        <ele>90</ele>
        <time>2017-04-09T11:26:26Z</time>
      </trkpt>
      <trkpt lat="48.54623" lon="2.70644">
        <ele>90</ele>
        <time>2017-04-09T11:26:30Z</time>
      </trkpt>
      <trkpt lat="48.54627" lon="2.70638">
        <ele>90</ele>
        <time>2017-04-09T11:26:34Z</time>
      </trkpt>
      <trkpt lat="48.54642" lon="2.70605">
        <ele>89</ele>
        <time>2017-04-09T11:26:54Z</time>
      </trkpt>
      <trkpt lat="48.54653" lon="2.70581">
        <ele>90</ele>
        <time>2017-04-09T11:27:06Z</time>
      </trkpt>
      <trkpt lat="48.54659" lon="2.70571">
        <ele>90</ele>
        <time>2017-04-09T11:27:12Z</time>
      </trkpt>
      <trkpt lat="48.54663" lon="2.70567">
        <ele>90</ele>
        <time>2017-04-09T11:27:15Z</time>
      </trkpt>
      <trkpt lat="48.54671" lon="2.70548">
        <ele>89</ele>
        <time>2017-04-09T11:27:26Z</time>
      </trkpt>
      <trkpt lat="48.54675" lon="2.70543">
        <ele>89</ele>
        <time>2017-04-09T11:27:30Z</time>
      </trkpt>
      <trkpt lat="48.54693" lon="2.70533">
        <ele>88</ele>
        <time>2017-04-09T11:27:45Z</time>
      </trkpt>
      <trkpt lat="48.54709" lon="2.70528">
        <ele>86</ele>
        <time>2017-04-09T11:27:57Z</time>
      </trkpt>
      <trkpt lat="48.54713" lon="2.70524">
        <ele>86</ele>
        <time>2017-04-09T11:28:01Z</time>
      </trkpt>
      <trkpt lat="48.54724" lon="2.70522">
        <ele>86</ele>
        <time>2017-04-09T11:28:09Z</time>
      </trkpt>
      <trkpt lat="48.54729" lon="2.70522">
        <ele>85</ele>
        <time>2017-04-09T11:28:12Z</time>
      </trkpt>
      <trkpt lat="48.54733" lon="2.7052">
        <ele>85</ele>
        <time>2017-04-09T11:28:15Z</time>
      </trkpt>
      <trkpt lat="48.54752" lon="2.70519">
        <ele>85</ele>
        <time>2017-04-09T11:28:28Z</time>
      </trkpt>
      <trkpt lat="48.54782" lon="2.7051">
        <ele>84</ele>
        <time>2017-04-09T11:28:48Z</time>
      </trkpt>
      <trkpt lat="48.54831" lon="2.70503">
        <ele>82</ele>
        <time>2017-04-09T11:29:19Z</time>
      </trkpt>
      <trkpt lat="48.5487" lon="2.70494">
        <ele>81</ele>
        <time>2017-04-09T11:29:47Z</time>
      </trkpt>
      <trkpt lat="48.54875" lon="2.70489">
        <ele>81</ele>
        <time>2017-04-09T11:29:51Z</time>
      </trkpt>
      <trkpt lat="48.54879" lon="2.70487">
        <ele>81</ele>
        <time>2017-04-09T11:29:54Z</time>
      </trkpt>
      <trkpt lat="48.54901" lon="2.70492">
        <ele>80</ele>
        <time>2017-04-09T11:30:10Z</time>
      </trkpt>
      <trkpt lat="48.54911" lon="2.70491">
        <ele>80</ele>
        <time>2017-04-09T11:30:16Z</time>
      </trkpt>
      <trkpt lat="48.54915" lon="2.70493">
        <ele>80</ele>
        <time>2017-04-09T11:30:20Z</time>
      </trkpt>
      <trkpt lat="48.5492" lon="2.70505">
        <ele>80</ele>
        <time>2017-04-09T11:30:26Z</time>
      </trkpt>
      <trkpt lat="48.54925" lon="2.70527">
        <ele>80</ele>
        <time>2017-04-09T11:30:35Z</time>
      </trkpt>
      <trkpt lat="48.54928" lon="2.70542">
        <ele>80</ele>
        <time>2017-04-09T11:30:41Z</time>
      </trkpt>
      <trkpt lat="48.54932" lon="2.70548">
        <ele>80</ele>
        <time>2017-04-09T11:30:44Z</time>
      </trkpt>
      <trkpt lat="48.54937" lon="2.70561">
        <ele>80</ele>
        <time>2017-04-09T11:30:51Z</time>
      </trkpt>
      <trkpt lat="48.54938" lon="2.70572">
        <ele>81</ele>
        <time>2017-04-09T11:30:55Z</time>
      </trkpt>
      <trkpt lat="48.54944" lon="2.70585">
        <ele>81</ele>
        <time>2017-04-09T11:31:01Z</time>
      </trkpt>
      <trkpt lat="48.54947" lon="2.70598">
        <ele>81</ele>
        <time>2017-04-09T11:31:07Z</time>
      </trkpt>
      <trkpt lat="48.54951" lon="2.7061">
        <ele>81</ele>
        <time>2017-04-09T11:31:13Z</time>
      </trkpt>
      <trkpt lat="48.54963" lon="2.70679">
        <ele>80</ele>
        <time>2017-04-09T11:31:44Z</time>
      </trkpt>
      <trkpt lat="48.54976" lon="2.70747">
        <ele>79</ele>
        <time>2017-04-09T11:32:15Z</time>
      </trkpt>
      <trkpt lat="48.54979" lon="2.70775">
        <ele>78</ele>
        <time>2017-04-09T11:32:27Z</time>
      </trkpt>
      <trkpt lat="48.54978" lon="2.70802">
        <ele>78</ele>
        <time>2017-04-09T11:32:39Z</time>
      </trkpt>
      <trkpt lat="48.54985" lon="2.70859">
        <ele>78</ele>
        <time>2017-04-09T11:33:04Z</time>
      </trkpt>
      <trkpt lat="48.54999" lon="2.70904">
        <ele>77</ele>
        <time>2017-04-09T11:33:27Z</time>
      </trkpt>
      <trkpt lat="48.55002" lon="2.7091">
        <ele>77</ele>
        <time>2017-04-09T11:33:31Z</time>
      </trkpt>
      <trkpt lat="48.55005" lon="2.7094">
        <ele>78</ele>
        <time>2017-04-09T11:33:48Z</time>
      </trkpt>
      <trkpt lat="48.55015" lon="2.70944">
        <ele>78</ele>
        <time>2017-04-09T11:33:56Z</time>
      </trkpt>
      <trkpt lat="48.5503" lon="2.70946">
        <ele>78</ele>
        <time>2017-04-09T11:34:07Z</time>
      </trkpt>
      <trkpt lat="48.5504" lon="2.70954">
        <ele>78</ele>
        <time>2017-04-09T11:34:17Z</time>
      </trkpt>
      <trkpt lat="48.55049" lon="2.70953">
        <ele>77</ele>
        <time>2017-04-09T11:34:27Z</time>
      </trkpt>
      <trkpt lat="48.55059" lon="2.70948">
        <ele>77</ele>
        <time>2017-04-09T11:34:37Z</time>
      </trkpt>
      <trkpt lat="48.5508" lon="2.70947">
        <ele>77</ele>
        <time>2017-04-09T11:34:54Z</time>
      </trkpt>
      <trkpt lat="48.55086" lon="2.70949">
        <ele>77</ele>
        <time>2017-04-09T11:34:59Z</time>
      </trkpt>
      <trkpt lat="48.55097" lon="2.70951">
        <ele>78</ele>
        <time>2017-04-09T11:35:22Z</time>
      </trkpt>
      <trkpt lat="48.55104" lon="2.70947">
        <ele>78</ele>
        <time>2017-04-09T11:35:43Z</time>
      </trkpt>
      <trkpt lat="48.55109" lon="2.70949">
        <ele>78</ele>
        <time>2017-04-09T11:35:49Z</time>
      </trkpt>
      <trkpt lat="48.55117" lon="2.70958">
        <ele>78</ele>
        <time>2017-04-09T11:36:03Z</time>
      </trkpt>
      <trkpt lat="48.55123" lon="2.70959">
        <ele>78</ele>
        <time>2017-04-09T11:36:27Z</time>
      </trkpt>
      <trkpt lat="48.55121" lon="2.70955">
        <ele>78</ele>
        <time>2017-04-09T11:38:14Z</time>
      </trkpt>
      <trkpt lat="48.55121" lon="2.70942">
        <ele>78</ele>
        <time>2017-04-09T11:38:56Z</time>
      </trkpt>
      <trkpt lat="48.55125" lon="2.70949">
        <ele>79</ele>
        <time>2017-04-09T11:54:08Z</time>
      </trkpt>
      <trkpt lat="48.55131" lon="2.70947">
        <ele>79</ele>
        <time>2017-04-09T11:56:25Z</time>
      </trkpt>
      <trkpt lat="48.55136" lon="2.70948">
        <ele>79</ele>
        <time>2017-04-09T11:57:05Z</time>
      </trkpt>
      <trkpt lat="48.55141" lon="2.70957">
        <ele>79</ele>
        <time>2017-04-09T11:57:21Z</time>
      </trkpt>
      <trkpt lat="48.55145" lon="2.7096">
        <ele>78</ele>
        <time>2017-04-09T11:57:28Z</time>
      </trkpt>
      <trkpt lat="48.5515" lon="2.70959">
        <ele>78</ele>
        <time>2017-04-09T11:57:35Z</time>
      </trkpt>
      <trkpt lat="48.55155" lon="2.7096">
        <ele>77</ele>
        <time>2017-04-09T11:57:41Z</time>
      </trkpt>
      <trkpt lat="48.55159" lon="2.70963">
        <ele>77</ele>
        <time>2017-04-09T11:57:46Z</time>
      </trkpt>
      <trkpt lat="48.55164" lon="2.70962">
        <ele>77</ele>
        <time>2017-04-09T11:57:54Z</time>
      </trkpt>
      <trkpt lat="48.55155" lon="2.70959">
        <ele>76</ele>
        <time>2017-04-09T11:59:09Z</time>
      </trkpt>
      <trkpt lat="48.5514" lon="2.70953">
        <ele>76</ele>
        <time>2017-04-09T11:59:25Z</time>
      </trkpt>
      <trkpt lat="48.55139" lon="2.70946">
        <ele>76</ele>
        <time>2017-04-09T11:59:33Z</time>
      </trkpt>
      <trkpt lat="48.55135" lon="2.70943">
        <ele>77</ele>
        <time>2017-04-09T11:59:39Z</time>
      </trkpt>
      <trkpt lat="48.5513" lon="2.70943">
        <ele>77</ele>
        <time>2017-04-09T11:59:43Z</time>
      </trkpt>
      <trkpt lat="48.55125" lon="2.70946">
        <ele>77</ele>
        <time>2017-04-09T11:59:47Z</time>
      </trkpt>
      <trkpt lat="48.55119" lon="2.70947">
        <ele>77</ele>
        <time>2017-04-09T12:01:20Z</time>
      </trkpt>
      <trkpt lat="48.55117" lon="2.70953">
        <ele>77</ele>
        <time>2017-04-09T12:04:00Z</time>
      </trkpt>
      <trkpt lat="48.55118" lon="2.70947">
        <ele>77</ele>
        <time>2017-04-09T12:09:44Z</time>
      </trkpt>
      <trkpt lat="48.5511" lon="2.70953">
        <ele>76</ele>
        <time>2017-04-09T12:11:17Z</time>
      </trkpt>
      <trkpt lat="48.55102" lon="2.70969">
        <ele>76</ele>
        <time>2017-04-09T12:11:45Z</time>
      </trkpt>
      <trkpt lat="48.55101" lon="2.70976">
        <ele>76</ele>
        <time>2017-04-09T12:11:50Z</time>
      </trkpt>
      <trkpt lat="48.55099" lon="2.70984">
        <ele>76</ele>
        <time>2017-04-09T12:11:55Z</time>
      </trkpt>
      <trkpt lat="48.55099" lon="2.70991">
        <ele>76</ele>
        <time>2017-04-09T12:11:58Z</time>
      </trkpt>
      <trkpt lat="48.55098" lon="2.71006">
        <ele>76</ele>
        <time>2017-04-09T12:12:07Z</time>
      </trkpt>
      <trkpt lat="48.55101" lon="2.71023">
        <ele>76</ele>
        <time>2017-04-09T12:12:16Z</time>
      </trkpt>
      <trkpt lat="48.55101" lon="2.7103">
        <ele>76</ele>
        <time>2017-04-09T12:12:20Z</time>
      </trkpt>
      <trkpt lat="48.55102" lon="2.71038">
        <ele>76</ele>
        <time>2017-04-09T12:12:24Z</time>
      </trkpt>
      <trkpt lat="48.55099" lon="2.71076">
        <ele>76</ele>
        <time>2017-04-09T12:12:42Z</time>
      </trkpt>
      <trkpt lat="48.551" lon="2.71084">
        <ele>76</ele>
        <time>2017-04-09T12:12:47Z</time>
      </trkpt>
      <trkpt lat="48.551" lon="2.71092">
        <ele>76</ele>
        <time>2017-04-09T12:12:51Z</time>
      </trkpt>
      <trkpt lat="48.551" lon="2.711">
        <ele>75</ele>
        <time>2017-04-09T12:12:54Z</time>
      </trkpt>
      <trkpt lat="48.55102" lon="2.71107">
        <ele>75</ele>
        <time>2017-04-09T12:12:57Z</time>
      </trkpt>
      <trkpt lat="48.55104" lon="2.7113">
        <ele>76</ele>
        <time>2017-04-09T12:13:11Z</time>
      </trkpt>
      <trkpt lat="48.55104" lon="2.71138">
        <ele>76</ele>
        <time>2017-04-09T12:13:15Z</time>
      </trkpt>
      <trkpt lat="48.55102" lon="2.71145">
        <ele>76</ele>
        <time>2017-04-09T12:13:18Z</time>
      </trkpt>
      <trkpt lat="48.55102" lon="2.71153">
        <ele>76</ele>
        <time>2017-04-09T12:13:22Z</time>
      </trkpt>
      <trkpt lat="48.55105" lon="2.71159">
        <ele>76</ele>
        <time>2017-04-09T12:13:28Z</time>
      </trkpt>
      <trkpt lat="48.55107" lon="2.71166">
        <ele>76</ele>
        <time>2017-04-09T12:13:31Z</time>
      </trkpt>
      <trkpt lat="48.55114" lon="2.71178">
        <ele>76</ele>
        <time>2017-04-09T12:13:38Z</time>
      </trkpt>
      <trkpt lat="48.5513" lon="2.71196">
        <ele>76</ele>
        <time>2017-04-09T12:13:51Z</time>
      </trkpt>
      <trkpt lat="48.55135" lon="2.712">
        <ele>76</ele>
        <time>2017-04-09T12:13:56Z</time>
      </trkpt>
      <trkpt lat="48.55139" lon="2.71205">
        <ele>76</ele>
        <time>2017-04-09T12:14:00Z</time>
      </trkpt>
      <trkpt lat="48.55167" lon="2.71229">
        <ele>77</ele>
        <time>2017-04-09T12:14:24Z</time>
      </trkpt>
      <trkpt lat="48.55174" lon="2.7124">
        <ele>77</ele>
        <time>2017-04-09T12:14:30Z</time>
      </trkpt>
      <trkpt lat="48.55217" lon="2.71268">
        <ele>79</ele>
        <time>2017-04-09T12:15:02Z</time>
      </trkpt>
      <trkpt lat="48.55221" lon="2.71271">
        <ele>79</ele>
        <time>2017-04-09T12:15:06Z</time>
      </trkpt>
      <trkpt lat="48.55225" lon="2.71276">
        <ele>80</ele>
        <time>2017-04-09T12:15:12Z</time>
      </trkpt>
      <trkpt lat="48.5523" lon="2.7128">
        <ele>80</ele>
        <time>2017-04-09T12:15:16Z</time>
      </trkpt>
      <trkpt lat="48.55238" lon="2.71289">
        <ele>80</ele>
        <time>2017-04-09T12:15:25Z</time>
      </trkpt>
      <trkpt lat="48.55256" lon="2.71303">
        <ele>81</ele>
        <time>2017-04-09T12:15:38Z</time>
      </trkpt>
      <trkpt lat="48.55267" lon="2.71318">
        <ele>81</ele>
        <time>2017-04-09T12:15:50Z</time>
      </trkpt>
      <trkpt lat="48.55272" lon="2.71321">
        <ele>81</ele>
        <time>2017-04-09T12:15:53Z</time>
      </trkpt>
      <trkpt lat="48.55281" lon="2.71332">
        <ele>81</ele>
        <time>2017-04-09T12:16:01Z</time>
      </trkpt>
      <trkpt lat="48.55304" lon="2.71345">
        <ele>82</ele>
        <time>2017-04-09T12:16:17Z</time>
      </trkpt>
      <trkpt lat="48.55316" lon="2.7136">
        <ele>82</ele>
        <time>2017-04-09T12:16:28Z</time>
      </trkpt>
      <trkpt lat="48.5533" lon="2.71369">
        <ele>82</ele>
        <time>2017-04-09T12:16:40Z</time>
      </trkpt>
      <trkpt lat="48.55346" lon="2.71373">
        <ele>83</ele>
        <time>2017-04-09T12:16:50Z</time>
      </trkpt>
      <trkpt lat="48.5536" lon="2.71386">
        <ele>83</ele>
        <time>2017-04-09T12:17:03Z</time>
      </trkpt>
      <trkpt lat="48.55371" lon="2.71402">
        <ele>83</ele>
        <time>2017-04-09T12:17:16Z</time>
      </trkpt>
      <trkpt lat="48.55406" lon="2.71427">
        <ele>84</ele>
        <time>2017-04-09T12:17:47Z</time>
      </trkpt>
      <trkpt lat="48.55411" lon="2.71433">
        <ele>84</ele>
        <time>2017-04-09T12:17:51Z</time>
      </trkpt>
      <trkpt lat="48.55421" lon="2.71439">
        <ele>84</ele>
        <time>2017-04-09T12:17:59Z</time>
      </trkpt>
      <trkpt lat="48.55429" lon="2.71447">
        <ele>84</ele>
        <time>2017-04-09T12:18:08Z</time>
      </trkpt>
      <trkpt lat="48.55433" lon="2.71449">
        <ele>85</ele>
        <time>2017-04-09T12:18:12Z</time>
      </trkpt>
      <trkpt lat="48.55447" lon="2.71461">
        <ele>85</ele>
        <time>2017-04-09T12:18:21Z</time>
      </trkpt>
      <trkpt lat="48.55451" lon="2.71467">
        <ele>85</ele>
        <time>2017-04-09T12:18:24Z</time>
      </trkpt>
      <trkpt lat="48.55459" lon="2.71475">
        <ele>86</ele>
        <time>2017-04-09T12:18:32Z</time>
      </trkpt>
      <trkpt lat="48.55469" lon="2.71475">
        <ele>86</ele>
        <time>2017-04-09T12:18:39Z</time>
      </trkpt>
      <trkpt lat="48.55474" lon="2.7148">
        <ele>86</ele>
        <time>2017-04-09T12:18:43Z</time>
      </trkpt>
      <trkpt lat="48.55478" lon="2.71486">
        <ele>86</ele>
        <time>2017-04-09T12:18:46Z</time>
      </trkpt>
      <trkpt lat="48.55482" lon="2.71489">
        <ele>85</ele>
        <time>2017-04-09T12:18:49Z</time>
      </trkpt>
      <trkpt lat="48.55487" lon="2.71491">
        <ele>86</ele>
        <time>2017-04-09T12:18:53Z</time>
      </trkpt>
      <trkpt lat="48.55492" lon="2.71494">
        <ele>86</ele>
        <time>2017-04-09T12:18:57Z</time>
      </trkpt>
      <trkpt lat="48.55498" lon="2.71495">
        <ele>86</ele>
        <time>2017-04-09T12:19:01Z</time>
      </trkpt>
      <trkpt lat="48.55525" lon="2.71521">
        <ele>86</ele>
        <time>2017-04-09T12:19:25Z</time>
      </trkpt>
      <trkpt lat="48.5553" lon="2.71525">
        <ele>85</ele>
        <time>2017-04-09T12:19:29Z</time>
      </trkpt>
      <trkpt lat="48.55534" lon="2.7153">
        <ele>85</ele>
        <time>2017-04-09T12:19:34Z</time>
      </trkpt>
      <trkpt lat="48.55549" lon="2.71538">
        <ele>85</ele>
        <time>2017-04-09T12:19:46Z</time>
      </trkpt>
      <trkpt lat="48.55561" lon="2.71552">
        <ele>84</ele>
        <time>2017-04-09T12:19:55Z</time>
      </trkpt>
      <trkpt lat="48.5557" lon="2.71557">
        <ele>84</ele>
        <time>2017-04-09T12:20:02Z</time>
      </trkpt>
      <trkpt lat="48.55574" lon="2.71563">
        <ele>84</ele>
        <time>2017-04-09T12:20:07Z</time>
      </trkpt>
      <trkpt lat="48.55578" lon="2.71576">
        <ele>83</ele>
        <time>2017-04-09T12:20:18Z</time>
      </trkpt>
      <trkpt lat="48.55582" lon="2.7158">
        <ele>82</ele>
        <time>2017-04-09T12:20:42Z</time>
      </trkpt>
      <trkpt lat="48.55585" lon="2.71586">
        <ele>81</ele>
        <time>2017-04-09T12:20:47Z</time>
      </trkpt>
      <trkpt lat="48.55589" lon="2.71599">
        <ele>81</ele>
        <time>2017-04-09T12:20:58Z</time>
      </trkpt>
      <trkpt lat="48.55589" lon="2.71606">
        <ele>81</ele>
        <time>2017-04-09T12:21:05Z</time>
      </trkpt>
      <trkpt lat="48.55588" lon="2.7162">
        <ele>80</ele>
        <time>2017-04-09T12:22:41Z</time>
      </trkpt>
      <trkpt lat="48.55586" lon="2.71626">
        <ele>79</ele>
        <time>2017-04-09T12:22:46Z</time>
      </trkpt>
      <trkpt lat="48.55584" lon="2.71634">
        <ele>79</ele>
        <time>2017-04-09T12:22:53Z</time>
      </trkpt>
      <trkpt lat="48.5558" lon="2.71639">
        <ele>79</ele>
        <time>2017-04-09T12:22:57Z</time>
      </trkpt>
      <trkpt lat="48.55564" lon="2.71667">
        <ele>78</ele>
        <time>2017-04-09T12:23:19Z</time>
      </trkpt>
      <trkpt lat="48.55547" lon="2.71689">
        <ele>78</ele>
        <time>2017-04-09T12:23:36Z</time>
      </trkpt>
      <trkpt lat="48.55538" lon="2.71696">
        <ele>78</ele>
        <time>2017-04-09T12:23:44Z</time>
      </trkpt>
      <trkpt lat="48.55531" lon="2.71705">
        <ele>78</ele>
        <time>2017-04-09T12:23:50Z</time>
      </trkpt>
      <trkpt lat="48.55526" lon="2.71709">
        <ele>78</ele>
        <time>2017-04-09T12:23:54Z</time>
      </trkpt>
      <trkpt lat="48.55494" lon="2.7175">
        <ele>79</ele>
        <time>2017-04-09T12:24:25Z</time>
      </trkpt>
      <trkpt lat="48.55491" lon="2.71755">
        <ele>79</ele>
        <time>2017-04-09T12:24:28Z</time>
      </trkpt>
      <trkpt lat="48.55482" lon="2.71765">
        <ele>79</ele>
        <time>2017-04-09T12:24:36Z</time>
      </trkpt>
      <trkpt lat="48.55475" lon="2.71777">
        <ele>79</ele>
        <time>2017-04-09T12:24:43Z</time>
      </trkpt>
      <trkpt lat="48.55463" lon="2.71791">
        <ele>79</ele>
        <time>2017-04-09T12:24:53Z</time>
      </trkpt>
      <trkpt lat="48.55456" lon="2.71802">
        <ele>79</ele>
        <time>2017-04-09T12:24:59Z</time>
      </trkpt>
      <trkpt lat="48.55431" lon="2.71829">
        <ele>79</ele>
        <time>2017-04-09T12:25:17Z</time>
      </trkpt>
      <trkpt lat="48.55394" lon="2.7188">
        <ele>80</ele>
        <time>2017-04-09T12:25:51Z</time>
      </trkpt>
      <trkpt lat="48.55381" lon="2.71903">
        <ele>80</ele>
        <time>2017-04-09T12:26:06Z</time>
      </trkpt>
      <trkpt lat="48.55376" lon="2.71909">
        <ele>80</ele>
        <time>2017-04-09T12:26:09Z</time>
      </trkpt>
      <trkpt lat="48.55366" lon="2.71917">
        <ele>80</ele>
        <time>2017-04-09T12:26:15Z</time>
      </trkpt>
      <trkpt lat="48.55354" lon="2.71932">
        <ele>80</ele>
        <time>2017-04-09T12:26:27Z</time>
      </trkpt>
      <trkpt lat="48.55347" lon="2.71943">
        <ele>80</ele>
        <time>2017-04-09T12:26:33Z</time>
      </trkpt>
      <trkpt lat="48.55338" lon="2.71953">
        <ele>79</ele>
        <time>2017-04-09T12:26:40Z</time>
      </trkpt>
      <trkpt lat="48.55304" lon="2.72007">
        <ele>80</ele>
        <time>2017-04-09T12:27:12Z</time>
      </trkpt>
      <trkpt lat="48.55299" lon="2.72011">
        <ele>80</ele>
        <time>2017-04-09T12:27:15Z</time>
      </trkpt>
      <trkpt lat="48.55296" lon="2.72017">
        <ele>80</ele>
        <time>2017-04-09T12:27:19Z</time>
      </trkpt>
      <trkpt lat="48.55293" lon="2.72022">
        <ele>80</ele>
        <time>2017-04-09T12:27:22Z</time>
      </trkpt>
      <trkpt lat="48.55289" lon="2.72026">
        <ele>80</ele>
        <time>2017-04-09T12:27:25Z</time>
      </trkpt>
      <trkpt lat="48.55253" lon="2.72068">
        <ele>80</ele>
        <time>2017-04-09T12:27:55Z</time>
      </trkpt>
      <trkpt lat="48.5522" lon="2.72117">
        <ele>81</ele>
        <time>2017-04-09T12:28:23Z</time>
      </trkpt>
      <trkpt lat="48.55218" lon="2.72124">
        <ele>81</ele>
        <time>2017-04-09T12:28:26Z</time>
      </trkpt>
      <trkpt lat="48.55218" lon="2.72133">
        <ele>81</ele>
        <time>2017-04-09T12:28:29Z</time>
      </trkpt>
      <trkpt lat="48.55222" lon="2.72173">
        <ele>82</ele>
        <time>2017-04-09T12:28:45Z</time>
      </trkpt>
      <trkpt lat="48.55219" lon="2.72194">
        <ele>81</ele>
        <time>2017-04-09T12:28:54Z</time>
      </trkpt>
      <trkpt lat="48.55219" lon="2.72201">
        <ele>81</ele>
        <time>2017-04-09T12:28:57Z</time>
      </trkpt>
      <trkpt lat="48.55222" lon="2.72209">
        <ele>82</ele>
        <time>2017-04-09T12:29:00Z</time>
      </trkpt>
      <trkpt lat="48.55225" lon="2.72214">
        <ele>82</ele>
        <time>2017-04-09T12:29:03Z</time>
      </trkpt>
      <trkpt lat="48.55227" lon="2.7223">
        <ele>81</ele>
        <time>2017-04-09T12:29:12Z</time>
      </trkpt>
      <trkpt lat="48.5523" lon="2.72236">
        <ele>81</ele>
        <time>2017-04-09T12:29:16Z</time>
      </trkpt>
      <trkpt lat="48.55233" lon="2.72292">
        <ele>81</ele>
        <time>2017-04-09T12:29:40Z</time>
      </trkpt>
      <trkpt lat="48.55236" lon="2.72299">
        <ele>81</ele>
        <time>2017-04-09T12:29:43Z</time>
      </trkpt>
      <trkpt lat="48.55237" lon="2.72323">
        <ele>81</ele>
        <time>2017-04-09T12:29:52Z</time>
      </trkpt>
      <trkpt lat="48.55239" lon="2.72331">
        <ele>81</ele>
        <time>2017-04-09T12:29:55Z</time>
      </trkpt>
      <trkpt lat="48.55239" lon="2.72339">
        <ele>81</ele>
        <time>2017-04-09T12:29:59Z</time>
      </trkpt>
      <trkpt lat="48.55244" lon="2.7237">
        <ele>80</ele>
        <time>2017-04-09T12:30:11Z</time>
      </trkpt>
      <trkpt lat="48.55243" lon="2.72386">
        <ele>80</ele>
        <time>2017-04-09T12:30:18Z</time>
      </trkpt>
      <trkpt lat="48.55244" lon="2.72394">
        <ele>80</ele>
        <time>2017-04-09T12:30:21Z</time>
      </trkpt>
      <trkpt lat="48.55249" lon="2.72407">
        <ele>80</ele>
        <time>2017-04-09T12:30:27Z</time>
      </trkpt>
      <trkpt lat="48.5525" lon="2.72415">
        <ele>80</ele>
        <time>2017-04-09T12:30:30Z</time>
      </trkpt>
      <trkpt lat="48.55246" lon="2.72439">
        <ele>81</ele>
        <time>2017-04-09T12:30:39Z</time>
      </trkpt>
      <trkpt lat="48.5525" lon="2.72453">
        <ele>80</ele>
        <time>2017-04-09T12:30:45Z</time>
      </trkpt>
      <trkpt lat="48.55251" lon="2.72461">
        <ele>81</ele>
        <time>2017-04-09T12:30:48Z</time>
      </trkpt>
      <trkpt lat="48.55257" lon="2.72486">
        <ele>81</ele>
        <time>2017-04-09T12:31:00Z</time>
      </trkpt>
      <trkpt lat="48.55257" lon="2.72494">
        <ele>81</ele>
        <time>2017-04-09T12:31:03Z</time>
      </trkpt>
      <trkpt lat="48.55257" lon="2.72503">
        <ele>80</ele>
        <time>2017-04-09T12:31:06Z</time>
      </trkpt>
      <trkpt lat="48.55257" lon="2.72522">
        <ele>80</ele>
        <time>2017-04-09T12:31:14Z</time>
      </trkpt>
      <trkpt lat="48.55258" lon="2.72531">
        <ele>80</ele>
        <time>2017-04-09T12:31:17Z</time>
      </trkpt>
      <trkpt lat="48.55258" lon="2.72538">
        <ele>80</ele>
        <time>2017-04-09T12:31:19Z</time>
      </trkpt>
      <trkpt lat="48.55258" lon="2.72549">
        <ele>80</ele>
        <time>2017-04-09T12:31:24Z</time>
      </trkpt>
      <trkpt lat="48.5526" lon="2.72556">
        <ele>80</ele>
        <time>2017-04-09T12:31:28Z</time>
      </trkpt>
      <trkpt lat="48.55263" lon="2.72562">
        <ele>80</ele>
        <time>2017-04-09T12:31:31Z</time>
      </trkpt>
      <trkpt lat="48.55266" lon="2.72569">
        <ele>80</ele>
        <time>2017-04-09T12:31:34Z</time>
      </trkpt>
      <trkpt lat="48.55269" lon="2.72585">
        <ele>80</ele>
        <time>2017-04-09T12:31:40Z</time>
      </trkpt>
      <trkpt lat="48.55268" lon="2.72593">
        <ele>80</ele>
        <time>2017-04-09T12:31:44Z</time>
      </trkpt>
      <trkpt lat="48.55265" lon="2.726">
        <ele>80</ele>
        <time>2017-04-09T12:31:49Z</time>
      </trkpt>
      <trkpt lat="48.5526" lon="2.72648">
        <ele>80</ele>
        <time>2017-04-09T12:32:07Z</time>
      </trkpt>
      <trkpt lat="48.55261" lon="2.727">
        <ele>80</ele>
        <time>2017-04-09T12:32:31Z</time>
      </trkpt>
      <trkpt lat="48.55263" lon="2.72717">
        <ele>80</ele>
        <time>2017-04-09T12:32:38Z</time>
      </trkpt>
      <trkpt lat="48.55268" lon="2.72731">
        <ele>80</ele>
        <time>2017-04-09T12:32:44Z</time>
      </trkpt>
      <trkpt lat="48.55269" lon="2.72738">
        <ele>80</ele>
        <time>2017-04-09T12:32:47Z</time>
      </trkpt>
      <trkpt lat="48.55271" lon="2.72745">
        <ele>80</ele>
        <time>2017-04-09T12:32:50Z</time>
      </trkpt>
      <trkpt lat="48.55271" lon="2.72769">
        <ele>80</ele>
        <time>2017-04-09T12:32:59Z</time>
      </trkpt>
      <trkpt lat="48.5527" lon="2.72776">
        <ele>80</ele>
        <time>2017-04-09T12:33:02Z</time>
      </trkpt>
      <trkpt lat="48.55271" lon="2.72809">
        <ele>81</ele>
        <time>2017-04-09T12:33:17Z</time>
      </trkpt>
      <trkpt lat="48.55273" lon="2.72823">
        <ele>81</ele>
        <time>2017-04-09T12:33:24Z</time>
      </trkpt>
      <trkpt lat="48.55277" lon="2.72828">
        <ele>81</ele>
        <time>2017-04-09T12:33:27Z</time>
      </trkpt>
      <trkpt lat="48.55282" lon="2.72831">
        <ele>81</ele>
        <time>2017-04-09T12:33:30Z</time>
      </trkpt>
      <trkpt lat="48.55302" lon="2.72825">
        <ele>80</ele>
        <time>2017-04-09T12:33:42Z</time>
      </trkpt>
      <trkpt lat="48.55324" lon="2.72813">
        <ele>79</ele>
        <time>2017-04-09T12:33:57Z</time>
      </trkpt>
      <trkpt lat="48.55328" lon="2.72809">
        <ele>79</ele>
        <time>2017-04-09T12:34:00Z</time>
      </trkpt>
      <trkpt lat="48.55352" lon="2.72794">
        <ele>77</ele>
        <time>2017-04-09T12:34:17Z</time>
      </trkpt>
      <trkpt lat="48.55399" lon="2.72776">
        <ele>74</ele>
        <time>2017-04-09T12:34:48Z</time>
      </trkpt>
      <trkpt lat="48.55436" lon="2.72759">
        <ele>73</ele>
        <time>2017-04-09T12:35:12Z</time>
      </trkpt>
      <trkpt lat="48.55479" lon="2.72751">
        <ele>71</ele>
        <time>2017-04-09T12:35:40Z</time>
      </trkpt>
      <trkpt lat="48.55493" lon="2.72747">
        <ele>70</ele>
        <time>2017-04-09T12:35:49Z</time>
      </trkpt>
      <trkpt lat="48.55502" lon="2.72748">
        <ele>69</ele>
        <time>2017-04-09T12:35:55Z</time>
      </trkpt>
      <trkpt lat="48.55514" lon="2.72752">
        <ele>69</ele>
        <time>2017-04-09T12:36:03Z</time>
      </trkpt>
      <trkpt lat="48.55522" lon="2.72759">
        <ele>69</ele>
        <time>2017-04-09T12:36:09Z</time>
      </trkpt>
      <trkpt lat="48.5554" lon="2.72788">
        <ele>67</ele>
        <time>2017-04-09T12:36:26Z</time>
      </trkpt>
      <trkpt lat="48.55549" lon="2.72794">
        <ele>66</ele>
        <time>2017-04-09T12:36:32Z</time>
      </trkpt>
      <trkpt lat="48.55594" lon="2.72809">
        <ele>62</ele>
        <time>2017-04-09T12:37:06Z</time>
      </trkpt>
      <trkpt lat="48.55599" lon="2.72812">
        <ele>61</ele>
        <time>2017-04-09T12:37:09Z</time>
      </trkpt>
      <trkpt lat="48.55603" lon="2.7281">
        <ele>61</ele>
        <time>2017-04-09T12:37:13Z</time>
      </trkpt>
      <trkpt lat="48.55614" lon="2.72813">
        <ele>60</ele>
        <time>2017-04-09T12:37:20Z</time>
      </trkpt>
      <trkpt lat="48.55634" lon="2.72799">
        <ele>57</ele>
        <time>2017-04-09T12:37:37Z</time>
      </trkpt>
      <trkpt lat="48.55655" lon="2.72804">
        <ele>56</ele>
        <time>2017-04-09T12:37:52Z</time>
      </trkpt>
      <trkpt lat="48.55659" lon="2.72808">
        <ele>56</ele>
        <time>2017-04-09T12:37:56Z</time>
      </trkpt>
      <trkpt lat="48.55664" lon="2.72812">
        <ele>56</ele>
        <time>2017-04-09T12:38:01Z</time>
      </trkpt>
      <trkpt lat="48.55674" lon="2.72815">
        <ele>56</ele>
        <time>2017-04-09T12:38:12Z</time>
      </trkpt>
      <trkpt lat="48.55678" lon="2.72819">
        <ele>56</ele>
        <time>2017-04-09T12:38:16Z</time>
      </trkpt>
      <trkpt lat="48.55683" lon="2.72823">
        <ele>56</ele>
        <time>2017-04-09T12:38:20Z</time>
      </trkpt>
      <trkpt lat="48.55687" lon="2.72828">
        <ele>56</ele>
        <time>2017-04-09T12:38:23Z</time>
      </trkpt>
      <trkpt lat="48.55696" lon="2.72831">
        <ele>56</ele>
        <time>2017-04-09T12:38:31Z</time>
      </trkpt>
      <trkpt lat="48.55714" lon="2.72843">
        <ele>56</ele>
        <time>2017-04-09T12:38:46Z</time>
      </trkpt>
      <trkpt lat="48.55724" lon="2.72853">
        <ele>57</ele>
        <time>2017-04-09T12:38:54Z</time>
      </trkpt>
      <trkpt lat="48.55728" lon="2.72855">
        <ele>57</ele>
        <time>2017-04-09T12:38:58Z</time>
      </trkpt>
      <trkpt lat="48.55737" lon="2.72861">
        <ele>58</ele>
        <time>2017-04-09T12:39:07Z</time>
      </trkpt>
      <trkpt lat="48.55761" lon="2.72859">
        <ele>61</ele>
        <time>2017-04-09T12:39:24Z</time>
      </trkpt>
      <trkpt lat="48.55776" lon="2.72856">
        <ele>63</ele>
        <time>2017-04-09T12:39:33Z</time>
      </trkpt>
      <trkpt lat="48.55787" lon="2.72854">
        <ele>64</ele>
        <time>2017-04-09T12:39:41Z</time>
      </trkpt>
      <trkpt lat="48.55792" lon="2.72853">
        <ele>65</ele>
        <time>2017-04-09T12:39:48Z</time>
      </trkpt>
      <trkpt lat="48.55803" lon="2.7285">
        <ele>66</ele>
        <time>2017-04-09T12:39:55Z</time>
      </trkpt>
      <trkpt lat="48.55813" lon="2.72846">
        <ele>67</ele>
        <time>2017-04-09T12:40:02Z</time>
      </trkpt>
      <trkpt lat="48.55818" lon="2.72845">
        <ele>68</ele>
        <time>2017-04-09T12:40:05Z</time>
      </trkpt>
      <trkpt lat="48.55823" lon="2.72843">
        <ele>69</ele>
        <time>2017-04-09T12:40:10Z</time>
      </trkpt>
      <trkpt lat="48.55835" lon="2.72844">
        <ele>71</ele>
        <time>2017-04-09T12:40:18Z</time>
      </trkpt>
      <trkpt lat="48.55874" lon="2.72872">
        <ele>75</ele>
        <time>2017-04-09T12:40:47Z</time>
      </trkpt>
      <trkpt lat="48.55884" lon="2.72872">
        <ele>76</ele>
        <time>2017-04-09T12:40:53Z</time>
      </trkpt>
      <trkpt lat="48.55899" lon="2.72866">
        <ele>76</ele>
        <time>2017-04-09T12:41:01Z</time>
      </trkpt>
      <trkpt lat="48.55939" lon="2.72863">
        <ele>78</ele>
        <time>2017-04-09T12:41:26Z</time>
      </trkpt>
      <trkpt lat="48.55947" lon="2.72858">
        <ele>78</ele>
        <time>2017-04-09T12:41:32Z</time>
      </trkpt>
      <trkpt lat="48.55966" lon="2.72849">
        <ele>77</ele>
        <time>2017-04-09T12:41:46Z</time>
      </trkpt>
      <trkpt lat="48.55971" lon="2.72847">
        <ele>77</ele>
        <time>2017-04-09T12:41:49Z</time>
      </trkpt>
      <trkpt lat="48.5602" lon="2.72836">
        <ele>78</ele>
        <time>2017-04-09T12:42:20Z</time>
      </trkpt>
      <trkpt lat="48.56039" lon="2.7283">
        <ele>78</ele>
        <time>2017-04-09T12:42:33Z</time>
      </trkpt>
      <trkpt lat="48.5605" lon="2.72824">
        <ele>78</ele>
        <time>2017-04-09T12:42:41Z</time>
      </trkpt>
      <trkpt lat="48.56052" lon="2.7283">
        <ele>78</ele>
        <time>2017-04-09T12:42:45Z</time>
      </trkpt>
      <trkpt lat="48.56052" lon="2.72837">
        <ele>78</ele>
        <time>2017-04-09T12:42:48Z</time>
      </trkpt>
      <trkpt lat="48.56053" lon="2.72844">
        <ele>79</ele>
        <time>2017-04-09T12:42:51Z</time>
      </trkpt>
      <trkpt lat="48.56063" lon="2.72879">
        <ele>79</ele>
        <time>2017-04-09T12:43:08Z</time>
      </trkpt>
      <trkpt lat="48.56073" lon="2.72898">
        <ele>79</ele>
        <time>2017-04-09T12:43:19Z</time>
      </trkpt>
      <trkpt lat="48.56075" lon="2.72905">
        <ele>80</ele>
        <time>2017-04-09T12:43:23Z</time>
      </trkpt>
      <trkpt lat="48.56083" lon="2.72916">
        <ele>80</ele>
        <time>2017-04-09T12:43:30Z</time>
      </trkpt>
      <trkpt lat="48.56086" lon="2.72922">
        <ele>80</ele>
        <time>2017-04-09T12:43:33Z</time>
      </trkpt>
      <trkpt lat="48.56087" lon="2.72929">
        <ele>80</ele>
        <time>2017-04-09T12:43:36Z</time>
      </trkpt>
      <trkpt lat="48.56086" lon="2.72953">
        <ele>80</ele>
        <time>2017-04-09T12:43:45Z</time>
      </trkpt>
      <trkpt lat="48.56087" lon="2.72962">
        <ele>80</ele>
        <time>2017-04-09T12:43:49Z</time>
      </trkpt>
      <trkpt lat="48.56087" lon="2.72969">
        <ele>80</ele>
        <time>2017-04-09T12:43:53Z</time>
      </trkpt>
      <trkpt lat="48.56089" lon="2.72983">
        <ele>80</ele>
        <time>2017-04-09T12:43:59Z</time>
      </trkpt>
      <trkpt lat="48.56087" lon="2.73006">
        <ele>80</ele>
        <time>2017-04-09T12:44:08Z</time>
      </trkpt>
      <trkpt lat="48.56083" lon="2.73023">
        <ele>80</ele>
        <time>2017-04-09T12:44:16Z</time>
      </trkpt>
      <trkpt lat="48.56079" lon="2.73074">
        <ele>80</ele>
        <time>2017-04-09T12:44:38Z</time>
      </trkpt>
      <trkpt lat="48.56079" lon="2.73082">
        <ele>80</ele>
        <time>2017-04-09T12:44:41Z</time>
      </trkpt>
      <trkpt lat="48.56079" lon="2.73127">
        <ele>79</ele>
        <time>2017-04-09T12:44:59Z</time>
      </trkpt>
      <trkpt lat="48.56082" lon="2.73134">
        <ele>79</ele>
        <time>2017-04-09T12:45:03Z</time>
      </trkpt>
      <trkpt lat="48.56084" lon="2.7314">
        <ele>79</ele>
        <time>2017-04-09T12:45:07Z</time>
      </trkpt>
      <trkpt lat="48.56083" lon="2.73148">
        <ele>79</ele>
        <time>2017-04-09T12:45:10Z</time>
      </trkpt>
      <trkpt lat="48.5609" lon="2.73168">
        <ele>79</ele>
        <time>2017-04-09T12:45:19Z</time>
      </trkpt>
      <trkpt lat="48.56094" lon="2.73192">
        <ele>79</ele>
        <time>2017-04-09T12:45:30Z</time>
      </trkpt>
      <trkpt lat="48.56098" lon="2.73207">
        <ele>79</ele>
        <time>2017-04-09T12:45:37Z</time>
      </trkpt>
      <trkpt lat="48.56104" lon="2.73243">
        <ele>79</ele>
        <time>2017-04-09T12:45:55Z</time>
      </trkpt>
      <trkpt lat="48.56111" lon="2.73262">
        <ele>79</ele>
        <time>2017-04-09T12:46:04Z</time>
      </trkpt>
      <trkpt lat="48.56116" lon="2.73297">
        <ele>79</ele>
        <time>2017-04-09T12:46:19Z</time>
      </trkpt>
      <trkpt lat="48.56137" lon="2.73368">
        <ele>78</ele>
        <time>2017-04-09T12:46:52Z</time>
      </trkpt>
      <trkpt lat="48.56141" lon="2.73374">
        <ele>78</ele>
        <time>2017-04-09T12:46:55Z</time>
      </trkpt>
      <trkpt lat="48.56143" lon="2.7338">
        <ele>78</ele>
        <time>2017-04-09T12:46:58Z</time>
      </trkpt>
      <trkpt lat="48.56155" lon="2.73452">
        <ele>77</ele>
        <time>2017-04-09T12:47:30Z</time>
      </trkpt>
      <trkpt lat="48.56152" lon="2.73503">
        <ele>77</ele>
        <time>2017-04-09T12:47:50Z</time>
      </trkpt>
      <trkpt lat="48.56154" lon="2.7351">
        <ele>77</ele>
        <time>2017-04-09T12:47:54Z</time>
      </trkpt>
      <trkpt lat="48.56153" lon="2.73586">
        <ele>75</ele>
        <time>2017-04-09T12:48:27Z</time>
      </trkpt>
      <trkpt lat="48.56155" lon="2.7361">
        <ele>75</ele>
        <time>2017-04-09T12:48:39Z</time>
      </trkpt>
      <trkpt lat="48.56151" lon="2.73683">
        <ele>75</ele>
        <time>2017-04-09T12:49:10Z</time>
      </trkpt>
      <trkpt lat="48.5615" lon="2.73748">
        <ele>76</ele>
        <time>2017-04-09T12:49:37Z</time>
      </trkpt>
      <trkpt lat="48.56152" lon="2.73771">
        <ele>75</ele>
        <time>2017-04-09T12:49:48Z</time>
      </trkpt>
      <trkpt lat="48.5615" lon="2.73778">
        <ele>75</ele>
        <time>2017-04-09T12:49:52Z</time>
      </trkpt>
      <trkpt lat="48.56143" lon="2.73791">
        <ele>75</ele>
        <time>2017-04-09T12:49:59Z</time>
      </trkpt>
      <trkpt lat="48.56135" lon="2.73801">
        <ele>75</ele>
        <time>2017-04-09T12:50:06Z</time>
      </trkpt>
      <trkpt lat="48.56106" lon="2.73855">
        <ele>75</ele>
        <time>2017-04-09T12:50:37Z</time>
      </trkpt>
      <trkpt lat="48.56103" lon="2.73862">
        <ele>75</ele>
        <time>2017-04-09T12:50:41Z</time>
      </trkpt>
      <trkpt lat="48.56089" lon="2.73934">
        <ele>75</ele>
        <time>2017-04-09T12:51:13Z</time>
      </trkpt>
      <trkpt lat="48.56086" lon="2.73948">
        <ele>75</ele>
        <time>2017-04-09T12:51:19Z</time>
      </trkpt>
      <trkpt lat="48.56085" lon="2.73979">
        <ele>74</ele>
        <time>2017-04-09T12:51:33Z</time>
      </trkpt>
      <trkpt lat="48.56082" lon="2.73993">
        <ele>74</ele>
        <time>2017-04-09T12:51:40Z</time>
      </trkpt>
      <trkpt lat="48.56076" lon="2.74007">
        <ele>74</ele>
        <time>2017-04-09T12:51:47Z</time>
      </trkpt>
      <trkpt lat="48.56074" lon="2.74023">
        <ele>74</ele>
        <time>2017-04-09T12:51:54Z</time>
      </trkpt>
      <trkpt lat="48.56072" lon="2.74029">
        <ele>74</ele>
        <time>2017-04-09T12:51:57Z</time>
      </trkpt>
      <trkpt lat="48.56065" lon="2.74039">
        <ele>74</ele>
        <time>2017-04-09T12:52:03Z</time>
      </trkpt>
      <trkpt lat="48.56051" lon="2.74049">
        <ele>73</ele>
        <time>2017-04-09T12:52:13Z</time>
      </trkpt>
      <trkpt lat="48.56039" lon="2.74055">
        <ele>73</ele>
        <time>2017-04-09T12:52:20Z</time>
      </trkpt>
      <trkpt lat="48.56026" lon="2.74066">
        <ele>72</ele>
        <time>2017-04-09T12:52:30Z</time>
      </trkpt>
      <trkpt lat="48.56003" lon="2.74082">
        <ele>70</ele>
        <time>2017-04-09T12:52:46Z</time>
      </trkpt>
      <trkpt lat="48.55998" lon="2.74087">
        <ele>70</ele>
        <time>2017-04-09T12:52:50Z</time>
      </trkpt>
      <trkpt lat="48.55974" lon="2.74096">
        <ele>68</ele>
        <time>2017-04-09T12:53:07Z</time>
      </trkpt>
      <trkpt lat="48.55948" lon="2.74091">
        <ele>67</ele>
        <time>2017-04-09T12:53:24Z</time>
      </trkpt>
      <trkpt lat="48.55932" lon="2.74095">
        <ele>66</ele>
        <time>2017-04-09T12:53:35Z</time>
      </trkpt>
      <trkpt lat="48.55925" lon="2.74106">
        <ele>65</ele>
        <time>2017-04-09T12:53:42Z</time>
      </trkpt>
      <trkpt lat="48.55915" lon="2.74112">
        <ele>64</ele>
        <time>2017-04-09T12:53:48Z</time>
      </trkpt>
      <trkpt lat="48.5591" lon="2.74117">
        <ele>64</ele>
        <time>2017-04-09T12:53:52Z</time>
      </trkpt>
      <trkpt lat="48.55896" lon="2.74126">
        <ele>62</ele>
        <time>2017-04-09T12:54:05Z</time>
      </trkpt>
      <trkpt lat="48.55887" lon="2.74135">
        <ele>61</ele>
        <time>2017-04-09T12:54:12Z</time>
      </trkpt>
      <trkpt lat="48.55883" lon="2.74141">
        <ele>61</ele>
        <time>2017-04-09T12:54:16Z</time>
      </trkpt>
      <trkpt lat="48.55883" lon="2.7415">
        <ele>61</ele>
        <time>2017-04-09T12:54:20Z</time>
      </trkpt>
      <trkpt lat="48.55884" lon="2.74166">
        <ele>60</ele>
        <time>2017-04-09T12:54:26Z</time>
      </trkpt>
      <trkpt lat="48.55892" lon="2.74233">
        <ele>61</ele>
        <time>2017-04-09T12:54:58Z</time>
      </trkpt>
      <trkpt lat="48.55891" lon="2.74256">
        <ele>61</ele>
        <time>2017-04-09T12:55:08Z</time>
      </trkpt>
      <trkpt lat="48.55893" lon="2.74273">
        <ele>61</ele>
        <time>2017-04-09T12:55:15Z</time>
      </trkpt>
      <trkpt lat="48.55895" lon="2.74313">
        <ele>61</ele>
        <time>2017-04-09T12:55:32Z</time>
      </trkpt>
      <trkpt lat="48.55892" lon="2.74327">
        <ele>61</ele>
        <time>2017-04-09T12:55:38Z</time>
      </trkpt>
      <trkpt lat="48.55892" lon="2.74364">
        <ele>61</ele>
        <time>2017-04-09T12:55:54Z</time>
      </trkpt>
      <trkpt lat="48.55893" lon="2.74372">
        <ele>61</ele>
        <time>2017-04-09T12:55:58Z</time>
      </trkpt>
      <trkpt lat="48.55895" lon="2.74381">
        <ele>61</ele>
        <time>2017-04-09T12:56:03Z</time>
      </trkpt>
      <trkpt lat="48.55898" lon="2.74387">
        <ele>61</ele>
        <time>2017-04-09T12:56:06Z</time>
      </trkpt>
      <trkpt lat="48.55898" lon="2.74403">
        <ele>61</ele>
        <time>2017-04-09T12:56:13Z</time>
      </trkpt>
      <trkpt lat="48.55901" lon="2.74418">
        <ele>61</ele>
        <time>2017-04-09T12:56:21Z</time>
      </trkpt>
      <trkpt lat="48.55901" lon="2.74427">
        <ele>61</ele>
        <time>2017-04-09T12:56:25Z</time>
      </trkpt>
      <trkpt lat="48.55904" lon="2.74434">
        <ele>61</ele>
        <time>2017-04-09T12:56:30Z</time>
      </trkpt>
      <trkpt lat="48.55903" lon="2.74442">
        <ele>61</ele>
        <time>2017-04-09T12:56:33Z</time>
      </trkpt>
      <trkpt lat="48.55904" lon="2.74449">
        <ele>61</ele>
        <time>2017-04-09T12:56:37Z</time>
      </trkpt>
      <trkpt lat="48.55907" lon="2.74456">
        <ele>61</ele>
        <time>2017-04-09T12:56:41Z</time>
      </trkpt>
      <trkpt lat="48.55911" lon="2.7447">
        <ele>61</ele>
        <time>2017-04-09T12:56:47Z</time>
      </trkpt>
      <trkpt lat="48.55914" lon="2.74475">
        <ele>61</ele>
        <time>2017-04-09T12:56:50Z</time>
      </trkpt>
      <trkpt lat="48.55917" lon="2.74493">
        <ele>61</ele>
        <time>2017-04-09T12:57:05Z</time>
      </trkpt>
      <trkpt lat="48.55917" lon="2.74501">
        <ele>61</ele>
        <time>2017-04-09T12:57:09Z</time>
      </trkpt>
      <trkpt lat="48.55923" lon="2.74548">
        <ele>61</ele>
        <time>2017-04-09T12:57:41Z</time>
      </trkpt>
      <trkpt lat="48.55924" lon="2.74579">
        <ele>61</ele>
        <time>2017-04-09T12:57:57Z</time>
      </trkpt>
      <trkpt lat="48.55928" lon="2.74592">
        <ele>61</ele>
        <time>2017-04-09T12:58:06Z</time>
      </trkpt>
      <trkpt lat="48.55931" lon="2.74597">
        <ele>61</ele>
        <time>2017-04-09T12:58:11Z</time>
      </trkpt>
      <trkpt lat="48.55931" lon="2.74606">
        <ele>62</ele>
        <time>2017-04-09T12:58:16Z</time>
      </trkpt>
      <trkpt lat="48.5593" lon="2.74613">
        <ele>62</ele>
        <time>2017-04-09T12:58:19Z</time>
      </trkpt>
      <trkpt lat="48.55931" lon="2.7462">
        <ele>62</ele>
        <time>2017-04-09T12:58:23Z</time>
      </trkpt>
      <trkpt lat="48.55942" lon="2.74646">
        <ele>62</ele>
        <time>2017-04-09T12:58:46Z</time>
      </trkpt>
      <trkpt lat="48.55943" lon="2.74654">
        <ele>62</ele>
        <time>2017-04-09T12:58:52Z</time>
      </trkpt>
      <trkpt lat="48.55945" lon="2.74669">
        <ele>62</ele>
        <time>2017-04-09T12:59:02Z</time>
      </trkpt>
      <trkpt lat="48.55944" lon="2.74676">
        <ele>62</ele>
        <time>2017-04-09T12:59:07Z</time>
      </trkpt>
      <trkpt lat="48.55946" lon="2.74684">
        <ele>62</ele>
        <time>2017-04-09T12:59:16Z</time>
      </trkpt>
      <trkpt lat="48.55943" lon="2.74714">
        <ele>62</ele>
        <time>2017-04-09T12:59:37Z</time>
      </trkpt>
      <trkpt lat="48.55946" lon="2.7473">
        <ele>63</ele>
        <time>2017-04-09T12:59:46Z</time>
      </trkpt>
      <trkpt lat="48.55947" lon="2.74737">
        <ele>62</ele>
        <time>2017-04-09T12:59:51Z</time>
      </trkpt>
      <trkpt lat="48.55946" lon="2.74761">
        <ele>62</ele>
        <time>2017-04-09T13:00:03Z</time>
      </trkpt>
      <trkpt lat="48.55945" lon="2.74776">
        <ele>62</ele>
        <time>2017-04-09T13:00:10Z</time>
      </trkpt>
      <trkpt lat="48.55949" lon="2.74789">
        <ele>63</ele>
        <time>2017-04-09T13:00:22Z</time>
      </trkpt>
      <trkpt lat="48.55947" lon="2.74805">
        <ele>63</ele>
        <time>2017-04-09T13:00:28Z</time>
      </trkpt>
      <trkpt lat="48.55948" lon="2.74821">
        <ele>63</ele>
        <time>2017-04-09T13:00:36Z</time>
      </trkpt>
      <trkpt lat="48.55947" lon="2.74838">
        <ele>63</ele>
        <time>2017-04-09T13:00:44Z</time>
      </trkpt>
      <trkpt lat="48.55948" lon="2.74868">
        <ele>63</ele>
        <time>2017-04-09T13:00:58Z</time>
      </trkpt>
      <trkpt lat="48.55947" lon="2.74876">
        <ele>63</ele>
        <time>2017-04-09T13:01:01Z</time>
      </trkpt>
      <trkpt lat="48.55948" lon="2.74901">
        <ele>63</ele>
        <time>2017-04-09T13:01:12Z</time>
      </trkpt>
      <trkpt lat="48.55953" lon="2.74906">
        <ele>63</ele>
        <time>2017-04-09T13:01:17Z</time>
      </trkpt>
      <trkpt lat="48.55956" lon="2.74913">
        <ele>63</ele>
        <time>2017-04-09T13:01:20Z</time>
      </trkpt>
      <trkpt lat="48.55964" lon="2.74921">
        <ele>63</ele>
        <time>2017-04-09T13:01:26Z</time>
      </trkpt>
      <trkpt lat="48.55968" lon="2.74926">
        <ele>63</ele>
        <time>2017-04-09T13:01:29Z</time>
      </trkpt>
      <trkpt lat="48.55987" lon="2.74942">
        <ele>64</ele>
        <time>2017-04-09T13:01:44Z</time>
      </trkpt>
      <trkpt lat="48.55991" lon="2.7494">
        <ele>64</ele>
        <time>2017-04-09T13:01:48Z</time>
      </trkpt>
      <trkpt lat="48.55997" lon="2.74943">
        <ele>64</ele>
        <time>2017-04-09T13:01:52Z</time>
      </trkpt>
      <trkpt lat="48.56002" lon="2.74944">
        <ele>64</ele>
        <time>2017-04-09T13:01:57Z</time>
      </trkpt>
      <trkpt lat="48.56022" lon="2.74939">
        <ele>65</ele>
        <time>2017-04-09T13:02:11Z</time>
      </trkpt>
      <trkpt lat="48.56033" lon="2.7494">
        <ele>65</ele>
        <time>2017-04-09T13:02:19Z</time>
      </trkpt>
      <trkpt lat="48.5606" lon="2.7493">
        <ele>66</ele>
        <time>2017-04-09T13:02:39Z</time>
      </trkpt>
      <trkpt lat="48.56082" lon="2.74917">
        <ele>68</ele>
        <time>2017-04-09T13:02:54Z</time>
      </trkpt>
      <trkpt lat="48.56092" lon="2.74914">
        <ele>69</ele>
        <time>2017-04-09T13:03:02Z</time>
      </trkpt>
      <trkpt lat="48.56097" lon="2.7491">
        <ele>69</ele>
        <time>2017-04-09T13:03:06Z</time>
      </trkpt>
      <trkpt lat="48.56104" lon="2.74911">
        <ele>70</ele>
        <time>2017-04-09T13:03:48Z</time>
      </trkpt>
      <trkpt lat="48.56114" lon="2.74911">
        <ele>71</ele>
        <time>2017-04-09T13:03:56Z</time>
      </trkpt>
      <trkpt lat="48.56124" lon="2.74909">
        <ele>71</ele>
        <time>2017-04-09T13:04:03Z</time>
      </trkpt>
      <trkpt lat="48.56129" lon="2.7491">
        <ele>71</ele>
        <time>2017-04-09T13:04:07Z</time>
      </trkpt>
      <trkpt lat="48.56139" lon="2.74914">
        <ele>72</ele>
        <time>2017-04-09T13:04:16Z</time>
      </trkpt>
      <trkpt lat="48.56144" lon="2.74915">
        <ele>72</ele>
        <time>2017-04-09T13:04:19Z</time>
      </trkpt>
      <trkpt lat="48.56149" lon="2.74913">
        <ele>73</ele>
        <time>2017-04-09T13:04:23Z</time>
      </trkpt>
      <trkpt lat="48.56154" lon="2.74914">
        <ele>73</ele>
        <time>2017-04-09T13:04:27Z</time>
      </trkpt>
      <trkpt lat="48.56162" lon="2.74921">
        <ele>74</ele>
        <time>2017-04-09T13:04:34Z</time>
      </trkpt>
      <trkpt lat="48.5618" lon="2.74932">
        <ele>76</ele>
        <time>2017-04-09T13:04:53Z</time>
      </trkpt>
      <trkpt lat="48.56184" lon="2.74936">
        <ele>76</ele>
        <time>2017-04-09T13:05:03Z</time>
      </trkpt>
      <trkpt lat="48.56182" lon="2.74943">
        <ele>74</ele>
        <time>2017-04-09T13:05:55Z</time>
      </trkpt>
      <trkpt lat="48.56185" lon="2.7495">
        <ele>74</ele>
        <time>2017-04-09T13:06:09Z</time>
      </trkpt>
      <trkpt lat="48.56184" lon="2.74959">
        <ele>74</ele>
        <time>2017-04-09T13:06:15Z</time>
      </trkpt>
      <trkpt lat="48.56183" lon="2.74967">
        <ele>74</ele>
        <time>2017-04-09T13:06:19Z</time>
      </trkpt>
      <trkpt lat="48.56184" lon="2.74975">
        <ele>74</ele>
        <time>2017-04-09T13:06:22Z</time>
      </trkpt>
      <trkpt lat="48.5618" lon="2.74989">
        <ele>74</ele>
        <time>2017-04-09T13:06:28Z</time>
      </trkpt>
      <trkpt lat="48.56186" lon="2.75042">
        <ele>73</ele>
        <time>2017-04-09T13:06:51Z</time>
      </trkpt>
      <trkpt lat="48.56188" lon="2.75111">
        <ele>71</ele>
        <time>2017-04-09T13:07:24Z</time>
      </trkpt>
      <trkpt lat="48.56186" lon="2.75126">
        <ele>70</ele>
        <time>2017-04-09T13:07:30Z</time>
      </trkpt>
      <trkpt lat="48.56186" lon="2.75135">
        <ele>70</ele>
        <time>2017-04-09T13:07:34Z</time>
      </trkpt>
      <trkpt lat="48.56185" lon="2.75143">
        <ele>69</ele>
        <time>2017-04-09T13:07:37Z</time>
      </trkpt>
      <trkpt lat="48.56186" lon="2.75166">
        <ele>68</ele>
        <time>2017-04-09T13:07:49Z</time>
      </trkpt>
      <trkpt lat="48.56189" lon="2.75173">
        <ele>67</ele>
        <time>2017-04-09T13:07:53Z</time>
      </trkpt>
      <trkpt lat="48.56196" lon="2.75211">
        <ele>67</ele>
        <time>2017-04-09T13:08:07Z</time>
      </trkpt>
      <trkpt lat="48.56202" lon="2.75217">
        <ele>67</ele>
        <time>2017-04-09T13:08:10Z</time>
      </trkpt>
      <trkpt lat="48.56206" lon="2.7522">
        <ele>67</ele>
        <time>2017-04-09T13:08:12Z</time>
      </trkpt>
      <trkpt lat="48.56214" lon="2.75228">
        <ele>67</ele>
        <time>2017-04-09T13:08:17Z</time>
      </trkpt>
      <trkpt lat="48.56216" lon="2.75235">
        <ele>67</ele>
        <time>2017-04-09T13:08:21Z</time>
      </trkpt>
      <trkpt lat="48.56217" lon="2.75244">
        <ele>68</ele>
        <time>2017-04-09T13:08:25Z</time>
      </trkpt>
      <trkpt lat="48.56211" lon="2.75273">
        <ele>68</ele>
        <time>2017-04-09T13:08:38Z</time>
      </trkpt>
      <trkpt lat="48.56209" lon="2.75279">
        <ele>68</ele>
        <time>2017-04-09T13:08:41Z</time>
      </trkpt>
      <trkpt lat="48.56207" lon="2.75287">
        <ele>69</ele>
        <time>2017-04-09T13:08:45Z</time>
      </trkpt>
      <trkpt lat="48.56203" lon="2.75336">
        <ele>69</ele>
        <time>2017-04-09T13:09:06Z</time>
      </trkpt>
      <trkpt lat="48.56204" lon="2.75353">
        <ele>69</ele>
        <time>2017-04-09T13:09:14Z</time>
      </trkpt>
      <trkpt lat="48.56203" lon="2.75377">
        <ele>69</ele>
        <time>2017-04-09T13:09:26Z</time>
      </trkpt>
      <trkpt lat="48.56208" lon="2.75399">
        <ele>69</ele>
        <time>2017-04-09T13:09:36Z</time>
      </trkpt>
      <trkpt lat="48.56206" lon="2.75416">
        <ele>69</ele>
        <time>2017-04-09T13:09:43Z</time>
      </trkpt>
      <trkpt lat="48.56208" lon="2.75424">
        <ele>69</ele>
        <time>2017-04-09T13:09:48Z</time>
      </trkpt>
      <trkpt lat="48.56212" lon="2.75429">
        <ele>69</ele>
        <time>2017-04-09T13:09:52Z</time>
      </trkpt>
      <trkpt lat="48.56214" lon="2.75435">
        <ele>70</ele>
        <time>2017-04-09T13:09:56Z</time>
      </trkpt>
      <trkpt lat="48.56213" lon="2.75451">
        <ele>70</ele>
        <time>2017-04-09T13:10:03Z</time>
      </trkpt>
      <trkpt lat="48.56213" lon="2.75468">
        <ele>70</ele>
        <time>2017-04-09T13:10:10Z</time>
      </trkpt>
      <trkpt lat="48.56211" lon="2.75475">
        <ele>70</ele>
        <time>2017-04-09T13:10:14Z</time>
      </trkpt>
      <trkpt lat="48.56214" lon="2.75498">
        <ele>70</ele>
        <time>2017-04-09T13:10:27Z</time>
      </trkpt>
      <trkpt lat="48.56214" lon="2.75506">
        <ele>70</ele>
        <time>2017-04-09T13:10:31Z</time>
      </trkpt>
      <trkpt lat="48.56216" lon="2.75524">
        <ele>70</ele>
        <time>2017-04-09T13:10:38Z</time>
      </trkpt>
      <trkpt lat="48.56215" lon="2.7553">
        <ele>70</ele>
        <time>2017-04-09T13:10:40Z</time>
      </trkpt>
      <trkpt lat="48.56219" lon="2.75565">
        <ele>70</ele>
        <time>2017-04-09T13:10:54Z</time>
      </trkpt>
      <trkpt lat="48.56221" lon="2.75574">
        <ele>70</ele>
        <time>2017-04-09T13:10:58Z</time>
      </trkpt>
      <trkpt lat="48.56222" lon="2.75582">
        <ele>70</ele>
        <time>2017-04-09T13:11:01Z</time>
      </trkpt>
      <trkpt lat="48.5622" lon="2.7559">
        <ele>70</ele>
        <time>2017-04-09T13:11:04Z</time>
      </trkpt>
      <trkpt lat="48.56217" lon="2.75596">
        <ele>70</ele>
        <time>2017-04-09T13:11:08Z</time>
      </trkpt>
      <trkpt lat="48.56216" lon="2.75605">
        <ele>69</ele>
        <time>2017-04-09T13:11:11Z</time>
      </trkpt>
      <trkpt lat="48.56217" lon="2.75625">
        <ele>69</ele>
        <time>2017-04-09T13:11:18Z</time>
      </trkpt>
      <trkpt lat="48.56223" lon="2.75657">
        <ele>68</ele>
        <time>2017-04-09T13:11:31Z</time>
      </trkpt>
      <trkpt lat="48.56225" lon="2.75671">
        <ele>69</ele>
        <time>2017-04-09T13:11:37Z</time>
      </trkpt>
      <trkpt lat="48.56225" lon="2.75679">
        <ele>69</ele>
        <time>2017-04-09T13:11:41Z</time>
      </trkpt>
      <trkpt lat="48.56223" lon="2.75687">
        <ele>68</ele>
        <time>2017-04-09T13:11:45Z</time>
      </trkpt>
      <trkpt lat="48.56215" lon="2.75695">
        <ele>67</ele>
        <time>2017-04-09T13:11:52Z</time>
      </trkpt>
      <trkpt lat="48.56171" lon="2.75714">
        <ele>64</ele>
        <time>2017-04-09T13:12:23Z</time>
      </trkpt>
      <trkpt lat="48.56148" lon="2.75721">
        <ele>63</ele>
        <time>2017-04-09T13:12:38Z</time>
      </trkpt>
      <trkpt lat="48.56127" lon="2.75719">
        <ele>62</ele>
        <time>2017-04-09T13:12:51Z</time>
      </trkpt>
      <trkpt lat="48.56122" lon="2.75721">
        <ele>62</ele>
        <time>2017-04-09T13:12:54Z</time>
      </trkpt>
      <trkpt lat="48.56111" lon="2.75721">
        <ele>62</ele>
        <time>2017-04-09T13:13:02Z</time>
      </trkpt>
      <trkpt lat="48.56106" lon="2.75725">
        <ele>62</ele>
        <time>2017-04-09T13:13:06Z</time>
      </trkpt>
      <trkpt lat="48.56094" lon="2.75741">
        <ele>62</ele>
        <time>2017-04-09T13:13:16Z</time>
      </trkpt>
      <trkpt lat="48.56082" lon="2.75776">
        <ele>63</ele>
        <time>2017-04-09T13:13:33Z</time>
      </trkpt>
      <trkpt lat="48.56065" lon="2.75806">
        <ele>66</ele>
        <time>2017-04-09T13:13:53Z</time>
      </trkpt>
      <trkpt lat="48.56052" lon="2.75818">
        <ele>67</ele>
        <time>2017-04-09T13:14:04Z</time>
      </trkpt>
      <trkpt lat="48.56047" lon="2.7582">
        <ele>67</ele>
        <time>2017-04-09T13:14:08Z</time>
      </trkpt>
      <trkpt lat="48.56009" lon="2.75847">
        <ele>71</ele>
        <time>2017-04-09T13:14:41Z</time>
      </trkpt>
      <trkpt lat="48.55971" lon="2.75885">
        <ele>74</ele>
        <time>2017-04-09T13:15:13Z</time>
      </trkpt>
      <trkpt lat="48.55962" lon="2.75892">
        <ele>75</ele>
        <time>2017-04-09T13:15:19Z</time>
      </trkpt>
      <trkpt lat="48.55946" lon="2.75897">
        <ele>76</ele>
        <time>2017-04-09T13:15:30Z</time>
      </trkpt>
      <trkpt lat="48.55942" lon="2.75896">
        <ele>76</ele>
        <time>2017-04-09T13:15:33Z</time>
      </trkpt>
      <trkpt lat="48.55912" lon="2.75905">
        <ele>78</ele>
        <time>2017-04-09T13:15:53Z</time>
      </trkpt>
      <trkpt lat="48.55906" lon="2.75904">
        <ele>78</ele>
        <time>2017-04-09T13:15:57Z</time>
      </trkpt>
      <trkpt lat="48.55901" lon="2.75901">
        <ele>79</ele>
        <time>2017-04-09T13:16:01Z</time>
      </trkpt>
      <trkpt lat="48.55883" lon="2.75882">
        <ele>80</ele>
        <time>2017-04-09T13:16:16Z</time>
      </trkpt>
      <trkpt lat="48.55872" lon="2.75862">
        <ele>80</ele>
        <time>2017-04-09T13:16:28Z</time>
      </trkpt>
      <trkpt lat="48.55858" lon="2.75849">
        <ele>81</ele>
        <time>2017-04-09T13:16:40Z</time>
      </trkpt>
      <trkpt lat="48.55835" lon="2.75816">
        <ele>82</ele>
        <time>2017-04-09T13:17:11Z</time>
      </trkpt>
      <trkpt lat="48.55796" lon="2.75763">
        <ele>82</ele>
        <time>2017-04-09T13:17:44Z</time>
      </trkpt>
      <trkpt lat="48.55784" lon="2.75748">
        <ele>83</ele>
        <time>2017-04-09T13:17:54Z</time>
      </trkpt>
      <trkpt lat="48.55775" lon="2.75741">
        <ele>82</ele>
        <time>2017-04-09T13:18:03Z</time>
      </trkpt>
      <trkpt lat="48.5577" lon="2.7574">
        <ele>82</ele>
        <time>2017-04-09T13:18:07Z</time>
      </trkpt>
      <trkpt lat="48.55765" lon="2.75743">
        <ele>82</ele>
        <time>2017-04-09T13:18:11Z</time>
      </trkpt>
      <trkpt lat="48.55757" lon="2.75753">
        <ele>82</ele>
        <time>2017-04-09T13:18:17Z</time>
      </trkpt>
      <trkpt lat="48.55754" lon="2.75759">
        <ele>82</ele>
        <time>2017-04-09T13:18:20Z</time>
      </trkpt>
      <trkpt lat="48.55751" lon="2.75764">
        <ele>82</ele>
        <time>2017-04-09T13:18:23Z</time>
      </trkpt>
      <trkpt lat="48.55745" lon="2.75769">
        <ele>82</ele>
        <time>2017-04-09T13:18:26Z</time>
      </trkpt>
      <trkpt lat="48.55708" lon="2.75837">
        <ele>82</ele>
        <time>2017-04-09T13:19:00Z</time>
      </trkpt>
      <trkpt lat="48.5569" lon="2.75875">
        <ele>83</ele>
        <time>2017-04-09T13:19:22Z</time>
      </trkpt>
      <trkpt lat="48.55678" lon="2.75889">
        <ele>83</ele>
        <time>2017-04-09T13:19:31Z</time>
      </trkpt>
      <trkpt lat="48.5565" lon="2.75947">
        <ele>83</ele>
        <time>2017-04-09T13:20:00Z</time>
      </trkpt>
      <trkpt lat="48.55646" lon="2.7596">
        <ele>83</ele>
        <time>2017-04-09T13:20:09Z</time>
      </trkpt>
      <trkpt lat="48.55638" lon="2.75979">
        <ele>83</ele>
        <time>2017-04-09T13:20:18Z</time>
      </trkpt>
      <trkpt lat="48.55627" lon="2.76022">
        <ele>83</ele>
        <time>2017-04-09T13:20:37Z</time>
      </trkpt>
      <trkpt lat="48.55626" lon="2.76036">
        <ele>83</ele>
        <time>2017-04-09T13:20:43Z</time>
      </trkpt>
      <trkpt lat="48.55622" lon="2.76052">
        <ele>82</ele>
        <time>2017-04-09T13:20:49Z</time>
      </trkpt>
      <trkpt lat="48.55618" lon="2.76077">
        <ele>82</ele>
        <time>2017-04-09T13:20:58Z</time>
      </trkpt>
      <trkpt lat="48.55619" lon="2.76095">
        <ele>83</ele>
        <time>2017-04-09T13:21:07Z</time>
      </trkpt>
      <trkpt lat="48.55617" lon="2.76112">
        <ele>83</ele>
        <time>2017-04-09T13:21:13Z</time>
      </trkpt>
      <trkpt lat="48.55616" lon="2.76144">
        <ele>83</ele>
        <time>2017-04-09T13:21:27Z</time>
      </trkpt>
      <trkpt lat="48.55619" lon="2.76168">
        <ele>83</ele>
        <time>2017-04-09T13:21:38Z</time>
      </trkpt>
      <trkpt lat="48.55617" lon="2.76234">
        <ele>84</ele>
        <time>2017-04-09T13:22:08Z</time>
      </trkpt>
      <trkpt lat="48.55619" lon="2.76258">
        <ele>84</ele>
        <time>2017-04-09T13:22:19Z</time>
      </trkpt>
      <trkpt lat="48.55608" lon="2.76328">
        <ele>84</ele>
        <time>2017-04-09T13:22:50Z</time>
      </trkpt>
      <trkpt lat="48.55585" lon="2.76388">
        <ele>84</ele>
        <time>2017-04-09T13:23:20Z</time>
      </trkpt>
      <trkpt lat="48.55558" lon="2.76449">
        <ele>84</ele>
        <time>2017-04-09T13:23:52Z</time>
      </trkpt>
      <trkpt lat="48.55542" lon="2.76485">
        <ele>84</ele>
        <time>2017-04-09T13:24:10Z</time>
      </trkpt>
      <trkpt lat="48.55521" lon="2.76553">
        <ele>84</ele>
        <time>2017-04-09T13:24:40Z</time>
      </trkpt>
      <trkpt lat="48.55516" lon="2.76567">
        <ele>83</ele>
        <time>2017-04-09T13:24:46Z</time>
      </trkpt>
      <trkpt lat="48.55515" lon="2.76574">
        <ele>83</ele>
        <time>2017-04-09T13:24:49Z</time>
      </trkpt>
      <trkpt lat="48.55509" lon="2.76594">
        <ele>84</ele>
        <time>2017-04-09T13:24:58Z</time>
      </trkpt>
      <trkpt lat="48.55495" lon="2.76668">
        <ele>83</ele>
        <time>2017-04-09T13:25:31Z</time>
      </trkpt>
      <trkpt lat="48.55493" lon="2.76674">
        <ele>83</ele>
        <time>2017-04-09T13:25:34Z</time>
      </trkpt>
      <trkpt lat="48.55481" lon="2.76738">
        <ele>83</ele>
        <time>2017-04-09T13:26:01Z</time>
      </trkpt>
      <trkpt lat="48.55476" lon="2.76751">
        <ele>84</ele>
        <time>2017-04-09T13:26:08Z</time>
      </trkpt>
      <trkpt lat="48.55476" lon="2.76759">
        <ele>84</ele>
        <time>2017-04-09T13:26:12Z</time>
      </trkpt>
      <trkpt lat="48.55478" lon="2.76767">
        <ele>83</ele>
        <time>2017-04-09T13:26:15Z</time>
      </trkpt>
      <trkpt lat="48.55481" lon="2.76774">
        <ele>84</ele>
        <time>2017-04-09T13:26:18Z</time>
      </trkpt>
      <trkpt lat="48.55486" lon="2.76778">
        <ele>84</ele>
        <time>2017-04-09T13:26:21Z</time>
      </trkpt>
      <trkpt lat="48.55491" lon="2.76778">
        <ele>84</ele>
        <time>2017-04-09T13:26:24Z</time>
      </trkpt>
      <trkpt lat="48.55495" lon="2.76783">
        <ele>84</ele>
        <time>2017-04-09T13:26:27Z</time>
      </trkpt>
      <trkpt lat="48.55502" lon="2.76795">
        <ele>85</ele>
        <time>2017-04-09T13:26:33Z</time>
      </trkpt>
      <trkpt lat="48.55517" lon="2.76802">
        <ele>85</ele>
        <time>2017-04-09T13:26:42Z</time>
      </trkpt>
      <trkpt lat="48.55524" lon="2.76811">
        <ele>86</ele>
        <time>2017-04-09T13:26:49Z</time>
      </trkpt>
      <trkpt lat="48.55527" lon="2.76816">
        <ele>86</ele>
        <time>2017-04-09T13:26:52Z</time>
      </trkpt>
      <trkpt lat="48.55535" lon="2.76827">
        <ele>86</ele>
        <time>2017-04-09T13:26:59Z</time>
      </trkpt>
      <trkpt lat="48.55542" lon="2.76839">
        <ele>87</ele>
        <time>2017-04-09T13:27:05Z</time>
      </trkpt>
      <trkpt lat="48.55553" lon="2.76853">
        <ele>87</ele>
        <time>2017-04-09T13:27:14Z</time>
      </trkpt>
      <trkpt lat="48.55559" lon="2.76866">
        <ele>88</ele>
        <time>2017-04-09T13:27:21Z</time>
      </trkpt>
      <trkpt lat="48.5558" lon="2.76885">
        <ele>89</ele>
        <time>2017-04-09T13:27:36Z</time>
      </trkpt>
      <trkpt lat="48.55585" lon="2.76888">
        <ele>89</ele>
        <time>2017-04-09T13:27:39Z</time>
      </trkpt>
      <trkpt lat="48.55597" lon="2.76898">
        <ele>90</ele>
        <time>2017-04-09T13:27:48Z</time>
      </trkpt>
      <trkpt lat="48.55622" lon="2.76919">
        <ele>89</ele>
        <time>2017-04-09T13:28:07Z</time>
      </trkpt>
      <trkpt lat="48.55627" lon="2.76925">
        <ele>89</ele>
        <time>2017-04-09T13:28:11Z</time>
      </trkpt>
      <trkpt lat="48.55671" lon="2.76962">
        <ele>89</ele>
        <time>2017-04-09T13:28:41Z</time>
      </trkpt>
      <trkpt lat="48.55714" lon="2.76999">
        <ele>89</ele>
        <time>2017-04-09T13:29:11Z</time>
      </trkpt>
      <trkpt lat="48.55756" lon="2.77039">
        <ele>90</ele>
        <time>2017-04-09T13:29:42Z</time>
      </trkpt>
      <trkpt lat="48.55772" lon="2.77055">
        <ele>90</ele>
        <time>2017-04-09T13:29:55Z</time>
      </trkpt>
      <trkpt lat="48.55777" lon="2.77057">
        <ele>90</ele>
        <time>2017-04-09T13:29:58Z</time>
      </trkpt>
      <trkpt lat="48.55785" lon="2.77066">
        <ele>91</ele>
        <time>2017-04-09T13:30:05Z</time>
      </trkpt>
      <trkpt lat="48.55802" lon="2.77078">
        <ele>91</ele>
        <time>2017-04-09T13:30:18Z</time>
      </trkpt>
      <trkpt lat="48.55833" lon="2.77108">
        <ele>91</ele>
        <time>2017-04-09T13:30:42Z</time>
      </trkpt>
      <trkpt lat="48.5584" lon="2.77119">
        <ele>92</ele>
        <time>2017-04-09T13:30:48Z</time>
      </trkpt>
      <trkpt lat="48.55844" lon="2.77124">
        <ele>92</ele>
        <time>2017-04-09T13:30:51Z</time>
      </trkpt>
      <trkpt lat="48.55856" lon="2.77135">
        <ele>92</ele>
        <time>2017-04-09T13:31:00Z</time>
      </trkpt>
      <trkpt lat="48.55882" lon="2.77169">
        <ele>92</ele>
        <time>2017-04-09T13:31:21Z</time>
      </trkpt>
      <trkpt lat="48.55915" lon="2.77226">
        <ele>93</ele>
        <time>2017-04-09T13:31:52Z</time>
      </trkpt>
      <trkpt lat="48.55923" lon="2.77246">
        <ele>93</ele>
        <time>2017-04-09T13:32:01Z</time>
      </trkpt>
      <trkpt lat="48.55929" lon="2.77255">
        <ele>93</ele>
        <time>2017-04-09T13:32:06Z</time>
      </trkpt>
      <trkpt lat="48.55936" lon="2.77266">
        <ele>93</ele>
        <time>2017-04-09T13:32:13Z</time>
      </trkpt>
      <trkpt lat="48.55963" lon="2.7732">
        <ele>93</ele>
        <time>2017-04-09T13:32:41Z</time>
      </trkpt>
      <trkpt lat="48.56001" lon="2.77378">
        <ele>93</ele>
        <time>2017-04-09T13:33:14Z</time>
      </trkpt>
      <trkpt lat="48.56033" lon="2.77438">
        <ele>92</ele>
        <time>2017-04-09T13:33:44Z</time>
      </trkpt>
      <trkpt lat="48.56059" lon="2.77487">
        <ele>92</ele>
        <time>2017-04-09T13:34:09Z</time>
      </trkpt>
      <trkpt lat="48.56089" lon="2.77538">
        <ele>92</ele>
        <time>2017-04-09T13:34:37Z</time>
      </trkpt>
      <trkpt lat="48.56102" lon="2.77561">
        <ele>92</ele>
        <time>2017-04-09T13:34:49Z</time>
      </trkpt>
      <trkpt lat="48.56113" lon="2.77574">
        <ele>92</ele>
        <time>2017-04-09T13:34:58Z</time>
      </trkpt>
      <trkpt lat="48.56151" lon="2.77631">
        <ele>92</ele>
        <time>2017-04-09T13:35:31Z</time>
      </trkpt>
      <trkpt lat="48.56162" lon="2.77637">
        <ele>93</ele>
        <time>2017-04-09T13:35:39Z</time>
      </trkpt>
      <trkpt lat="48.56198" lon="2.77683">
        <ele>93</ele>
        <time>2017-04-09T13:36:11Z</time>
      </trkpt>
      <trkpt lat="48.56234" lon="2.77726">
        <ele>93</ele>
        <time>2017-04-09T13:36:42Z</time>
      </trkpt>
      <trkpt lat="48.56274" lon="2.7777">
        <ele>93</ele>
        <time>2017-04-09T13:37:14Z</time>
      </trkpt>
      <trkpt lat="48.5629" lon="2.77785">
        <ele>93</ele>
        <time>2017-04-09T13:37:26Z</time>
      </trkpt>
      <trkpt lat="48.56314" lon="2.77829">
        <ele>92</ele>
        <time>2017-04-09T13:37:50Z</time>
      </trkpt>
      <trkpt lat="48.56325" lon="2.77842">
        <ele>92</ele>
        <time>2017-04-09T13:37:59Z</time>
      </trkpt>
      <trkpt lat="48.56332" lon="2.77854">
        <ele>92</ele>
        <time>2017-04-09T13:38:06Z</time>
      </trkpt>
      <trkpt lat="48.56334" lon="2.7786">
        <ele>92</ele>
        <time>2017-04-09T13:38:09Z</time>
      </trkpt>
      <trkpt lat="48.56354" lon="2.77898">
        <ele>91</ele>
        <time>2017-04-09T13:38:29Z</time>
      </trkpt>
      <trkpt lat="48.56362" lon="2.77917">
        <ele>90</ele>
        <time>2017-04-09T13:38:38Z</time>
      </trkpt>
      <trkpt lat="48.56379" lon="2.77947">
        <ele>90</ele>
        <time>2017-04-09T13:38:55Z</time>
      </trkpt>
      <trkpt lat="48.56383" lon="2.77954">
        <ele>90</ele>
        <time>2017-04-09T13:38:58Z</time>
      </trkpt>
      <trkpt lat="48.56407" lon="2.77999">
        <ele>89</ele>
        <time>2017-04-09T13:39:22Z</time>
      </trkpt>
      <trkpt lat="48.56411" lon="2.78003">
        <ele>89</ele>
        <time>2017-04-09T13:39:25Z</time>
      </trkpt>
      <trkpt lat="48.56426" lon="2.78005">
        <ele>89</ele>
        <time>2017-04-09T13:39:34Z</time>
      </trkpt>
      <trkpt lat="48.56432" lon="2.78004">
        <ele>88</ele>
        <time>2017-04-09T13:39:37Z</time>
      </trkpt>
      <trkpt lat="48.56438" lon="2.78003">
        <ele>88</ele>
        <time>2017-04-09T13:39:40Z</time>
      </trkpt>
      <trkpt lat="48.56454" lon="2.77993">
        <ele>88</ele>
        <time>2017-04-09T13:39:50Z</time>
      </trkpt>
      <trkpt lat="48.56502" lon="2.77983">
        <ele>87</ele>
        <time>2017-04-09T13:40:19Z</time>
      </trkpt>
      <trkpt lat="48.56511" lon="2.77979">
        <ele>87</ele>
        <time>2017-04-09T13:40:25Z</time>
      </trkpt>
      <trkpt lat="48.56527" lon="2.77975">
        <ele>87</ele>
        <time>2017-04-09T13:40:34Z</time>
      </trkpt>
      <trkpt lat="48.56577" lon="2.77953">
        <ele>86</ele>
        <time>2017-04-09T13:41:06Z</time>
      </trkpt>
      <trkpt lat="48.56581" lon="2.77949">
        <ele>86</ele>
        <time>2017-04-09T13:41:10Z</time>
      </trkpt>
      <trkpt lat="48.56587" lon="2.77947">
        <ele>86</ele>
        <time>2017-04-09T13:41:14Z</time>
      </trkpt>
      <trkpt lat="48.56593" lon="2.77949">
        <ele>85</ele>
        <time>2017-04-09T13:41:18Z</time>
      </trkpt>
      <trkpt lat="48.56598" lon="2.7795">
        <ele>85</ele>
        <time>2017-04-09T13:41:21Z</time>
      </trkpt>
      <trkpt lat="48.56603" lon="2.77947">
        <ele>85</ele>
        <time>2017-04-09T13:41:25Z</time>
      </trkpt>
      <trkpt lat="48.56633" lon="2.77952">
        <ele>85</ele>
        <time>2017-04-09T13:41:44Z</time>
      </trkpt>
      <trkpt lat="48.56648" lon="2.77949">
        <ele>84</ele>
        <time>2017-04-09T13:41:54Z</time>
      </trkpt>
      <trkpt lat="48.56658" lon="2.77952">
        <ele>84</ele>
        <time>2017-04-09T13:42:00Z</time>
      </trkpt>
      <trkpt lat="48.56672" lon="2.77964">
        <ele>84</ele>
        <time>2017-04-09T13:42:10Z</time>
      </trkpt>
      <trkpt lat="48.56676" lon="2.77978">
        <ele>84</ele>
        <time>2017-04-09T13:42:17Z</time>
      </trkpt>
      <trkpt lat="48.56687" lon="2.77995">
        <ele>85</ele>
        <time>2017-04-09T13:42:28Z</time>
      </trkpt>
      <trkpt lat="48.56692" lon="2.78">
        <ele>85</ele>
        <time>2017-04-09T13:42:31Z</time>
      </trkpt>
      <trkpt lat="48.56694" lon="2.78006">
        <ele>85</ele>
        <time>2017-04-09T13:42:34Z</time>
      </trkpt>
      <trkpt lat="48.56699" lon="2.78008">
        <ele>85</ele>
        <time>2017-04-09T13:42:37Z</time>
      </trkpt>
      <trkpt lat="48.56702" lon="2.78012">
        <ele>85</ele>
        <time>2017-04-09T13:42:40Z</time>
      </trkpt>
      <trkpt lat="48.56703" lon="2.78019">
        <ele>85</ele>
        <time>2017-04-09T13:42:43Z</time>
      </trkpt>
      <trkpt lat="48.56705" lon="2.78026">
        <ele>86</ele>
        <time>2017-04-09T13:42:47Z</time>
      </trkpt>
      <trkpt lat="48.56719" lon="2.78047">
        <ele>87</ele>
        <time>2017-04-09T13:43:04Z</time>
      </trkpt>
      <trkpt lat="48.5672" lon="2.78068">
        <ele>87</ele>
        <time>2017-04-09T13:43:23Z</time>
      </trkpt>
      <trkpt lat="48.56722" lon="2.78075">
        <ele>88</ele>
        <time>2017-04-09T13:43:31Z</time>
      </trkpt>
      <trkpt lat="48.56722" lon="2.78082">
        <ele>88</ele>
        <time>2017-04-09T13:43:36Z</time>
      </trkpt>
      <trkpt lat="48.56728" lon="2.78094">
        <ele>88</ele>
        <time>2017-04-09T13:43:43Z</time>
      </trkpt>
      <trkpt lat="48.56727" lon="2.78101">
        <ele>88</ele>
        <time>2017-04-09T13:43:49Z</time>
      </trkpt>
      <trkpt lat="48.56725" lon="2.7811">
        <ele>88</ele>
        <time>2017-04-09T13:44:05Z</time>
      </trkpt>
      <trkpt lat="48.56724" lon="2.78119">
        <ele>88</ele>
        <time>2017-04-09T13:45:20Z</time>
      </trkpt>
      <trkpt lat="48.5672" lon="2.78122">
        <ele>88</ele>
        <time>2017-04-09T13:45:22Z</time>
      </trkpt>
      <trkpt lat="48.56718" lon="2.7813">
        <ele>88</ele>
        <time>2017-04-09T13:45:29Z</time>
      </trkpt>
      <trkpt lat="48.56714" lon="2.78136">
        <ele>88</ele>
        <time>2017-04-09T13:45:33Z</time>
      </trkpt>
      <trkpt lat="48.56714" lon="2.78144">
        <ele>88</ele>
        <time>2017-04-09T13:45:38Z</time>
      </trkpt>
      <trkpt lat="48.56717" lon="2.78149">
        <ele>88</ele>
        <time>2017-04-09T13:45:46Z</time>
      </trkpt>
    </trkseg>
  </trk>
</gpx>